Wetterdaten: Montag, 13.03.2017
Datum Zeit Temp. A. Feuchte A. Luftdruck Regen Wind Richtung Richtung Sonnenschein ET UV Solar Taupunkt Windchill Windben Empfang
13.03.2017 00:00 0,4 C 80 % 1019,5 hPa 0,0 l/m 5,6 km/h (1 Bft) NO 56 0 min 0,000 mm 0,0 UV-I 0 W/m -2,6 C 0,4 C 8,0 km/h (2 Bft) 96,00 %
13.03.2017 00:02 0,4 C 80 % 1019,5 hPa 0,0 l/m 5,1 km/h (1 Bft) O-NO 59 0 min 0,000 mm 0,0 UV-I 0 W/m -2,6 C 0,4 C 8,0 km/h (2 Bft) 95,65 %
13.03.2017 00:04 0,4 C 80 % 1019,5 hPa 0,0 l/m 4,7 km/h (1 Bft) O-NO 66 0 min 0,000 mm 0,0 UV-I 0 W/m -2,6 C 0,4 C 8,0 km/h (2 Bft) 95,74 %
13.03.2017 00:06 0,4 C 80 % 1019,5 hPa 0,0 l/m 5,0 km/h (1 Bft) O-NO 60 0 min 0,000 mm 0,0 UV-I 0 W/m -2,6 C 0,4 C 8,0 km/h (2 Bft) 97,56 %
13.03.2017 00:08 0,3 C 80 % 1019,5 hPa 0,0 l/m 5,9 km/h (2 Bft) O-NO 64 0 min 0,000 mm 0,0 UV-I 0 W/m -2,7 C 0,3 C 8,0 km/h (2 Bft) 93,62 %
13.03.2017 00:10 0,4 C 80 % 1019,5 hPa 0,0 l/m 6,8 km/h (2 Bft) O-NO 62 0 min 0,000 mm 0,0 UV-I 0 W/m -2,6 C 0,0 C 9,7 km/h (2 Bft) 98,11 %
13.03.2017 00:12 0,4 C 80 % 1019,5 hPa 0,0 l/m 6,3 km/h (2 Bft) O-NO 63 0 min 0,000 mm 0,0 UV-I 0 W/m -2,6 C 0,4 C 8,0 km/h (2 Bft) 94,74 %
13.03.2017 00:14 0,4 C 80 % 1019,6 hPa 0,0 l/m 5,7 km/h (1 Bft) N-NO 24 0 min 0,000 mm 0,0 UV-I 0 W/m -2,6 C 0,4 C 11,3 km/h (2 Bft) 95,45 %
13.03.2017 00:16 0,4 C 80 % 1019,6 hPa 0,0 l/m 4,6 km/h (1 Bft) NO 53 0 min 0,000 mm 0,0 UV-I 0 W/m -2,6 C 0,4 C 6,4 km/h (2 Bft) 96,00 %
13.03.2017 00:18 0,3 C 80 % 1019,6 hPa 0,0 l/m 5,9 km/h (2 Bft) NO 35 0 min 0,000 mm 0,0 UV-I 0 W/m -2,7 C 0,3 C 8,0 km/h (2 Bft) 96,23 %
13.03.2017 00:20 0,3 C 81 % 1019,6 hPa 0,0 l/m 8,4 km/h (2 Bft) N-NO 33 0 min 0,000 mm 0,0 UV-I 0 W/m -2,6 C -1,7 C 11,3 km/h (2 Bft) 95,83 %
13.03.2017 00:22 0,2 C 81 % 1019,6 hPa 0,0 l/m 8,4 km/h (2 Bft) N-NO 32 0 min 0,000 mm 0,0 UV-I 0 W/m -2,7 C -1,8 C 12,9 km/h (3 Bft) 98,51 %
13.03.2017 00:24 0,1 C 82 % 1019,7 hPa 0,0 l/m 8,1 km/h (2 Bft) NO 38 0 min 0,000 mm 0,0 UV-I 0 W/m -2,6 C -1,6 C 12,9 km/h (3 Bft) 98,00 %
13.03.2017 00:26 0,1 C 82 % 1019,7 hPa 0,0 l/m 8,7 km/h (2 Bft) NO 37 0 min 0,000 mm 0,0 UV-I 0 W/m -2,6 C -2,2 C 12,9 km/h (3 Bft) 95,12 %
13.03.2017 00:28 0,1 C 82 % 1019,7 hPa 0,0 l/m 6,0 km/h (2 Bft) NO 48 0 min 0,000 mm 0,0 UV-I 0 W/m -2,6 C 0,1 C 9,7 km/h (2 Bft) 94,34 %
13.03.2017 00:30 0,2 C 82 % 1019,7 hPa 0,0 l/m 6,4 km/h (2 Bft) NO 54 0 min 0,000 mm 0,0 UV-I 0 W/m -2,5 C 0,2 C 11,3 km/h (2 Bft) 94,87 %
13.03.2017 00:32 0,2 C 82 % 1019,7 hPa 0,0 l/m 6,6 km/h (2 Bft) NO 49 0 min 0,000 mm 0,0 UV-I 0 W/m -2,5 C 0,0 C 9,7 km/h (2 Bft) 92,45 %
13.03.2017 00:34 0,2 C 82 % 1019,7 hPa 0,0 l/m 6,7 km/h (2 Bft) NO 55 0 min 0,000 mm 0,0 UV-I 0 W/m -2,5 C -0,1 C 9,7 km/h (2 Bft) 92,68 %
13.03.2017 00:36 0,3 C 81 % 1019,6 hPa 0,0 l/m 5,8 km/h (2 Bft) NO 44 0 min 0,000 mm 0,0 UV-I 0 W/m -2,6 C 0,3 C 9,7 km/h (2 Bft) 92,86 %
13.03.2017 00:38 0,3 C 81 % 1019,7 hPa 0,0 l/m 5,6 km/h (1 Bft) NO 53 0 min 0,000 mm 0,0 UV-I 0 W/m -2,6 C 0,3 C 8,0 km/h (2 Bft) 94,74 %
13.03.2017 00:40 0,3 C 81 % 1019,7 hPa 0,0 l/m 5,1 km/h (1 Bft) NO 52 0 min 0,000 mm 0,0 UV-I 0 W/m -2,6 C 0,3 C 8,0 km/h (2 Bft) 95,24 %
13.03.2017 00:42 0,4 C 81 % 1019,8 hPa 0,0 l/m 5,7 km/h (1 Bft) NO 52 0 min 0,000 mm 0,0 UV-I 0 W/m -2,5 C 0,4 C 9,7 km/h (2 Bft) 95,12 %
13.03.2017 00:44 0,3 C 81 % 1019,8 hPa 0,0 l/m 5,0 km/h (1 Bft) NO 52 0 min 0,000 mm 0,0 UV-I 0 W/m -2,6 C 0,3 C 6,4 km/h (2 Bft) 96,77 %
13.03.2017 00:46 0,3 C 81 % 1019,8 hPa 0,0 l/m 4,3 km/h (1 Bft) NO 46 0 min 0,000 mm 0,0 UV-I 0 W/m -2,6 C 0,3 C 6,4 km/h (2 Bft) 92,68 %
13.03.2017 00:48 0,3 C 81 % 1019,9 hPa 0,0 l/m 5,0 km/h (1 Bft) NO 49 0 min 0,000 mm 0,0 UV-I 0 W/m -2,6 C 0,3 C 8,0 km/h (2 Bft) 98,00 %
13.03.2017 00:50 0,3 C 81 % 1019,9 hPa 0,0 l/m 4,6 km/h (1 Bft) NO 48 0 min 0,000 mm 0,0 UV-I 0 W/m -2,6 C 0,3 C 6,4 km/h (2 Bft) 96,00 %
13.03.2017 00:52 0,2 C 81 % 1020,0 hPa 0,0 l/m 4,9 km/h (1 Bft) O-NO 59 0 min 0,000 mm 0,0 UV-I 0 W/m -2,7 C 0,2 C 6,4 km/h (2 Bft) 95,74 %
13.03.2017 00:54 0,2 C 81 % 1020,0 hPa 0,0 l/m 5,4 km/h (1 Bft) O-NO 63 0 min 0,000 mm 0,0 UV-I 0 W/m -2,7 C 0,2 C 8,0 km/h (2 Bft) 97,56 %
13.03.2017 00:56 0,2 C 81 % 1020,0 hPa 0,0 l/m 6,3 km/h (2 Bft) O-NO 63 0 min 0,000 mm 0,0 UV-I 0 W/m -2,7 C 0,2 C 9,7 km/h (2 Bft) 96,00 %
13.03.2017 00:58 0,3 C 81 % 1020,0 hPa 0,0 l/m 6,5 km/h (2 Bft) NO 53 0 min 0,000 mm 0,0 UV-I 0 W/m -2,6 C 0,2 C 9,7 km/h (2 Bft) 97,56 %
13.03.2017 01:00 0,3 C 81 % 1020,0 hPa 0,0 l/m 6,0 km/h (2 Bft) O-NO 61 0 min 0,000 mm 0,0 UV-I 0 W/m -2,6 C 0,3 C 8,0 km/h (2 Bft) 96,23 %
13.03.2017 01:02 0,3 C 81 % 1020,1 hPa 0,0 l/m 5,6 km/h (1 Bft) O-NO 57 0 min 0,000 mm 0,0 UV-I 0 W/m -2,6 C 0,3 C 8,0 km/h (2 Bft) 100,00 %
13.03.2017 01:04 0,3 C 81 % 1020,1 hPa 0,0 l/m 5,3 km/h (1 Bft) O-NO 71 0 min 0,000 mm 0,0 UV-I 0 W/m -2,6 C 0,3 C 6,4 km/h (2 Bft) 97,22 %
13.03.2017 01:06 0,3 C 81 % 1020,2 hPa 0,0 l/m 4,4 km/h (1 Bft) O-NO 74 0 min 0,000 mm 0,0 UV-I 0 W/m -2,6 C 0,3 C 6,4 km/h (2 Bft) 98,08 %
13.03.2017 01:08 0,3 C 81 % 1020,2 hPa 0,0 l/m 5,4 km/h (1 Bft) O-NO 63 0 min 0,000 mm 0,0 UV-I 0 W/m -2,6 C 0,3 C 6,4 km/h (2 Bft) 100,00 %
13.03.2017 01:10 0,3 C 81 % 1020,2 hPa 0,0 l/m 6,8 km/h (2 Bft) NO 49 0 min 0,000 mm 0,0 UV-I 0 W/m -2,6 C -0,1 C 9,7 km/h (2 Bft) 98,00 %
13.03.2017 01:12 0,2 C 82 % 1020,2 hPa 0,0 l/m 5,8 km/h (2 Bft) NO 54 0 min 0,000 mm 0,0 UV-I 0 W/m -2,5 C 0,2 C 8,0 km/h (2 Bft) 97,44 %
13.03.2017 01:14 0,2 C 82 % 1020,2 hPa 0,0 l/m 6,4 km/h (2 Bft) O-NO 59 0 min 0,000 mm 0,0 UV-I 0 W/m -2,5 C 0,2 C 8,0 km/h (2 Bft) 97,87 %
13.03.2017 01:16 0,1 C 82 % 1020,3 hPa 0,0 l/m 7,0 km/h (2 Bft) O-NO 63 0 min 0,000 mm 0,0 UV-I 0 W/m -2,6 C -0,5 C 9,7 km/h (2 Bft) 96,43 %
13.03.2017 01:18 0,0 C 83 % 1020,3 hPa 0,0 l/m 6,8 km/h (2 Bft) O-NO 61 0 min 0,000 mm 0,0 UV-I 0 W/m -2,5 C -0,4 C 9,7 km/h (2 Bft) 100,00 %
13.03.2017 01:20 0,0 C 83 % 1020,3 hPa 0,0 l/m 6,9 km/h (2 Bft) O-NO 61 0 min 0,000 mm 0,0 UV-I 0 W/m -2,5 C -0,5 C 9,7 km/h (2 Bft) 100,00 %
13.03.2017 01:22 -0,1 C 83 % 1020,3 hPa 0,0 l/m 6,2 km/h (2 Bft) O-NO 64 0 min 0,000 mm 0,0 UV-I 0 W/m -2,6 C -0,1 C 8,0 km/h (2 Bft) 95,74 %
13.03.2017 01:24 -0,1 C 83 % 1020,3 hPa 0,0 l/m 5,5 km/h (1 Bft) O-NO 63 0 min 0,000 mm 0,0 UV-I 0 W/m -2,6 C -0,1 C 8,0 km/h (2 Bft) 98,00 %
13.03.2017 01:26 -0,1 C 83 % 1020,3 hPa 0,0 l/m 5,9 km/h (2 Bft) NO 46 0 min 0,000 mm 0,0 UV-I 0 W/m -2,6 C -0,1 C 8,0 km/h (2 Bft) 100,00 %
13.03.2017 01:28 -0,1 C 84 % 1020,3 hPa 0,0 l/m 4,7 km/h (1 Bft) O-NO 63 0 min 0,000 mm 0,0 UV-I 0 W/m -2,5 C -0,1 C 6,4 km/h (2 Bft) 97,87 %
13.03.2017 01:30 -0,1 C 84 % 1020,4 hPa 0,0 l/m 3,9 km/h (1 Bft) O-NO 58 0 min 0,000 mm 0,0 UV-I 0 W/m -2,5 C -0,1 C 6,4 km/h (2 Bft) 95,74 %
13.03.2017 01:32 -0,1 C 84 % 1020,4 hPa 0,0 l/m 4,6 km/h (1 Bft) O-NO 64 0 min 0,000 mm 0,0 UV-I 0 W/m -2,5 C -0,1 C 6,4 km/h (2 Bft) 96,00 %
13.03.2017 01:34 -0,2 C 84 % 1020,4 hPa 0,0 l/m 5,3 km/h (1 Bft) O-NO 58 0 min 0,000 mm 0,0 UV-I 0 W/m -2,6 C -0,2 C 8,0 km/h (2 Bft) 97,14 %
13.03.2017 01:36 -0,2 C 84 % 1020,4 hPa 0,0 l/m 5,3 km/h (1 Bft) O-NO 76 0 min 0,000 mm 0,0 UV-I 0 W/m -2,6 C -0,2 C 8,0 km/h (2 Bft) 100,00 %
13.03.2017 01:38 -0,2 C 84 % 1020,4 hPa 0,0 l/m 5,2 km/h (1 Bft) O-NO 71 0 min 0,000 mm 0,0 UV-I 0 W/m -2,6 C -0,2 C 8,0 km/h (2 Bft) 98,00 %
13.03.2017 01:40 -0,2 C 84 % 1020,4 hPa 0,0 l/m 3,9 km/h (1 Bft) O-NO 71 0 min 0,000 mm 0,0 UV-I 0 W/m -2,6 C -0,2 C 6,4 km/h (2 Bft) 97,73 %
13.03.2017 01:42 -0,2 C 84 % 1020,4 hPa 0,0 l/m 2,7 km/h (1 Bft) O-NO 71 0 min 0,000 mm 0,0 UV-I 0 W/m -2,6 C -0,2 C 4,8 km/h (1 Bft) 98,11 %
13.03.2017 01:44 -0,3 C 84 % 1020,4 hPa 0,0 l/m 3,1 km/h (1 Bft) O-NO 71 0 min 0,000 mm 0,0 UV-I 0 W/m -2,7 C -0,3 C 4,8 km/h (1 Bft) 98,00 %
13.03.2017 01:46 -0,3 C 84 % 1020,4 hPa 0,0 l/m 2,3 km/h (1 Bft) O-NO 71 0 min 0,000 mm 0,0 UV-I 0 W/m -2,7 C -0,3 C 4,8 km/h (1 Bft) 100,00 %
13.03.2017 01:48 -0,3 C 84 % 1020,4 hPa 0,0 l/m 4,4 km/h (1 Bft) O-NO 71 0 min 0,000 mm 0,0 UV-I 0 W/m -2,7 C -0,3 C 6,4 km/h (2 Bft) 98,00 %
13.03.2017 01:50 -0,3 C 84 % 1020,5 hPa 0,0 l/m 4,8 km/h (1 Bft) O-NO 71 0 min 0,000 mm 0,0 UV-I 0 W/m -2,7 C -0,3 C 6,4 km/h (2 Bft) 97,87 %
13.03.2017 01:52 -0,3 C 84 % 1020,4 hPa 0,0 l/m 4,7 km/h (1 Bft) O-NO 69 0 min 0,000 mm 0,0 UV-I 0 W/m -2,7 C -0,3 C 6,4 km/h (2 Bft) 100,00 %
13.03.2017 01:54 -0,3 C 84 % 1020,3 hPa 0,0 l/m 4,3 km/h (1 Bft) O-NO 59 0 min 0,000 mm 0,0 UV-I 0 W/m -2,7 C -0,3 C 6,4 km/h (2 Bft) 100,00 %
13.03.2017 01:56 -0,3 C 84 % 1020,4 hPa 0,0 l/m 3,6 km/h (1 Bft) NO 55 0 min 0,000 mm 0,0 UV-I 0 W/m -2,7 C -0,3 C 6,4 km/h (2 Bft) 100,00 %
13.03.2017 01:58 -0,3 C 84 % 1020,4 hPa 0,0 l/m 4,0 km/h (1 Bft) O-NO 57 0 min 0,000 mm 0,0 UV-I 0 W/m -2,7 C -0,3 C 4,8 km/h (1 Bft) 100,00 %
13.03.2017 02:00 -0,3 C 85 % 1020,3 hPa 0,0 l/m 2,5 km/h (1 Bft) O-NO 57 0 min 0,000 mm 0,0 UV-I 0 W/m -2,5 C -0,3 C 4,8 km/h (1 Bft) 98,00 %
13.03.2017 02:02 -0,4 C 85 % 1020,3 hPa 0,0 l/m 1,3 km/h (1 Bft) O-NO 57 0 min 0,000 mm 0,0 UV-I 0 W/m -2,6 C -0,4 C 4,8 km/h (1 Bft) 97,14 %
13.03.2017 02:04 -0,4 C 85 % 1020,3 hPa 0,0 l/m 3,0 km/h (1 Bft) O-NO 57 0 min 0,000 mm 0,0 UV-I 0 W/m -2,6 C -0,4 C 4,8 km/h (1 Bft) 100,00 %
13.03.2017 02:06 -0,5 C 85 % 1020,3 hPa 0,0 l/m 2,0 km/h (1 Bft) O-NO 57 0 min 0,000 mm 0,0 UV-I 0 W/m -2,7 C -0,5 C 4,8 km/h (1 Bft) 98,11 %
13.03.2017 02:08 -0,6 C 85 % 1020,3 hPa 0,0 l/m 2,0 km/h (1 Bft) O-NO 57 0 min 0,000 mm 0,0 UV-I 0 W/m -2,8 C -0,6 C 3,2 km/h (1 Bft) 100,00 %
13.03.2017 02:10 -0,6 C 86 % 1020,3 hPa 0,0 l/m 0,6 km/h (0 Bft) O-NO 57 0 min 0,000 mm 0,0 UV-I 0 W/m -2,6 C -0,6 C 1,6 km/h (1 Bft) 98,11 %
13.03.2017 02:12 -0,7 C 86 % 1020,3 hPa 0,0 l/m 0,3 km/h (0 Bft) O-NO 57 0 min 0,000 mm 0,0 UV-I 0 W/m -2,7 C -0,7 C 1,6 km/h (1 Bft) 97,87 %
13.03.2017 02:14 -0,8 C 86 % 1020,4 hPa 0,0 l/m 0,2 km/h (0 Bft) O-NO 57 0 min 0,000 mm 0,0 UV-I 0 W/m -2,8 C -0,8 C 1,6 km/h (1 Bft) 98,00 %
13.03.2017 02:16 -0,8 C 86 % 1020,3 hPa 0,0 l/m 0,0 km/h (0 Bft) O-NO 57 0 min 0,000 mm 0,0 UV-I 0 W/m -2,8 C -0,8 C 0,0 km/h (0 Bft) 100,00 %
13.03.2017 02:18 -0,9 C 86 % 1020,4 hPa 0,0 l/m 0,0 km/h (0 Bft) O-NO 57 0 min 0,000 mm 0,0 UV-I 0 W/m -2,9 C -0,9 C 0,0 km/h (0 Bft) 93,62 %
13.03.2017 02:20 -0,9 C 87 % 1020,4 hPa 0,0 l/m 0,0 km/h (0 Bft) O-NO 57 0 min 0,000 mm 0,0 UV-I 0 W/m -2,8 C -0,9 C 0,0 km/h (0 Bft) 100,00 %
13.03.2017 02:22 -0,9 C 87 % 1020,4 hPa 0,0 l/m 0,0 km/h (0 Bft) O-NO 57 0 min 0,000 mm 0,0 UV-I 0 W/m -2,8 C -0,9 C 0,0 km/h (0 Bft) 96,00 %
13.03.2017 02:24 -1,0 C 87 % 1020,4 hPa 0,0 l/m 0,0 km/h (0 Bft) O-NO 57 0 min 0,000 mm 0,0 UV-I 0 W/m -2,9 C -1,0 C 0,0 km/h (0 Bft) 97,87 %
13.03.2017 02:26 -0,9 C 87 % 1020,5 hPa 0,0 l/m 0,0 km/h (0 Bft) O-NO 57 0 min 0,000 mm 0,0 UV-I 0 W/m -2,8 C -0,9 C 0,0 km/h (0 Bft) 97,22 %
13.03.2017 02:28 -0,9 C 87 % 1020,5 hPa 0,0 l/m 0,0 km/h (0 Bft) O-NO 57 0 min 0,000 mm 0,0 UV-I 0 W/m -2,8 C -0,9 C 0,0 km/h (0 Bft) 98,11 %
13.03.2017 02:30 -0,9 C 87 % 1020,5 hPa 0,0 l/m 0,0 km/h (0 Bft) O-NO 57 0 min 0,000 mm 0,0 UV-I 0 W/m -2,8 C -0,9 C 0,0 km/h (0 Bft) 96,00 %
13.03.2017 02:32 -0,9 C 87 % 1020,5 hPa 0,0 l/m 0,0 km/h (0 Bft) O-NO 57 0 min 0,000 mm 0,0 UV-I 0 W/m -2,8 C -0,9 C 0,0 km/h (0 Bft) 97,14 %
13.03.2017 02:34 -0,9 C 87 % 1020,5 hPa 0,0 l/m 0,0 km/h (0 Bft) O-NO 57 0 min 0,000 mm 0,0 UV-I 0 W/m -2,8 C -0,9 C 0,0 km/h (0 Bft) 96,77 %
13.03.2017 02:36 -0,9 C 87 % 1020,5 hPa 0,0 l/m 0,0 km/h (0 Bft) O-NO 57 0 min 0,000 mm 0,0 UV-I 0 W/m -2,8 C -0,9 C 0,0 km/h (0 Bft) 97,37 %
13.03.2017 02:38 -1,0 C 87 % 1020,5 hPa 0,0 l/m 0,0 km/h (0 Bft) O-NO 57 0 min 0,000 mm 0,0 UV-I 0 W/m -2,9 C -1,0 C 0,0 km/h (0 Bft) 94,34 %
13.03.2017 02:40 -1,1 C 87 % 1020,5 hPa 0,0 l/m 0,0 km/h (0 Bft) O-NO 57 0 min 0,000 mm 0,0 UV-I 0 W/m -3,0 C -1,1 C 0,0 km/h (0 Bft) 95,74 %
13.03.2017 02:42 -1,1 C 88 % 1020,5 hPa 0,0 l/m 0,0 km/h (0 Bft) O-NO 57 0 min 0,000 mm 0,0 UV-I 0 W/m -2,8 C -1,1 C 0,0 km/h (0 Bft) 97,87 %
13.03.2017 02:44 -1,1 C 88 % 1020,6 hPa 0,0 l/m 0,0 km/h (0 Bft) O-NO 57 0 min 0,000 mm 0,0 UV-I 0 W/m -2,8 C -1,1 C 0,0 km/h (0 Bft) 95,12 %
13.03.2017 02:46 -1,1 C 88 % 1020,6 hPa 0,0 l/m 0,0 km/h (0 Bft) O-NO 57 0 min 0,000 mm 0,0 UV-I 0 W/m -2,8 C -1,1 C 0,0 km/h (0 Bft) 94,64 %
13.03.2017 02:48 -1,2 C 87 % 1020,6 hPa 0,0 l/m 0,0 km/h (0 Bft) O-NO 57 0 min 0,000 mm 0,0 UV-I 0 W/m -3,1 C -1,2 C 1,6 km/h (1 Bft) 94,29 %
13.03.2017 02:50 -1,2 C 88 % 1020,5 hPa 0,0 l/m 0,0 km/h (0 Bft) O-NO 57 0 min 0,000 mm 0,0 UV-I 0 W/m -2,9 C -1,2 C 0,0 km/h (0 Bft) 96,23 %
13.03.2017 02:52 -1,2 C 88 % 1020,6 hPa 0,0 l/m 0,0 km/h (0 Bft) O-NO 57 0 min 0,000 mm 0,0 UV-I 0 W/m -2,9 C -1,2 C 0,0 km/h (0 Bft) 98,00 %
13.03.2017 02:54 -1,2 C 88 % 1020,6 hPa 0,0 l/m 0,0 km/h (0 Bft) O-NO 57 0 min 0,000 mm 0,0 UV-I 0 W/m -2,9 C -1,2 C 0,0 km/h (0 Bft) 91,43 %
13.03.2017 02:56 -1,2 C 88 % 1020,6 hPa 0,0 l/m 0,0 km/h (0 Bft) O-NO 57 0 min 0,000 mm 0,0 UV-I 0 W/m -2,9 C -1,2 C 1,6 km/h (1 Bft) 98,00 %
13.03.2017 02:58 -1,2 C 88 % 1020,6 hPa 0,0 l/m 0,0 km/h (0 Bft) O-NO 57 0 min 0,000 mm 0,0 UV-I 0 W/m -2,9 C -1,2 C 0,0 km/h (0 Bft) 94,00 %
13.03.2017 03:00 -1,2 C 88 % 1020,6 hPa 0,0 l/m 0,0 km/h (0 Bft) O-NO 57 0 min 0,000 mm 0,0 UV-I 0 W/m -2,9 C -1,2 C 0,0 km/h (0 Bft) 97,73 %
13.03.2017 03:02 -1,2 C 88 % 1020,7 hPa 0,0 l/m 0,4 km/h (0 Bft) O-NO 57 0 min 0,000 mm 0,0 UV-I 0 W/m -2,9 C -1,2 C 3,2 km/h (1 Bft) 97,87 %
13.03.2017 03:04 -1,1 C 88 % 1020,7 hPa 0,0 l/m 1,2 km/h (1 Bft) O-NO 57 0 min 0,000 mm 0,0 UV-I 0 W/m -2,8 C -1,1 C 3,2 km/h (1 Bft) 98,21 %
13.03.2017 03:06 -1,2 C 88 % 1020,7 hPa 0,0 l/m 0,6 km/h (0 Bft) O-NO 57 0 min 0,000 mm 0,0 UV-I 0 W/m -2,9 C -1,2 C 1,6 km/h (1 Bft) 94,87 %
13.03.2017 03:08 -1,2 C 88 % 1020,7 hPa 0,0 l/m 0,0 km/h (0 Bft) O-NO 57 0 min 0,000 mm 0,0 UV-I 0 W/m -2,9 C -1,2 C 0,0 km/h (0 Bft) 98,08 %
13.03.2017 03:10 -1,2 C 88 % 1020,8 hPa 0,0 l/m 0,0 km/h (0 Bft) O-NO 57 0 min 0,000 mm 0,0 UV-I 0 W/m -2,9 C -1,2 C 0,0 km/h (0 Bft) 96,00 %
13.03.2017 03:12 -1,2 C 88 % 1020,8 hPa 0,0 l/m 1,6 km/h (1 Bft) O-NO 57 0 min 0,000 mm 0,0 UV-I 0 W/m -2,9 C -1,2 C 3,2 km/h (1 Bft) 97,62 %
13.03.2017 03:14 -1,2 C 89 % 1020,8 hPa 0,0 l/m 0,0 km/h (0 Bft) O-NO 57 0 min 0,000 mm 0,0 UV-I 0 W/m -2,8 C -1,2 C 0,0 km/h (0 Bft) 100,00 %
13.03.2017 03:16 -1,2 C 88 % 1020,8 hPa 0,0 l/m 1,5 km/h (1 Bft) O-NO 57 0 min 0,000 mm 0,0 UV-I 0 W/m -2,9 C -1,2 C 3,2 km/h (1 Bft) 98,00 %
13.03.2017 03:18 -1,2 C 89 % 1020,8 hPa 0,0 l/m 0,0 km/h (0 Bft) O-NO 57 0 min 0,000 mm 0,0 UV-I 0 W/m -2,8 C -1,2 C 0,0 km/h (0 Bft) 100,00 %
13.03.2017 03:20 -1,2 C 89 % 1020,8 hPa 0,0 l/m 0,2 km/h (0 Bft) O-NO 57 0 min 0,000 mm 0,0 UV-I 0 W/m -2,8 C -1,2 C 1,6 km/h (1 Bft) 98,00 %
13.03.2017 03:22 -1,2 C 89 % 1020,8 hPa 0,0 l/m 0,1 km/h (0 Bft) O-NO 57 0 min 0,000 mm 0,0 UV-I 0 W/m -2,8 C -1,2 C 1,6 km/h (1 Bft) 100,00 %
13.03.2017 03:24 -1,3 C 89 % 1020,8 hPa 0,0 l/m 0,6 km/h (0 Bft) O-NO 57 0 min 0,000 mm 0,0 UV-I 0 W/m -2,9 C -1,3 C 1,6 km/h (1 Bft) 94,00 %
13.03.2017 03:26 -1,2 C 89 % 1020,8 hPa 0,0 l/m 2,0 km/h (1 Bft) O-NO 57 0 min 0,000 mm 0,0 UV-I 0 W/m -2,8 C -1,2 C 4,8 km/h (1 Bft) 95,74 %
13.03.2017 03:28 -1,2 C 89 % 1020,9 hPa 0,0 l/m 2,6 km/h (1 Bft) O-NO 57 0 min 0,000 mm 0,0 UV-I 0 W/m -2,8 C -1,2 C 3,2 km/h (1 Bft) 96,23 %
13.03.2017 03:30 -1,2 C 89 % 1020,9 hPa 0,0 l/m 1,8 km/h (1 Bft) O-NO 57 0 min 0,000 mm 0,0 UV-I 0 W/m -2,8 C -1,2 C 3,2 km/h (1 Bft) 95,12 %
13.03.2017 03:32 -1,1 C 89 % 1020,9 hPa 0,0 l/m 1,3 km/h (1 Bft) O-NO 57 0 min 0,000 mm 0,0 UV-I 0 W/m -2,7 C -1,1 C 3,2 km/h (1 Bft) 98,00 %
13.03.2017 03:34 -1,0 C 89 % 1020,9 hPa 0,0 l/m 1,8 km/h (1 Bft) O-NO 57 0 min 0,000 mm 0,0 UV-I 0 W/m -2,6 C -1,0 C 3,2 km/h (1 Bft) 95,74 %
13.03.2017 03:36 -0,9 C 89 % 1021,0 hPa 0,0 l/m 3,3 km/h (1 Bft) O-NO 57 0 min 0,000 mm 0,0 UV-I 0 W/m -2,5 C -0,9 C 4,8 km/h (1 Bft) 96,00 %
13.03.2017 03:38 -0,9 C 89 % 1021,0 hPa 0,0 l/m 4,2 km/h (1 Bft) O-NO 69 0 min 0,000 mm 0,0 UV-I 0 W/m -2,5 C -0,9 C 6,4 km/h (2 Bft) 95,74 %
13.03.2017 03:40 -0,9 C 88 % 1021,1 hPa 0,0 l/m 4,0 km/h (1 Bft) O-NO 69 0 min 0,000 mm 0,0 UV-I 0 W/m -2,6 C -0,9 C 6,4 km/h (2 Bft) 94,74 %
13.03.2017 03:42 -0,8 C 88 % 1021,1 hPa 0,0 l/m 5,2 km/h (1 Bft) O-NO 69 0 min 0,000 mm 0,0 UV-I 0 W/m -2,5 C -0,8 C 6,4 km/h (2 Bft) 97,73 %
13.03.2017 03:44 -0,8 C 88 % 1021,1 hPa 0,0 l/m 5,1 km/h (1 Bft) O-NO 76 0 min 0,000 mm 0,0 UV-I 0 W/m -2,5 C -0,8 C 6,4 km/h (2 Bft) 94,64 %
13.03.2017 03:46 -0,7 C 88 % 1021,1 hPa 0,0 l/m 5,1 km/h (1 Bft) O 80 0 min 0,000 mm 0,0 UV-I 0 W/m -2,4 C -0,7 C 6,4 km/h (2 Bft) 98,00 %
13.03.2017 03:48 -0,7 C 88 % 1021,1 hPa 0,0 l/m 4,1 km/h (1 Bft) O 80 0 min 0,000 mm 0,0 UV-I 0 W/m -2,4 C -0,7 C 4,8 km/h (1 Bft) 92,31 %
13.03.2017 03:50 -0,7 C 88 % 1021,1 hPa 0,0 l/m 4,1 km/h (1 Bft) O 80 0 min 0,000 mm 0,0 UV-I 0 W/m -2,4 C -0,7 C 6,4 km/h (2 Bft) 92,00 %
13.03.2017 03:52 -0,7 C 88 % 1021,1 hPa 0,0 l/m 3,5 km/h (1 Bft) O 80 0 min 0,000 mm 0,0 UV-I 0 W/m -2,4 C -0,7 C 4,8 km/h (1 Bft) 97,87 %
13.03.2017 03:54 -0,7 C 88 % 1021,1 hPa 0,0 l/m 3,9 km/h (1 Bft) O 80 0 min 0,000 mm 0,0 UV-I 0 W/m -2,4 C -0,7 C 4,8 km/h (1 Bft) 96,23 %
13.03.2017 03:56 -0,7 C 87 % 1021,2 hPa 0,0 l/m 2,8 km/h (1 Bft) O 80 0 min 0,000 mm 0,0 UV-I 0 W/m -2,6 C -0,7 C 4,8 km/h (1 Bft) 97,56 %
13.03.2017 03:58 -0,8 C 87 % 1021,3 hPa 0,0 l/m 1,1 km/h (1 Bft) O 80 0 min 0,000 mm 0,0 UV-I 0 W/m -2,7 C -0,8 C 3,2 km/h (1 Bft) 97,14 %
13.03.2017 04:00 -0,9 C 88 % 1021,3 hPa 0,0 l/m 0,1 km/h (0 Bft) O 80 0 min 0,000 mm 0,0 UV-I 0 W/m -2,6 C -0,9 C 1,6 km/h (1 Bft) 98,31 %
13.03.2017 04:04 -1,2 C 89 % 1021,3 hPa 0,0 l/m 2,4 km/h (1 Bft) O 80 0 min 0,000 mm 0,0 UV-I 0 W/m -2,8 C -1,2 C 4,8 km/h (1 Bft) 92,31 %
13.03.2017 04:06 -1,3 C 89 % 1021,3 hPa 0,0 l/m 2,8 km/h (1 Bft) O 80 0 min 0,000 mm 0,0 UV-I 0 W/m -2,9 C -1,3 C 3,2 km/h (1 Bft) 96,00 %
13.03.2017 04:08 -1,4 C 89 % 1021,3 hPa 0,0 l/m 3,3 km/h (1 Bft) O 80 0 min 0,000 mm 0,0 UV-I 0 W/m -3,0 C -1,4 C 4,8 km/h (1 Bft) 94,00 %
13.03.2017 04:10 -1,5 C 90 % 1021,3 hPa 0,0 l/m 3,6 km/h (1 Bft) O 80 0 min 0,000 mm 0,0 UV-I 0 W/m -2,9 C -1,5 C 4,8 km/h (1 Bft) 95,74 %
13.03.2017 04:12 -1,6 C 90 % 1021,3 hPa 0,0 l/m 3,3 km/h (1 Bft) O 80 0 min 0,000 mm 0,0 UV-I 0 W/m -3,0 C -1,6 C 4,8 km/h (1 Bft) 97,14 %
13.03.2017 04:14 -1,7 C 90 % 1021,3 hPa 0,0 l/m 3,9 km/h (1 Bft) O 80 0 min 0,000 mm 0,0 UV-I 0 W/m -3,1 C -1,7 C 8,0 km/h (2 Bft) 96,23 %
13.03.2017 04:16 -1,7 C 91 % 1021,4 hPa 0,0 l/m 3,5 km/h (1 Bft) O 80 0 min 0,000 mm 0,0 UV-I 0 W/m -3,0 C -1,7 C 4,8 km/h (1 Bft) 95,74 %
13.03.2017 04:18 -1,6 C 91 % 1021,4 hPa 0,0 l/m 2,2 km/h (1 Bft) O 80 0 min 0,000 mm 0,0 UV-I 0 W/m -2,9 C -1,6 C 4,8 km/h (1 Bft) 97,37 %
13.03.2017 04:20 -1,5 C 91 % 1021,4 hPa 0,0 l/m 2,4 km/h (1 Bft) O 80 0 min 0,000 mm 0,0 UV-I 0 W/m -2,8 C -1,5 C 3,2 km/h (1 Bft) 94,87 %
13.03.2017 04:22 -1,3 C 91 % 1021,5 hPa 0,0 l/m 1,9 km/h (1 Bft) O 80 0 min 0,000 mm 0,0 UV-I 0 W/m -2,6 C -1,3 C 3,2 km/h (1 Bft) 98,36 %
13.03.2017 04:24 -1,1 C 91 % 1021,5 hPa 0,0 l/m 1,7 km/h (1 Bft) O 80 0 min 0,000 mm 0,0 UV-I 0 W/m -2,4 C -1,1 C 3,2 km/h (1 Bft) 97,87 %
13.03.2017 04:26 -1,1 C 89 % 1021,5 hPa 0,0 l/m 1,4 km/h (1 Bft) O 80 0 min 0,000 mm 0,0 UV-I 0 W/m -2,7 C -1,1 C 3,2 km/h (1 Bft) 92,00 %
13.03.2017 04:28 -1,3 C 89 % 1021,5 hPa 0,0 l/m 1,4 km/h (1 Bft) O 80 0 min 0,000 mm 0,0 UV-I 0 W/m -2,9 C -1,3 C 3,2 km/h (1 Bft) 93,62 %
13.03.2017 04:30 -1,3 C 89 % 1021,5 hPa 0,0 l/m 2,0 km/h (1 Bft) O 80 0 min 0,000 mm 0,0 UV-I 0 W/m -2,9 C -1,3 C 3,2 km/h (1 Bft) 98,00 %
13.03.2017 04:32 -1,5 C 90 % 1021,5 hPa 0,0 l/m 2,4 km/h (1 Bft) O 80 0 min 0,000 mm 0,0 UV-I 0 W/m -2,9 C -1,5 C 3,2 km/h (1 Bft) 100,00 %
13.03.2017 04:34 -1,6 C 90 % 1021,5 hPa 0,0 l/m 2,3 km/h (1 Bft) O 80 0 min 0,000 mm 0,0 UV-I 0 W/m -3,0 C -1,6 C 3,2 km/h (1 Bft) 95,38 %
13.03.2017 04:36 -1,6 C 90 % 1021,6 hPa 0,0 l/m 2,7 km/h (1 Bft) O 80 0 min 0,000 mm 0,0 UV-I 0 W/m -3,0 C -1,6 C 3,2 km/h (1 Bft) 95,74 %
13.03.2017 04:38 -1,6 C 90 % 1021,6 hPa 0,0 l/m 2,3 km/h (1 Bft) O 80 0 min 0,000 mm 0,0 UV-I 0 W/m -3,0 C -1,6 C 3,2 km/h (1 Bft) 100,00 %
13.03.2017 04:40 -1,5 C 91 % 1021,6 hPa 0,0 l/m 2,0 km/h (1 Bft) O 80 0 min 0,000 mm 0,0 UV-I 0 W/m -2,8 C -1,5 C 3,2 km/h (1 Bft) 100,00 %
13.03.2017 04:42 -1,4 C 90 % 1021,6 hPa 0,0 l/m 2,0 km/h (1 Bft) O 80 0 min 0,000 mm 0,0 UV-I 0 W/m -2,8 C -1,4 C 3,2 km/h (1 Bft) 97,56 %
13.03.2017 04:44 -1,4 C 90 % 1021,6 hPa 0,0 l/m 2,3 km/h (1 Bft) O 80 0 min 0,000 mm 0,0 UV-I 0 W/m -2,8 C -1,4 C 3,2 km/h (1 Bft) 98,00 %
13.03.2017 04:46 -1,4 C 91 % 1021,6 hPa 0,0 l/m 3,0 km/h (1 Bft) O 80 0 min 0,000 mm 0,0 UV-I 0 W/m -2,7 C -1,4 C 3,2 km/h (1 Bft) 98,11 %
13.03.2017 04:48 -1,3 C 90 % 1021,6 hPa 0,0 l/m 2,4 km/h (1 Bft) O 80 0 min 0,000 mm 0,0 UV-I 0 W/m -2,7 C -1,3 C 3,2 km/h (1 Bft) 97,37 %
13.03.2017 04:50 -1,3 C 90 % 1021,7 hPa 0,0 l/m 3,0 km/h (1 Bft) O 80 0 min 0,000 mm 0,0 UV-I 0 W/m -2,7 C -1,3 C 3,2 km/h (1 Bft) 97,87 %
13.03.2017 04:52 -1,3 C 90 % 1021,7 hPa 0,0 l/m 2,3 km/h (1 Bft) O 80 0 min 0,000 mm 0,0 UV-I 0 W/m -2,7 C -1,3 C 3,2 km/h (1 Bft) 98,11 %
13.03.2017 04:54 -1,2 C 90 % 1021,6 hPa 0,0 l/m 2,7 km/h (1 Bft) O 80 0 min 0,000 mm 0,0 UV-I 0 W/m -2,6 C -1,2 C 3,2 km/h (1 Bft) 100,00 %
13.03.2017 04:56 -1,3 C 90 % 1021,7 hPa 0,0 l/m 3,4 km/h (1 Bft) O 80 0 min 0,000 mm 0,0 UV-I 0 W/m -2,7 C -1,3 C 4,8 km/h (1 Bft) 97,56 %
13.03.2017 04:58 -1,2 C 90 % 1021,6 hPa 0,0 l/m 3,4 km/h (1 Bft) O 80 0 min 0,000 mm 0,0 UV-I 0 W/m -2,6 C -1,2 C 4,8 km/h (1 Bft) 95,74 %
13.03.2017 05:00 -1,1 C 90 % 1021,7 hPa 0,0 l/m 2,5 km/h (1 Bft) O 80 0 min 0,000 mm 0,0 UV-I 0 W/m -2,5 C -1,1 C 4,8 km/h (1 Bft) 97,96 %
13.03.2017 05:02 -0,9 C 90 % 1021,8 hPa 0,0 l/m 1,6 km/h (1 Bft) O 80 0 min 0,000 mm 0,0 UV-I 0 W/m -2,3 C -0,9 C 3,2 km/h (1 Bft) 96,00 %
13.03.2017 05:04 -0,9 C 89 % 1021,8 hPa 0,0 l/m 0,9 km/h (0 Bft) O 80 0 min 0,000 mm 0,0 UV-I 0 W/m -2,5 C -0,9 C 1,6 km/h (1 Bft) 95,12 %
13.03.2017 05:06 -0,9 C 89 % 1021,9 hPa 0,0 l/m 0,0 km/h (0 Bft) O 80 0 min 0,000 mm 0,0 UV-I 0 W/m -2,5 C -0,9 C 0,0 km/h (0 Bft) 95,74 %
13.03.2017 05:08 -0,9 C 89 % 1021,9 hPa 0,0 l/m 1,0 km/h (0 Bft) O 80 0 min 0,000 mm 0,0 UV-I 0 W/m -2,5 C -0,9 C 1,6 km/h (1 Bft) 98,00 %
13.03.2017 05:10 -1,0 C 89 % 1021,9 hPa 0,0 l/m 0,3 km/h (0 Bft) O 80 0 min 0,000 mm 0,0 UV-I 0 W/m -2,6 C -1,0 C 1,6 km/h (1 Bft) 93,33 %
13.03.2017 05:12 -1,2 C 89 % 1021,9 hPa 0,0 l/m 0,6 km/h (0 Bft) O 80 0 min 0,000 mm 0,0 UV-I 0 W/m -2,8 C -1,2 C 1,6 km/h (1 Bft) 97,87 %
13.03.2017 05:14 -1,2 C 89 % 1021,9 hPa 0,0 l/m 1,3 km/h (1 Bft) O 80 0 min 0,000 mm 0,0 UV-I 0 W/m -2,8 C -1,2 C 3,2 km/h (1 Bft) 91,49 %
13.03.2017 05:16 -1,3 C 89 % 1021,9 hPa 0,0 l/m 2,2 km/h (1 Bft) O 80 0 min 0,000 mm 0,0 UV-I 0 W/m -2,9 C -1,3 C 3,2 km/h (1 Bft) 98,00 %
13.03.2017 05:18 -1,3 C 89 % 1021,9 hPa 0,0 l/m 3,0 km/h (1 Bft) O 80 0 min 0,000 mm 0,0 UV-I 0 W/m -2,9 C -1,3 C 3,2 km/h (1 Bft) 96,00 %
13.03.2017 05:20 -1,2 C 90 % 1021,9 hPa 0,0 l/m 3,3 km/h (1 Bft) O 80 0 min 0,000 mm 0,0 UV-I 0 W/m -2,6 C -1,2 C 4,8 km/h (1 Bft) 92,11 %
13.03.2017 05:22 -1,2 C 90 % 1021,9 hPa 0,0 l/m 3,3 km/h (1 Bft) O 80 0 min 0,000 mm 0,0 UV-I 0 W/m -2,6 C -1,2 C 4,8 km/h (1 Bft) 98,00 %
13.03.2017 05:24 -1,1 C 89 % 1022,0 hPa 0,0 l/m 3,2 km/h (1 Bft) O 80 0 min 0,000 mm 0,0 UV-I 0 W/m -2,7 C -1,1 C 4,8 km/h (1 Bft) 96,23 %
13.03.2017 05:26 -1,1 C 89 % 1022,0 hPa 0,0 l/m 2,8 km/h (1 Bft) O 80 0 min 0,000 mm 0,0 UV-I 0 W/m -2,7 C -1,1 C 3,2 km/h (1 Bft) 97,37 %
13.03.2017 05:28 -1,0 C 89 % 1022,0 hPa 0,0 l/m 1,5 km/h (1 Bft) O 80 0 min 0,000 mm 0,0 UV-I 0 W/m -2,6 C -1,0 C 3,2 km/h (1 Bft) 97,87 %
13.03.2017 05:30 -1,1 C 89 % 1022,0 hPa 0,0 l/m 0,0 km/h (0 Bft) O 80 0 min 0,000 mm 0,0 UV-I 0 W/m -2,7 C -1,1 C 0,0 km/h (0 Bft) 97,87 %
13.03.2017 05:32 -1,1 C 89 % 1022,1 hPa 0,0 l/m 0,0 km/h (0 Bft) O 80 0 min 0,000 mm 0,0 UV-I 0 W/m -2,7 C -1,1 C 0,0 km/h (0 Bft) 95,74 %
13.03.2017 05:34 -1,1 C 89 % 1022,1 hPa 0,0 l/m 0,0 km/h (0 Bft) O 80 0 min 0,000 mm 0,0 UV-I 0 W/m -2,7 C -1,1 C 0,0 km/h (0 Bft) 97,87 %
13.03.2017 05:36 -1,0 C 90 % 1022,1 hPa 0,0 l/m 0,0 km/h (0 Bft) O 80 0 min 0,000 mm 0,0 UV-I 0 W/m -2,4 C -1,0 C 1,6 km/h (1 Bft) 96,23 %
13.03.2017 05:38 -0,9 C 90 % 1022,2 hPa 0,0 l/m 2,2 km/h (1 Bft) O 80 0 min 0,000 mm 0,0 UV-I 0 W/m -2,3 C -0,9 C 3,2 km/h (1 Bft) 97,37 %
13.03.2017 05:40 -0,9 C 89 % 1022,1 hPa 0,0 l/m 1,3 km/h (1 Bft) O 80 0 min 0,000 mm 0,0 UV-I 0 W/m -2,5 C -0,9 C 3,2 km/h (1 Bft) 98,11 %
13.03.2017 05:42 -1,1 C 89 % 1022,1 hPa 0,0 l/m 2,3 km/h (1 Bft) O 80 0 min 0,000 mm 0,0 UV-I 0 W/m -2,7 C -1,1 C 3,2 km/h (1 Bft) 95,12 %
13.03.2017 05:44 -1,1 C 89 % 1022,1 hPa 0,0 l/m 2,6 km/h (1 Bft) O 80 0 min 0,000 mm 0,0 UV-I 0 W/m -2,7 C -1,1 C 3,2 km/h (1 Bft) 100,00 %
13.03.2017 05:46 -1,1 C 90 % 1022,1 hPa 0,0 l/m 3,1 km/h (1 Bft) O 80 0 min 0,000 mm 0,0 UV-I 0 W/m -2,5 C -1,1 C 3,2 km/h (1 Bft) 98,11 %
13.03.2017 05:48 -1,0 C 89 % 1022,1 hPa 0,0 l/m 2,9 km/h (1 Bft) O 80 0 min 0,000 mm 0,0 UV-I 0 W/m -2,6 C -1,0 C 3,2 km/h (1 Bft) 100,00 %
13.03.2017 05:50 -0,9 C 89 % 1022,1 hPa 0,0 l/m 2,5 km/h (1 Bft) O 80 0 min 0,000 mm 0,0 UV-I 0 W/m -2,5 C -0,9 C 3,2 km/h (1 Bft) 98,11 %
13.03.2017 05:52 -0,9 C 89 % 1022,2 hPa 0,0 l/m 2,6 km/h (1 Bft) O 80 0 min 0,000 mm 0,0 UV-I 0 W/m -2,5 C -0,9 C 3,2 km/h (1 Bft) 95,24 %
13.03.2017 05:54 -0,9 C 89 % 1022,2 hPa 0,0 l/m 2,5 km/h (1 Bft) O 80 0 min 0,000 mm 0,0 UV-I 0 W/m -2,5 C -0,9 C 3,2 km/h (1 Bft) 100,00 %
13.03.2017 05:56 -0,8 C 89 % 1022,1 hPa 0,0 l/m 2,2 km/h (1 Bft) O 80 0 min 0,000 mm 0,0 UV-I 0 W/m -2,4 C -0,8 C 3,2 km/h (1 Bft) 97,73 %
13.03.2017 05:58 -0,9 C 89 % 1022,1 hPa 0,0 l/m 2,6 km/h (1 Bft) O 80 0 min 0,000 mm 0,0 UV-I 0 W/m -2,5 C -0,9 C 4,8 km/h (1 Bft) 100,00 %
13.03.2017 06:00 -0,9 C 89 % 1022,1 hPa 0,0 l/m 3,2 km/h (1 Bft) O 80 0 min 0,000 mm 0,0 UV-I 0 W/m -2,5 C -0,9 C 4,8 km/h (1 Bft) 100,00 %
13.03.2017 06:02 -1,1 C 89 % 1022,2 hPa 0,0 l/m 3,7 km/h (1 Bft) O 80 0 min 0,000 mm 0,0 UV-I 0 W/m -2,7 C -1,1 C 4,8 km/h (1 Bft) 96,23 %
13.03.2017 06:04 -1,2 C 89 % 1022,2 hPa 0,0 l/m 3,1 km/h (1 Bft) O 80 0 min 0,000 mm 0,0 UV-I 0 W/m -2,8 C -1,2 C 4,8 km/h (1 Bft) 100,00 %
13.03.2017 06:06 -1,2 C 89 % 1022,2 hPa 0,0 l/m 3,0 km/h (1 Bft) O 80 0 min 0,000 mm 0,0 UV-I 0 W/m -2,8 C -1,2 C 4,8 km/h (1 Bft) 100,00 %
13.03.2017 06:08 -1,2 C 89 % 1022,3 hPa 0,0 l/m 2,0 km/h (1 Bft) O 80 0 min 0,000 mm 0,0 UV-I 0 W/m -2,8 C -1,2 C 3,2 km/h (1 Bft) 100,00 %
13.03.2017 06:10 -1,2 C 89 % 1022,3 hPa 0,0 l/m 2,6 km/h (1 Bft) O 80 0 min 0,000 mm 0,0 UV-I 5 W/m -2,8 C -1,2 C 3,2 km/h (1 Bft) 97,87 %
13.03.2017 06:12 -1,3 C 89 % 1022,3 hPa 0,0 l/m 2,7 km/h (1 Bft) O 80 0 min 0,000 mm 0,0 UV-I 5 W/m -2,9 C -1,3 C 3,2 km/h (1 Bft) 98,00 %
13.03.2017 06:14 -1,3 C 90 % 1022,5 hPa 0,0 l/m 2,4 km/h (1 Bft) O 80 0 min 0,000 mm 0,0 UV-I 5 W/m -2,7 C -1,3 C 3,2 km/h (1 Bft) 92,00 %
13.03.2017 06:16 -1,2 C 90 % 1022,5 hPa 0,0 l/m 1,2 km/h (1 Bft) O 80 0 min 0,000 mm 0,0 UV-I 5 W/m -2,6 C -1,2 C 3,2 km/h (1 Bft) 95,74 %
13.03.2017 06:18 -1,2 C 90 % 1022,5 hPa 0,0 l/m 1,9 km/h (1 Bft) O 80 0 min 0,000 mm 0,0 UV-I 7 W/m -2,6 C -1,2 C 3,2 km/h (1 Bft) 97,37 %
13.03.2017 06:20 -1,2 C 90 % 1022,5 hPa 0,0 l/m 2,1 km/h (1 Bft) O 80 0 min 0,000 mm 0,0 UV-I 7 W/m -2,6 C -1,2 C 3,2 km/h (1 Bft) 98,11 %
13.03.2017 06:22 -1,2 C 89 % 1022,6 hPa 0,0 l/m 1,9 km/h (1 Bft) O 80 0 min 0,000 mm 0,0 UV-I 8 W/m -2,8 C -1,2 C 3,2 km/h (1 Bft) 97,87 %
13.03.2017 06:24 -1,3 C 89 % 1022,6 hPa 0,0 l/m 0,4 km/h (0 Bft) O 80 0 min 0,000 mm 0,0 UV-I 9 W/m -2,9 C -1,3 C 1,6 km/h (1 Bft) 95,12 %
13.03.2017 06:26 -1,4 C 90 % 1022,6 hPa 0,0 l/m 0,0 km/h (0 Bft) O 80 0 min 0,000 mm 0,0 UV-I 11 W/m -2,8 C -1,4 C 0,0 km/h (0 Bft) 100,00 %
13.03.2017 06:28 -1,6 C 90 % 1022,7 hPa 0,0 l/m 0,6 km/h (0 Bft) O 80 0 min 0,000 mm 0,0 UV-I 11 W/m -3,0 C -1,6 C 3,2 km/h (1 Bft) 98,00 %
13.03.2017 06:30 -1,7 C 90 % 1022,7 hPa 0,0 l/m 2,0 km/h (1 Bft) O 80 0 min 0,000 mm 0,0 UV-I 12 W/m -3,1 C -1,7 C 3,2 km/h (1 Bft) 100,00 %
13.03.2017 06:32 -1,8 C 90 % 1022,8 hPa 0,0 l/m 2,5 km/h (1 Bft) O 80 2 min 0,000 mm 0,0 UV-I 14 W/m -3,2 C -1,8 C 3,2 km/h (1 Bft) 98,28 %
13.03.2017 06:34 -2,0 C 91 % 1022,8 hPa 0,0 l/m 3,0 km/h (1 Bft) O 80 2 min 0,000 mm 0,0 UV-I 16 W/m -3,3 C -2,0 C 3,2 km/h (1 Bft) 100,00 %
13.03.2017 06:36 -2,0 C 91 % 1022,9 hPa 0,0 l/m 2,9 km/h (1 Bft) O 80 2 min 0,000 mm 0,0 UV-I 18 W/m -3,3 C -2,0 C 3,2 km/h (1 Bft) 94,34 %
13.03.2017 06:38 -2,0 C 92 % 1022,9 hPa 0,0 l/m 2,8 km/h (1 Bft) O 80 2 min 0,000 mm 0,0 UV-I 21 W/m -3,1 C -2,0 C 4,8 km/h (1 Bft) 100,00 %
13.03.2017 06:40 -1,9 C 92 % 1023,0 hPa 0,0 l/m 3,1 km/h (1 Bft) O 84 2 min 0,000 mm 0,0 UV-I 24 W/m -3,0 C -1,9 C 4,8 km/h (1 Bft) 98,00 %
13.03.2017 06:42 -1,9 C 92 % 1023,0 hPa 0,0 l/m 3,1 km/h (1 Bft) O 84 2 min 0,000 mm 0,0 UV-I 27 W/m -3,0 C -1,9 C 4,8 km/h (1 Bft) 97,56 %
13.03.2017 06:44 -1,9 C 92 % 1023,0 hPa 0,0 l/m 3,2 km/h (1 Bft) O 84 2 min 0,000 mm 0,0 UV-I 30 W/m -3,0 C -1,9 C 3,2 km/h (1 Bft) 98,00 %
13.03.2017 06:46 -1,9 C 92 % 1023,1 hPa 0,0 l/m 2,5 km/h (1 Bft) O 84 2 min 0,000 mm 0,0 UV-I 33 W/m -3,0 C -1,9 C 4,8 km/h (1 Bft) 100,00 %
13.03.2017 06:48 -1,9 C 92 % 1023,0 hPa 0,0 l/m 1,9 km/h (1 Bft) O 84 2 min 0,000 mm 0,0 UV-I 37 W/m -3,0 C -1,9 C 4,8 km/h (1 Bft) 97,37 %
13.03.2017 06:50 -1,9 C 92 % 1023,0 hPa 0,0 l/m 1,0 km/h (0 Bft) O 84 2 min 0,000 mm 0,0 UV-I 40 W/m -3,0 C -1,9 C 4,8 km/h (1 Bft) 96,23 %
13.03.2017 06:52 -2,0 C 92 % 1023,0 hPa 0,0 l/m 1,9 km/h (1 Bft) O 84 2 min 0,000 mm 0,0 UV-I 43 W/m -3,1 C -2,0 C 4,8 km/h (1 Bft) 94,00 %
13.03.2017 06:54 -2,0 C 92 % 1023,0 hPa 0,0 l/m 0,9 km/h (0 Bft) O 84 2 min 0,000 mm 0,0 UV-I 47 W/m -3,1 C -2,0 C 3,2 km/h (1 Bft) 95,65 %
13.03.2017 06:56 -2,0 C 92 % 1023,0 hPa 0,0 l/m 0,3 km/h (0 Bft) O 84 2 min 0,000 mm 0,0 UV-I 51 W/m -3,1 C -2,0 C 1,6 km/h (1 Bft) 98,48 %
13.03.2017 06:58 -1,9 C 93 % 1023,0 hPa 0,0 l/m 1,1 km/h (1 Bft) O 84 2 min 0,000 mm 0,0 UV-I 55 W/m -2,9 C -1,9 C 3,2 km/h (1 Bft) 100,00 %
13.03.2017 07:00 -1,9 C 93 % 1023,0 hPa 0,0 l/m 0,3 km/h (0 Bft) O 84 2 min 0,000 mm 0,0 UV-I 60 W/m -2,9 C -1,9 C 3,2 km/h (1 Bft) 100,00 %
13.03.2017 07:02 -1,8 C 93 % 1023,1 hPa 0,0 l/m 0,0 km/h (0 Bft) O 84 2 min 0,000 mm 0,0 UV-I 65 W/m -2,8 C -1,8 C 0,0 km/h (0 Bft) 96,00 %
13.03.2017 07:04 -1,8 C 92 % 1023,2 hPa 0,0 l/m 0,0 km/h (0 Bft) O 84 2 min 0,000 mm 0,0 UV-I 70 W/m -2,9 C -1,8 C 0,0 km/h (0 Bft) 98,00 %
13.03.2017 07:06 -1,8 C 92 % 1023,2 hPa 0,0 l/m 0,2 km/h (0 Bft) O 84 2 min 0,000 mm 0,0 UV-I 76 W/m -2,9 C -1,8 C 1,6 km/h (1 Bft) 97,56 %
13.03.2017 07:08 -1,7 C 93 % 1023,2 hPa 0,0 l/m 0,4 km/h (0 Bft) O 84 2 min 0,000 mm 0,0 UV-I 81 W/m -2,7 C -1,7 C 1,6 km/h (1 Bft) 96,23 %
13.03.2017 07:10 -1,7 C 93 % 1023,3 hPa 0,0 l/m 1,2 km/h (1 Bft) O 84 2 min 0,000 mm 0,0 UV-I 86 W/m -2,7 C -1,7 C 3,2 km/h (1 Bft) 96,67 %
13.03.2017 07:12 -1,6 C 92 % 1023,3 hPa 0,0 l/m 1,7 km/h (1 Bft) O 84 2 min 0,000 mm 0,0 UV-I 90 W/m -2,7 C -1,6 C 3,2 km/h (1 Bft) 100,00 %
13.03.2017 07:14 -1,6 C 92 % 1023,3 hPa 0,0 l/m 2,0 km/h (1 Bft) O 84 2 min 0,000 mm 0,0 UV-I 96 W/m -2,7 C -1,6 C 3,2 km/h (1 Bft) 96,00 %
13.03.2017 07:16 -1,6 C 92 % 1023,3 hPa 0,0 l/m 2,0 km/h (1 Bft) O 84 2 min 0,000 mm 0,0 UV-I 102 W/m -2,7 C -1,6 C 3,2 km/h (1 Bft) 98,11 %
13.03.2017 07:18 -1,6 C 92 % 1023,4 hPa 0,0 l/m 2,6 km/h (1 Bft) O 84 2 min 0,000 mm 0,0 UV-I 107 W/m -2,7 C -1,6 C 3,2 km/h (1 Bft) 100,00 %
13.03.2017 07:20 -1,5 C 92 % 1023,5 hPa 0,0 l/m 2,6 km/h (1 Bft) O 84 2 min 0,000 mm 0,0 UV-I 112 W/m -2,6 C -1,5 C 3,2 km/h (1 Bft) 91,49 %
13.03.2017 07:22 -1,5 C 92 % 1023,5 hPa 0,0 l/m 2,7 km/h (1 Bft) O 84 2 min 0,000 mm 0,0 UV-I 116 W/m -2,6 C -1,5 C 3,2 km/h (1 Bft) 96,00 %
13.03.2017 07:24 -1,4 C 92 % 1023,6 hPa 0,0 l/m 3,1 km/h (1 Bft) O 84 2 min 0,000 mm 0,0 UV-I 121 W/m -2,5 C -1,4 C 4,8 km/h (1 Bft) 94,34 %
13.03.2017 07:26 -1,4 C 92 % 1023,7 hPa 0,0 l/m 2,6 km/h (1 Bft) O 84 2 min 0,000 mm 0,0 UV-I 126 W/m -2,5 C -1,4 C 3,2 km/h (1 Bft) 89,47 %
13.03.2017 07:28 -1,3 C 92 % 1023,7 hPa 0,0 l/m 2,9 km/h (1 Bft) O 84 2 min 0,000 mm 0,0 UV-I 131 W/m -2,4 C -1,3 C 3,2 km/h (1 Bft) 93,62 %
13.03.2017 07:30 -1,3 C 92 % 1023,6 hPa 0,0 l/m 0,5 km/h (0 Bft) O 84 2 min 0,000 mm 0,0 UV-I 135 W/m -2,4 C -1,3 C 3,2 km/h (1 Bft) 90,57 %
13.03.2017 07:32 -1,2 C 92 % 1023,7 hPa 0,0 l/m 1,1 km/h (1 Bft) O 84 2 min 0,000 mm 0,0 UV-I 139 W/m -2,3 C -1,2 C 3,2 km/h (1 Bft) 94,00 %
13.03.2017 07:34 -1,2 C 92 % 1023,7 hPa 0,0 l/m 1,5 km/h (1 Bft) O 84 2 min 0,000 mm 0,0 UV-I 144 W/m -2,3 C -1,2 C 3,2 km/h (1 Bft) 95,12 %
13.03.2017 07:36 -1,1 C 92 % 1023,7 hPa 0,0 l/m 1,0 km/h (0 Bft) O 84 2 min 0,000 mm 0,0 UV-I 149 W/m -2,2 C -1,1 C 3,2 km/h (1 Bft) 96,23 %
13.03.2017 07:38 -1,0 C 92 % 1023,7 hPa 0,0 l/m 0,6 km/h (0 Bft) O 84 2 min 0,000 mm 0,0 UV-I 154 W/m -2,1 C -1,0 C 1,6 km/h (1 Bft) 90,24 %
13.03.2017 07:40 -0,9 C 92 % 1023,8 hPa 0,0 l/m 0,1 km/h (0 Bft) O 84 2 min 0,000 mm 0,0 UV-I 158 W/m -2,0 C -0,9 C 1,6 km/h (1 Bft) 95,12 %
13.03.2017 07:42 -0,7 C 92 % 1023,8 hPa 0,0 l/m 0,0 km/h (0 Bft) O 84 2 min 0,000 mm 0,0 UV-I 162 W/m -1,8 C -0,7 C 0,0 km/h (0 Bft) 91,49 %
13.03.2017 07:44 -0,6 C 91 % 1023,8 hPa 0,0 l/m 0,0 km/h (0 Bft) O 84 2 min 0,000 mm 0,0 UV-I 167 W/m -1,9 C -0,6 C 0,0 km/h (0 Bft) 94,34 %
13.03.2017 07:46 -0,5 C 91 % 1023,9 hPa 0,0 l/m 0,1 km/h (0 Bft) O 84 2 min 0,000 mm 0,0 UV-I 173 W/m -1,8 C -0,5 C 1,6 km/h (1 Bft) 94,87 %
13.03.2017 07:48 -0,4 C 90 % 1023,8 hPa 0,0 l/m 0,0 km/h (0 Bft) O 84 2 min 0,000 mm 0,0 UV-I 176 W/m -1,8 C -0,4 C 0,0 km/h (0 Bft) 94,23 %
13.03.2017 07:50 -0,3 C 90 % 1023,9 hPa 0,0 l/m 0,0 km/h (0 Bft) O 84 2 min 0,000 mm 0,0 UV-I 180 W/m -1,7 C -0,3 C 0,0 km/h (0 Bft) 89,58 %
13.03.2017 07:52 -0,3 C 90 % 1024,0 hPa 0,0 l/m 0,0 km/h (0 Bft) O 84 2 min 0,000 mm 0,0 UV-I 183 W/m -1,7 C -0,3 C 0,0 km/h (0 Bft) 92,68 %
13.03.2017 07:54 -0,2 C 89 % 1024,1 hPa 0,0 l/m 0,0 km/h (0 Bft) O 84 2 min 0,000 mm 0,0 UV-I 189 W/m -1,8 C -0,2 C 0,0 km/h (0 Bft) 92,31 %
13.03.2017 07:56 -0,1 C 90 % 1024,1 hPa 0,0 l/m 0,0 km/h (0 Bft) O 84 2 min 0,000 mm 0,0 UV-I 196 W/m -1,5 C -0,1 C 0,0 km/h (0 Bft) 94,34 %
13.03.2017 07:58 0,2 C 90 % 1024,1 hPa 0,0 l/m 0,0 km/h (0 Bft) O 84 2 min 0,000 mm 0,0 UV-I 202 W/m -1,2 C 0,2 C 0,0 km/h (0 Bft) 94,74 %
13.03.2017 08:00 0,2 C 89 % 1024,2 hPa 0,0 l/m 0,0 km/h (0 Bft) O 84 2 min 0,051 mm 0,0 UV-I 206 W/m -1,4 C 0,2 C 0,0 km/h (0 Bft) 94,00 %
13.03.2017 08:02 0,3 C 89 % 1024,2 hPa 0,0 l/m 0,0 km/h (0 Bft) O 84 2 min 0,000 mm 0,0 UV-I 212 W/m -1,3 C 0,3 C 0,0 km/h (0 Bft) 98,11 %
13.03.2017 08:04 0,3 C 89 % 1024,3 hPa 0,0 l/m 0,0 km/h (0 Bft) O 84 2 min 0,000 mm 0,0 UV-I 218 W/m -1,3 C 0,3 C 0,0 km/h (0 Bft) 94,29 %
13.03.2017 08:06 0,4 C 89 % 1024,3 hPa 0,0 l/m 0,1 km/h (0 Bft) O 84 2 min 0,000 mm 0,0 UV-I 224 W/m -1,2 C 0,4 C 1,6 km/h (1 Bft) 98,00 %
13.03.2017 08:08 0,4 C 89 % 1024,3 hPa 0,0 l/m 0,0 km/h (0 Bft) O 84 2 min 0,000 mm 0,0 UV-I 230 W/m -1,2 C 0,4 C 0,0 km/h (0 Bft) 94,00 %
13.03.2017 08:10 0,5 C 89 % 1024,4 hPa 0,0 l/m 0,0 km/h (0 Bft) O 84 2 min 0,000 mm 0,0 UV-I 235 W/m -1,1 C 0,5 C 0,0 km/h (0 Bft) 95,45 %
13.03.2017 08:12 0,5 C 88 % 1024,4 hPa 0,0 l/m 0,0 km/h (0 Bft) O 84 2 min 0,000 mm 0,0 UV-I 240 W/m -1,3 C 0,5 C 0,0 km/h (0 Bft) 98,00 %
13.03.2017 08:14 0,6 C 88 % 1024,4 hPa 0,0 l/m 0,0 km/h (0 Bft) O 84 2 min 0,000 mm 0,0 UV-I 247 W/m -1,2 C 0,6 C 0,0 km/h (0 Bft) 94,34 %
13.03.2017 08:16 0,6 C 87 % 1024,4 hPa 0,0 l/m 0,0 km/h (0 Bft) O 84 2 min 0,000 mm 0,0 UV-I 251 W/m -1,3 C 0,6 C 0,0 km/h (0 Bft) 97,37 %
13.03.2017 08:18 0,6 C 87 % 1024,4 hPa 0,0 l/m 0,4 km/h (0 Bft) O 84 2 min 0,000 mm 0,0 UV-I 256 W/m -1,3 C 0,6 C 1,6 km/h (1 Bft) 95,74 %
13.03.2017 08:20 0,7 C 87 % 1024,4 hPa 0,0 l/m 3,8 km/h (1 Bft) O 84 2 min 0,000 mm 0,0 UV-I 259 W/m -1,2 C 0,7 C 4,8 km/h (1 Bft) 98,00 %
13.03.2017 08:22 0,8 C 87 % 1024,4 hPa 0,0 l/m 4,9 km/h (1 Bft) O-NO 71 2 min 0,000 mm 0,0 UV-I 265 W/m -1,1 C 0,8 C 6,4 km/h (2 Bft) 94,00 %
13.03.2017 08:24 0,9 C 87 % 1024,4 hPa 0,0 l/m 5,3 km/h (1 Bft) O-NO 71 2 min 0,000 mm 0,0 UV-I 274 W/m -1,0 C 0,9 C 8,0 km/h (2 Bft) 95,12 %
13.03.2017 08:26 0,9 C 86 % 1024,4 hPa 0,0 l/m 7,7 km/h (2 Bft) O 80 2 min 0,000 mm 0,0 UV-I 279 W/m -1,2 C -0,4 C 12,9 km/h (3 Bft) 95,74 %
13.03.2017 08:28 0,9 C 86 % 1024,4 hPa 0,0 l/m 7,6 km/h (2 Bft) O-NO 61 2 min 0,000 mm 0,0 UV-I 285 W/m -1,2 C -0,3 C 12,9 km/h (3 Bft) 94,00 %
13.03.2017 08:30 0,9 C 86 % 1024,4 hPa 0,0 l/m 7,9 km/h (2 Bft) O-NO 60 2 min 0,000 mm 0,4 UV-I 290 W/m -1,2 C -0,6 C 12,9 km/h (3 Bft) 97,22 %
13.03.2017 08:32 1,0 C 86 % 1024,4 hPa 0,0 l/m 6,9 km/h (2 Bft) O-NO 70 2 min 0,000 mm 0,5 UV-I 297 W/m -1,1 C 0,5 C 11,3 km/h (2 Bft) 98,21 %
13.03.2017 08:34 1,0 C 86 % 1024,4 hPa 0,0 l/m 6,2 km/h (2 Bft) NO 49 2 min 0,000 mm 0,5 UV-I 304 W/m -1,1 C 1,0 C 8,0 km/h (2 Bft) 97,87 %
13.03.2017 08:36 1,1 C 86 % 1024,5 hPa 0,0 l/m 6,4 km/h (2 Bft) NO 55 2 min 0,000 mm 0,5 UV-I 309 W/m -1,0 C 1,1 C 8,0 km/h (2 Bft) 97,73 %
13.03.2017 08:38 1,1 C 86 % 1024,6 hPa 0,0 l/m 6,2 km/h (2 Bft) NO 45 2 min 0,000 mm 0,5 UV-I 314 W/m -1,0 C 1,1 C 8,0 km/h (2 Bft) 92,00 %
13.03.2017 08:40 1,2 C 86 % 1024,6 hPa 0,0 l/m 6,9 km/h (2 Bft) O-NO 69 2 min 0,000 mm 0,5 UV-I 320 W/m -0,9 C 0,7 C 12,9 km/h (3 Bft) 97,87 %
13.03.2017 08:42 1,2 C 85 % 1024,6 hPa 0,0 l/m 7,4 km/h (2 Bft) NO 46 2 min 0,000 mm 0,5 UV-I 328 W/m -1,0 C 0,2 C 9,7 km/h (2 Bft) 92,00 %
13.03.2017 08:44 1,3 C 86 % 1024,6 hPa 0,0 l/m 5,8 km/h (2 Bft) O-NO 58 2 min 0,000 mm 0,6 UV-I 335 W/m -0,8 C 1,3 C 8,0 km/h (2 Bft) 92,11 %
13.03.2017 08:46 1,4 C 85 % 1024,7 hPa 0,0 l/m 5,6 km/h (1 Bft) NO 53 2 min 0,000 mm 0,6 UV-I 339 W/m -0,8 C 1,4 C 8,0 km/h (2 Bft) 92,45 %
13.03.2017 08:48 1,4 C 85 % 1024,7 hPa 0,0 l/m 6,6 km/h (2 Bft) NO 56 2 min 0,000 mm 0,6 UV-I 342 W/m -0,8 C 1,2 C 8,0 km/h (2 Bft) 97,37 %
13.03.2017 08:50 1,6 C 86 % 1024,7 hPa 0,0 l/m 5,0 km/h (1 Bft) O-NO 69 2 min 0,000 mm 0,6 UV-I 347 W/m -0,5 C 1,6 C 6,4 km/h (2 Bft) 98,00 %
13.03.2017 08:52 1,6 C 85 % 1024,7 hPa 0,0 l/m 6,4 km/h (2 Bft) O-NO 58 2 min 0,000 mm 0,6 UV-I 356 W/m -0,6 C 1,6 C 9,7 km/h (2 Bft) 98,11 %
13.03.2017 08:54 1,7 C 85 % 1024,7 hPa 0,0 l/m 7,8 km/h (2 Bft) O 86 2 min 0,000 mm 0,6 UV-I 361 W/m -0,5 C 0,3 C 11,3 km/h (2 Bft) 97,56 %
13.03.2017 08:56 1,8 C 84 % 1024,8 hPa 0,0 l/m 8,4 km/h (2 Bft) NO 53 2 min 0,000 mm 0,7 UV-I 364 W/m -0,6 C -0,1 C 12,9 km/h (3 Bft) 94,00 %
13.03.2017 08:58 1,8 C 84 % 1024,8 hPa 0,0 l/m 7,9 km/h (2 Bft) NO 55 2 min 0,000 mm 0,7 UV-I 366 W/m -0,6 C 0,3 C 11,3 km/h (2 Bft) 95,74 %
13.03.2017 09:00 1,8 C 84 % 1024,8 hPa 0,0 l/m 8,2 km/h (2 Bft) NO 44 2 min 0,101 mm 0,7 UV-I 370 W/m -0,6 C 0,1 C 11,3 km/h (2 Bft) 92,00 %
13.03.2017 09:02 1,9 C 84 % 1024,9 hPa 0,0 l/m 8,8 km/h (2 Bft) N-NO 31 2 min 0,000 mm 0,7 UV-I 376 W/m -0,5 C -0,4 C 12,9 km/h (3 Bft) 97,87 %
13.03.2017 09:04 1,9 C 84 % 1024,9 hPa 0,0 l/m 8,7 km/h (2 Bft) O-NO 57 2 min 0,000 mm 0,7 UV-I 381 W/m -0,5 C -0,3 C 12,9 km/h (3 Bft) 100,00 %
13.03.2017 09:06 2,0 C 84 % 1025,0 hPa 0,0 l/m 9,7 km/h (2 Bft) O-NO 61 2 min 0,000 mm 0,7 UV-I 384 W/m -0,4 C -1,0 C 12,9 km/h (3 Bft) 98,21 %
13.03.2017 09:08 2,1 C 84 % 1025,0 hPa 0,0 l/m 8,0 km/h (2 Bft) O-NO 66 2 min 0,000 mm 0,7 UV-I 386 W/m -0,3 C 0,6 C 12,9 km/h (3 Bft) 93,18 %
13.03.2017 09:10 2,1 C 84 % 1025,0 hPa 0,0 l/m 7,9 km/h (2 Bft) NO 55 2 min 0,000 mm 0,8 UV-I 390 W/m -0,3 C 0,7 C 12,9 km/h (3 Bft) 100,00 %
13.03.2017 09:12 2,2 C 84 % 1025,0 hPa 0,0 l/m 9,6 km/h (2 Bft) NO 55 2 min 0,000 mm 0,8 UV-I 398 W/m -0,2 C -0,7 C 12,9 km/h (3 Bft) 97,62 %
13.03.2017 09:14 2,3 C 84 % 1025,0 hPa 0,0 l/m 7,4 km/h (2 Bft) O-NO 64 2 min 0,000 mm 0,8 UV-I 401 W/m -0,1 C 1,3 C 12,9 km/h (3 Bft) 97,73 %
13.03.2017 09:16 2,3 C 83 % 1025,1 hPa 0,0 l/m 8,0 km/h (2 Bft) O-NO 65 2 min 0,000 mm 0,8 UV-I 403 W/m -0,3 C 0,8 C 12,9 km/h (3 Bft) 93,18 %
13.03.2017 09:18 2,5 C 83 % 1025,1 hPa 0,0 l/m 7,6 km/h (2 Bft) O-NO 63 2 min 0,000 mm 0,8 UV-I 407 W/m -0,1 C 1,3 C 9,7 km/h (2 Bft) 97,73 %
13.03.2017 09:20 2,6 C 83 % 1025,1 hPa 0,0 l/m 8,7 km/h (2 Bft) NO 46 2 min 0,000 mm 0,9 UV-I 414 W/m 0,0 C 0,5 C 12,9 km/h (3 Bft) 96,23 %
13.03.2017 09:22 2,7 C 82 % 1025,2 hPa 0,0 l/m 10,7 km/h (2 Bft) NO 55 2 min 0,000 mm 0,9 UV-I 421 W/m -0,1 C -1,0 C 16,1 km/h (3 Bft) 97,56 %
13.03.2017 09:24 2,7 C 82 % 1025,2 hPa 0,0 l/m 7,7 km/h (2 Bft) NO 46 2 min 0,000 mm 0,9 UV-I 427 W/m -0,1 C 1,5 C 9,7 km/h (2 Bft) 96,61 %
13.03.2017 09:26 2,8 C 81 % 1025,2 hPa 0,0 l/m 6,8 km/h (2 Bft) O-NO 64 2 min 0,000 mm 0,9 UV-I 431 W/m -0,1 C 2,4 C 9,7 km/h (2 Bft) 95,74 %
13.03.2017 09:28 2,8 C 81 % 1025,2 hPa 0,0 l/m 7,3 km/h (2 Bft) O 80 2 min 0,000 mm 0,9 UV-I 434 W/m -0,1 C 1,9 C 11,3 km/h (2 Bft) 92,68 %
13.03.2017 09:30 2,9 C 81 % 1025,2 hPa 0,0 l/m 7,8 km/h (2 Bft) O-NO 63 2 min 0,000 mm 0,9 UV-I 441 W/m -0,0 C 1,6 C 12,9 km/h (3 Bft) 95,74 %
13.03.2017 09:32 2,9 C 81 % 1025,3 hPa 0,0 l/m 6,9 km/h (2 Bft) O-NO 64 2 min 0,000 mm 1,0 UV-I 446 W/m -0,0 C 2,4 C 11,3 km/h (2 Bft) 92,45 %
13.03.2017 09:34 3,0 C 81 % 1025,3 hPa 0,0 l/m 9,7 km/h (2 Bft) O-NO 71 2 min 0,000 mm 1,0 UV-I 450 W/m 0,1 C 0,1 C 12,9 km/h (3 Bft) 93,18 %
13.03.2017 09:36 3,1 C 81 % 1025,3 hPa 0,0 l/m 8,3 km/h (2 Bft) O-NO 73 2 min 0,000 mm 1,0 UV-I 457 W/m 0,2 C 1,3 C 12,9 km/h (3 Bft) 97,73 %
13.03.2017 09:38 3,1 C 81 % 1025,3 hPa 0,0 l/m 6,7 km/h (2 Bft) O-NO 61 2 min 0,000 mm 1,0 UV-I 462 W/m 0,2 C 2,8 C 12,9 km/h (3 Bft) 98,00 %
13.03.2017 09:40 3,2 C 80 % 1025,4 hPa 0,0 l/m 8,0 km/h (2 Bft) O-NO 57 2 min 0,000 mm 1,0 UV-I 466 W/m 0,1 C 1,7 C 12,9 km/h (3 Bft) 100,00 %
13.03.2017 09:42 3,3 C 80 % 1025,4 hPa 0,0 l/m 9,9 km/h (2 Bft) NO 46 2 min 0,000 mm 1,1 UV-I 471 W/m 0,2 C 0,3 C 14,5 km/h (3 Bft) 100,00 %
13.03.2017 09:44 3,4 C 80 % 1025,5 hPa 0,0 l/m 8,5 km/h (2 Bft) O-NO 74 2 min 0,000 mm 1,1 UV-I 474 W/m 0,3 C 1,5 C 14,5 km/h (3 Bft) 97,37 %
13.03.2017 09:46 3,5 C 79 % 1025,4 hPa 0,0 l/m 7,3 km/h (2 Bft) NO 55 2 min 0,000 mm 1,1 UV-I 478 W/m 0,2 C 2,7 C 11,3 km/h (2 Bft) 98,00 %
13.03.2017 09:48 3,6 C 79 % 1025,5 hPa 0,0 l/m 5,6 km/h (1 Bft) NO 53 2 min 0,000 mm 1,1 UV-I 480 W/m 0,3 C 3,6 C 9,7 km/h (2 Bft) 98,11 %
13.03.2017 09:50 3,7 C 78 % 1025,5 hPa 0,0 l/m 11,8 km/h (2 Bft) O-NO 69 2 min 0,000 mm 1,1 UV-I 488 W/m 0,2 C -0,6 C 16,1 km/h (3 Bft) 97,62 %
13.03.2017 09:52 3,8 C 77 % 1025,4 hPa 0,0 l/m 13,4 km/h (3 Bft) O-NO 59 2 min 0,000 mm 1,2 UV-I 492 W/m 0,1 C -1,5 C 17,7 km/h (3 Bft) 100,00 %
13.03.2017 09:54 3,8 C 77 % 1025,4 hPa 0,0 l/m 10,3 km/h (2 Bft) O 79 2 min 0,000 mm 1,2 UV-I 497 W/m 0,1 C 0,5 C 17,7 km/h (3 Bft) 97,87 %
13.03.2017 09:56 3,9 C 77 % 1025,4 hPa 0,0 l/m 8,2 km/h (2 Bft) O-NO 64 2 min 0,000 mm 1,2 UV-I 500 W/m 0,2 C 2,3 C 14,5 km/h (3 Bft) 97,87 %
13.03.2017 09:58 3,9 C 77 % 1025,4 hPa 0,0 l/m 11,7 km/h (2 Bft) O-NO 77 2 min 0,000 mm 1,2 UV-I 507 W/m 0,2 C -0,3 C 16,1 km/h (3 Bft) 100,00 %
13.03.2017 10:00 4,1 C 77 % 1025,5 hPa 0,0 l/m 13,4 km/h (3 Bft) O-NO 71 2 min 0,178 mm 1,2 UV-I 507 W/m 0,4 C -1,1 C 17,7 km/h (3 Bft) 97,87 %
13.03.2017 10:02 4,1 C 76 % 1025,4 hPa 0,0 l/m 13,1 km/h (3 Bft) NO 54 2 min 0,000 mm 1,3 UV-I 514 W/m 0,3 C -1,0 C 17,7 km/h (3 Bft) 100,00 %
13.03.2017 10:04 4,2 C 77 % 1025,5 hPa 0,0 l/m 11,7 km/h (2 Bft) NO 38 2 min 0,000 mm 1,3 UV-I 514 W/m 0,5 C 0,0 C 14,5 km/h (3 Bft) 97,56 %
13.03.2017 10:06 4,3 C 76 % 1025,4 hPa 0,0 l/m 12,5 km/h (3 Bft) O-NO 57 2 min 0,000 mm 1,3 UV-I 520 W/m 0,5 C -0,4 C 17,7 km/h (3 Bft) 93,62 %
13.03.2017 10:08 4,3 C 76 % 1025,4 hPa 0,0 l/m 12,4 km/h (3 Bft) O 80 2 min 0,000 mm 1,3 UV-I 526 W/m 0,5 C -0,3 C 19,3 km/h (3 Bft) 96,00 %
13.03.2017 10:10 4,3 C 75 % 1025,5 hPa 0,0 l/m 15,3 km/h (3 Bft) O-NO 69 2 min 0,000 mm 1,3 UV-I 526 W/m 0,3 C -1,9 C 19,3 km/h (3 Bft) 100,00 %
13.03.2017 10:12 4,3 C 75 % 1025,4 hPa 0,0 l/m 11,9 km/h (2 Bft) O-NO 74 2 min 0,000 mm 1,3 UV-I 529 W/m 0,3 C 0,0 C 17,7 km/h (3 Bft) 98,11 %
13.03.2017 10:14 4,3 C 75 % 1025,4 hPa 0,0 l/m 11,7 km/h (2 Bft) NO 52 2 min 0,000 mm 1,3 UV-I 533 W/m 0,3 C 0,1 C 17,7 km/h (3 Bft) 98,11 %
13.03.2017 10:16 4,4 C 75 % 1025,4 hPa 0,0 l/m 13,4 km/h (3 Bft) O-NO 71 2 min 0,000 mm 1,4 UV-I 539 W/m 0,4 C -0,8 C 17,7 km/h (3 Bft) 95,12 %
13.03.2017 10:18 4,4 C 75 % 1025,4 hPa 0,0 l/m 14,4 km/h (3 Bft) O-NO 74 2 min 0,000 mm 1,4 UV-I 543 W/m 0,4 C -1,3 C 17,7 km/h (3 Bft) 97,56 %
13.03.2017 10:20 4,4 C 75 % 1025,4 hPa 0,0 l/m 12,3 km/h (3 Bft) O-NO 57 2 min 0,000 mm 1,4 UV-I 542 W/m 0,4 C -0,1 C 16,1 km/h (3 Bft) 100,00 %
13.03.2017 10:22 4,6 C 75 % 1025,4 hPa 0,0 l/m 10,5 km/h (2 Bft) O-NO 59 2 min 0,000 mm 1,4 UV-I 551 W/m 0,6 C 1,3 C 16,1 km/h (3 Bft) 98,68 %
13.03.2017 10:24 4,7 C 75 % 1025,4 hPa 0,0 l/m 9,3 km/h (2 Bft) NO 53 2 min 0,000 mm 1,5 UV-I 556 W/m 0,7 C 2,3 C 14,5 km/h (3 Bft) 98,00 %
13.03.2017 10:26 4,7 C 74 % 1025,4 hPa 0,0 l/m 11,6 km/h (2 Bft) NO 53 2 min 0,000 mm 1,5 UV-I 563 W/m 0,5 C 0,7 C 16,1 km/h (3 Bft) 100,00 %
13.03.2017 10:28 4,8 C 74 % 1025,4 hPa 0,0 l/m 12,6 km/h (3 Bft) NO 45 2 min 0,000 mm 1,5 UV-I 560 W/m 0,6 C 0,2 C 17,7 km/h (3 Bft) 96,00 %
13.03.2017 10:30 5,1 C 76 % 1025,4 hPa 0,0 l/m 11,2 km/h (2 Bft) O-NO 70 2 min 0,000 mm 1,5 UV-I 570 W/m 1,2 C 1,4 C 20,9 km/h (4 Bft) 94,23 %
13.03.2017 10:32 4,9 C 74 % 1025,4 hPa 0,0 l/m 10,8 km/h (2 Bft) NO 38 2 min 0,000 mm 1,5 UV-I 572 W/m 0,7 C 1,4 C 16,1 km/h (3 Bft) 92,86 %
13.03.2017 10:34 5,0 C 73 % 1025,4 hPa 0,0 l/m 12,4 km/h (3 Bft) O-NO 63 2 min 0,000 mm 1,6 UV-I 575 W/m 0,6 C 0,5 C 16,1 km/h (3 Bft) 97,56 %
13.03.2017 10:36 4,9 C 72 % 1025,4 hPa 0,0 l/m 11,2 km/h (2 Bft) NO 52 2 min 0,000 mm 1,6 UV-I 571 W/m 0,3 C 1,1 C 16,1 km/h (3 Bft) 96,23 %
13.03.2017 10:38 5,0 C 73 % 1025,5 hPa 0,0 l/m 9,9 km/h (2 Bft) NO 34 2 min 0,000 mm 1,6 UV-I 577 W/m 0,6 C 2,1 C 16,1 km/h (3 Bft) 100,00 %
13.03.2017 10:40 5,2 C 72 % 1025,4 hPa 0,0 l/m 8,3 km/h (2 Bft) NO 51 2 min 0,000 mm 1,6 UV-I 579 W/m 0,6 C 3,6 C 17,7 km/h (3 Bft) 95,83 %
13.03.2017 10:42 5,1 C 70 % 1025,5 hPa 0,0 l/m 11,6 km/h (2 Bft) O-NO 68 2 min 0,000 mm 1,6 UV-I 578 W/m 0,1 C 1,1 C 16,1 km/h (3 Bft) 94,00 %
13.03.2017 10:44 5,0 C 71 % 1025,4 hPa 0,0 l/m 13,3 km/h (3 Bft) O-NO 64 2 min 0,000 mm 1,6 UV-I 581 W/m 0,2 C -0,0 C 19,3 km/h (3 Bft) 93,62 %
13.03.2017 10:46 5,0 C 72 % 1025,4 hPa 0,0 l/m 9,7 km/h (2 Bft) O 90 2 min 0,000 mm 1,7 UV-I 585 W/m 0,4 C 2,3 C 17,7 km/h (3 Bft) 95,12 %
13.03.2017 10:48 5,1 C 72 % 1025,4 hPa 0,0 l/m 14,3 km/h (3 Bft) NO 55 2 min 0,000 mm 1,7 UV-I 596 W/m 0,5 C -0,4 C 17,7 km/h (3 Bft) 93,18 %
13.03.2017 10:50 5,1 C 71 % 1025,5 hPa 0,0 l/m 12,3 km/h (3 Bft) O-NO 69 2 min 0,000 mm 1,7 UV-I 599 W/m 0,3 C 0,7 C 17,7 km/h (3 Bft) 94,44 %
13.03.2017 10:52 5,2 C 73 % 1025,4 hPa 0,0 l/m 11,6 km/h (2 Bft) O-NO 58 2 min 0,000 mm 1,7 UV-I 597 W/m 0,8 C 1,2 C 17,7 km/h (3 Bft) 96,00 %
13.03.2017 10:54 5,2 C 70 % 1025,5 hPa 0,0 l/m 10,4 km/h (2 Bft) NO 44 2 min 0,000 mm 1,7 UV-I 590 W/m 0,2 C 2,0 C 16,1 km/h (3 Bft) 94,00 %
13.03.2017 10:56 5,3 C 74 % 1025,5 hPa 0,0 l/m 10,3 km/h (2 Bft) NO 42 2 min 0,000 mm 1,7 UV-I 598 W/m 1,0 C 2,2 C 16,1 km/h (3 Bft) 93,18 %
13.03.2017 10:58 5,5 C 72 % 1025,5 hPa 0,0 l/m 9,2 km/h (2 Bft) NO 53 2 min 0,000 mm 1,7 UV-I 601 W/m 0,9 C 3,2 C 16,1 km/h (3 Bft) 92,50 %
13.03.2017 11:00 5,6 C 71 % 1025,5 hPa 0,0 l/m 10,5 km/h (2 Bft) O-NO 71 2 min 0,254 mm 1,8 UV-I 602 W/m 0,8 C 2,4 C 16,1 km/h (3 Bft) 92,86 %
13.03.2017 11:02 5,6 C 71 % 1025,6 hPa 0,0 l/m 11,5 km/h (2 Bft) NO 52 2 min 0,000 mm 1,8 UV-I 612 W/m 0,8 C 1,8 C 17,7 km/h (3 Bft) 97,56 %
13.03.2017 11:04 5,6 C 70 % 1025,5 hPa 0,0 l/m 9,3 km/h (2 Bft) O-NO 61 2 min 0,000 mm 1,8 UV-I 612 W/m 0,6 C 3,2 C 16,1 km/h (3 Bft) 96,00 %
13.03.2017 11:06 5,6 C 71 % 1025,6 hPa 0,0 l/m 12,5 km/h (3 Bft) O-NO 74 2 min 0,000 mm 1,8 UV-I 612 W/m 0,8 C 1,2 C 20,9 km/h (4 Bft) 94,00 %
13.03.2017 11:08 5,5 C 71 % 1025,5 hPa 0,0 l/m 14,2 km/h (3 Bft) NO 46 2 min 0,000 mm 1,8 UV-I 613 W/m 0,7 C 0,1 C 20,9 km/h (4 Bft) 94,87 %
13.03.2017 11:10 5,5 C 71 % 1025,5 hPa 0,0 l/m 14,0 km/h (3 Bft) O 86 2 min 0,000 mm 1,8 UV-I 618 W/m 0,7 C 0,2 C 17,7 km/h (3 Bft) 97,73 %
13.03.2017 11:12 5,4 C 70 % 1025,5 hPa 0,0 l/m 13,3 km/h (3 Bft) NO 45 2 min 0,000 mm 1,8 UV-I 615 W/m 0,4 C 0,5 C 20,9 km/h (4 Bft) 98,31 %
13.03.2017 11:14 5,4 C 70 % 1025,4 hPa 0,0 l/m 13,1 km/h (3 Bft) O-NO 62 2 min 0,000 mm 1,8 UV-I 620 W/m 0,4 C 0,6 C 17,7 km/h (3 Bft) 97,37 %
13.03.2017 11:16 5,4 C 69 % 1025,4 hPa 0,0 l/m 13,8 km/h (3 Bft) NO 50 2 min 0,000 mm 1,9 UV-I 618 W/m 0,2 C 0,2 C 19,3 km/h (3 Bft) 96,23 %
13.03.2017 11:18 5,6 C 71 % 1025,4 hPa 0,0 l/m 12,7 km/h (3 Bft) O 82 2 min 0,000 mm 1,9 UV-I 622 W/m 0,8 C 1,0 C 16,1 km/h (3 Bft) 97,56 %
13.03.2017 11:20 5,7 C 70 % 1025,4 hPa 0,0 l/m 13,9 km/h (3 Bft) NO 53 2 min 0,000 mm 1,9 UV-I 618 W/m 0,7 C 0,5 C 19,3 km/h (3 Bft) 92,68 %
13.03.2017 11:22 5,7 C 70 % 1025,4 hPa 0,0 l/m 14,8 km/h (3 Bft) NO 53 2 min 0,000 mm 1,9 UV-I 625 W/m 0,7 C 0,0 C 17,7 km/h (3 Bft) 94,34 %
13.03.2017 11:24 5,8 C 69 % 1025,4 hPa 0,0 l/m 10,3 km/h (2 Bft) NO 56 2 min 0,000 mm 1,9 UV-I 628 W/m 0,6 C 2,8 C 17,7 km/h (3 Bft) 95,12 %
13.03.2017 11:26 5,8 C 71 % 1025,4 hPa 0,0 l/m 5,8 km/h (2 Bft) O-NO 63 2 min 0,000 mm 1,9 UV-I 630 W/m 1,0 C 5,8 C 12,9 km/h (3 Bft) 92,00 %
13.03.2017 11:28 5,9 C 70 % 1025,5 hPa 0,0 l/m 12,6 km/h (3 Bft) NO 40 2 min 0,000 mm 1,9 UV-I 630 W/m 0,9 C 1,4 C 17,7 km/h (3 Bft) 97,73 %
13.03.2017 11:30 6,0 C 70 % 1025,5 hPa 0,0 l/m 15,0 km/h (3 Bft) NO 47 2 min 0,000 mm 1,9 UV-I 634 W/m 1,0 C 0,3 C 19,3 km/h (3 Bft) 96,43 %
13.03.2017 11:32 6,2 C 73 % 1025,5 hPa 0,0 l/m 11,3 km/h (2 Bft) O-NO 58 2 min 0,000 mm 1,9 UV-I 622 W/m 1,7 C 2,6 C 17,7 km/h (3 Bft) 94,74 %
13.03.2017 11:34 6,3 C 70 % 1025,5 hPa 0,0 l/m 10,3 km/h (2 Bft) O-NO 59 2 min 0,000 mm 2,0 UV-I 635 W/m 1,2 C 3,3 C 17,7 km/h (3 Bft) 96,43 %
13.03.2017 11:36 6,2 C 70 % 1025,4 hPa 0,0 l/m 9,8 km/h (2 Bft) NO 34 2 min 0,000 mm 2,0 UV-I 642 W/m 1,1 C 3,5 C 14,5 km/h (3 Bft) 96,00 %
13.03.2017 11:38 6,2 C 69 % 1025,4 hPa 0,0 l/m 14,0 km/h (3 Bft) O-NO 66 2 min 0,000 mm 2,0 UV-I 636 W/m 0,9 C 1,0 C 19,3 km/h (3 Bft) 94,74 %
13.03.2017 11:40 6,1 C 68 % 1025,5 hPa 0,0 l/m 12,0 km/h (2 Bft) O-NO 78 2 min 0,000 mm 2,0 UV-I 640 W/m 0,6 C 2,0 C 17,7 km/h (3 Bft) 93,62 %
13.03.2017 11:42 6,2 C 70 % 1025,5 hPa 0,0 l/m 12,3 km/h (3 Bft) NO 42 2 min 0,000 mm 2,0 UV-I 638 W/m 1,1 C 2,0 C 17,7 km/h (3 Bft) 98,11 %
13.03.2017 11:44 6,3 C 70 % 1025,5 hPa 0,0 l/m 12,6 km/h (3 Bft) NO 40 2 min 0,000 mm 2,0 UV-I 640 W/m 1,2 C 1,9 C 17,7 km/h (3 Bft) 97,62 %
13.03.2017 11:46 6,4 C 70 % 1025,5 hPa 0,0 l/m 10,3 km/h (2 Bft) NO 53 2 min 0,000 mm 2,0 UV-I 642 W/m 1,3 C 3,4 C 16,1 km/h (3 Bft) 94,23 %
13.03.2017 11:48 6,4 C 69 % 1025,5 hPa 0,0 l/m 9,9 km/h (2 Bft) O-NO 72 2 min 0,000 mm 2,0 UV-I 644 W/m 1,1 C 3,7 C 16,1 km/h (3 Bft) 95,24 %
13.03.2017 11:50 6,5 C 68 % 1025,5 hPa 0,0 l/m 12,6 km/h (3 Bft) NO 46 2 min 0,000 mm 2,0 UV-I 639 W/m 1,0 C 2,1 C 17,7 km/h (3 Bft) 92,68 %
13.03.2017 11:52 6,5 C 67 % 1025,5 hPa 0,0 l/m 11,6 km/h (2 Bft) O-NO 61 2 min 0,000 mm 2,0 UV-I 648 W/m 0,8 C 2,7 C 17,7 km/h (3 Bft) 98,11 %
13.03.2017 11:54 6,4 C 66 % 1025,5 hPa 0,0 l/m 12,4 km/h (3 Bft) O-NO 78 2 min 0,000 mm 2,1 UV-I 651 W/m 0,5 C 2,1 C 16,1 km/h (3 Bft) 96,00 %
13.03.2017 11:56 6,3 C 66 % 1025,5 hPa 0,0 l/m 13,2 km/h (3 Bft) O 92 2 min 0,000 mm 2,0 UV-I 648 W/m 0,4 C 1,6 C 17,7 km/h (3 Bft) 95,45 %
13.03.2017 11:58 6,3 C 66 % 1025,5 hPa 0,0 l/m 7,4 km/h (2 Bft) O 85 2 min 0,000 mm 2,1 UV-I 649 W/m 0,4 C 5,5 C 16,1 km/h (3 Bft) 94,34 %
13.03.2017 12:00 6,1 C 67 % 1025,5 hPa 0,0 l/m 5,8 km/h (2 Bft) NO 49 2 min 0,280 mm 2,0 UV-I 645 W/m 0,4 C 6,1 C 14,5 km/h (3 Bft) 96,15 %
13.03.2017 12:02 6,3 C 68 % 1025,5 hPa 0,0 l/m 7,8 km/h (2 Bft) NO 43 2 min 0,000 mm 2,0 UV-I 646 W/m 0,8 C 5,1 C 14,5 km/h (3 Bft) 96,77 %
13.03.2017 12:04 6,5 C 69 % 1025,4 hPa 0,0 l/m 9,5 km/h (2 Bft) N-NO 23 2 min 0,000 mm 2,1 UV-I 643 W/m 1,2 C 4,1 C 16,1 km/h (3 Bft) 92,45 %
13.03.2017 12:06 6,7 C 70 % 1025,4 hPa 0,0 l/m 8,6 km/h (2 Bft) N-NO 25 2 min 0,000 mm 2,0 UV-I 638 W/m 1,6 C 4,9 C 14,5 km/h (3 Bft) 97,37 %
13.03.2017 12:08 6,9 C 71 % 1025,4 hPa 0,0 l/m 9,3 km/h (2 Bft) N 9 2 min 0,000 mm 2,1 UV-I 643 W/m 2,0 C 4,6 C 16,1 km/h (3 Bft) 93,62 %
13.03.2017 12:10 7,1 C 70 % 1025,4 hPa 0,0 l/m 8,5 km/h (2 Bft) N-NO 15 2 min 0,000 mm 2,1 UV-I 649 W/m 2,0 C 5,4 C 12,9 km/h (3 Bft) 88,64 %
13.03.2017 12:12 7,2 C 67 % 1025,4 hPa 0,0 l/m 4,2 km/h (1 Bft) N-NO 24 2 min 0,000 mm 2,1 UV-I 655 W/m 1,5 C 7,2 C 11,3 km/h (2 Bft) 92,00 %
13.03.2017 12:14 7,1 C 66 % 1025,4 hPa 0,0 l/m 11,8 km/h (2 Bft) O 79 2 min 0,000 mm 2,1 UV-I 647 W/m 1,2 C 3,3 C 17,7 km/h (3 Bft) 92,45 %
13.03.2017 12:16 6,9 C 65 % 1025,4 hPa 0,0 l/m 7,1 km/h (2 Bft) NO 54 2 min 0,000 mm 2,1 UV-I 644 W/m 0,8 C 6,3 C 12,9 km/h (3 Bft) 95,45 %
13.03.2017 12:18 7,0 C 69 % 1025,4 hPa 0,0 l/m 5,1 km/h (1 Bft) NO 50 2 min 0,000 mm 2,1 UV-I 648 W/m 1,7 C 7,0 C 8,0 km/h (2 Bft) 95,12 %
13.03.2017 12:20 7,2 C 70 % 1025,4 hPa 0,0 l/m 4,6 km/h (1 Bft) NO 43 2 min 0,000 mm 2,1 UV-I 646 W/m 2,1 C 7,2 C 11,3 km/h (2 Bft) 96,00 %
13.03.2017 12:22 7,2 C 67 % 1025,4 hPa 0,0 l/m 5,4 km/h (1 Bft) N-NO 26 2 min 0,000 mm 2,1 UV-I 648 W/m 1,5 C 7,2 C 9,7 km/h (2 Bft) 94,00 %
13.03.2017 12:24 7,2 C 65 % 1025,5 hPa 0,0 l/m 2,7 km/h (1 Bft) O 85 2 min 0,000 mm 2,1 UV-I 647 W/m 1,1 C 7,2 C 4,8 km/h (1 Bft) 92,00 %
13.03.2017 12:26 7,2 C 66 % 1025,4 hPa 0,0 l/m 7,3 km/h (2 Bft) N-NO 28 2 min 0,000 mm 2,1 UV-I 647 W/m 1,3 C 6,5 C 12,9 km/h (3 Bft) 95,24 %
13.03.2017 12:28 7,4 C 69 % 1025,5 hPa 0,0 l/m 8,4 km/h (2 Bft) NO 34 2 min 0,000 mm 2,1 UV-I 647 W/m 2,1 C 5,8 C 12,9 km/h (3 Bft) 95,12 %
13.03.2017 12:30 7,3 C 63 % 1025,5 hPa 0,0 l/m 9,3 km/h (2 Bft) O-NO 57 2 min 0,000 mm 2,1 UV-I 640 W/m 0,7 C 5,1 C 14,5 km/h (3 Bft) 96,61 %
13.03.2017 12:32 7,2 C 67 % 1025,5 hPa 0,0 l/m 10,4 km/h (2 Bft) NO 43 2 min 0,000 mm 2,1 UV-I 639 W/m 1,5 C 4,2 C 16,1 km/h (3 Bft) 95,45 %
13.03.2017 12:34 7,2 C 65 % 1025,3 hPa 0,0 l/m 5,8 km/h (2 Bft) N-NO 24 2 min 0,000 mm 2,1 UV-I 646 W/m 1,1 C 7,2 C 11,3 km/h (2 Bft) 92,68 %
13.03.2017 12:36 7,4 C 65 % 1025,3 hPa 0,0 l/m 7,9 km/h (2 Bft) NO 51 2 min 0,000 mm 2,1 UV-I 641 W/m 1,3 C 6,2 C 12,9 km/h (3 Bft) 98,00 %
13.03.2017 12:38 7,2 C 61 % 1025,3 hPa 0,0 l/m 5,4 km/h (1 Bft) O-NO 61 2 min 0,000 mm 2,0 UV-I 627 W/m 0,2 C 7,2 C 8,0 km/h (2 Bft) 96,00 %
13.03.2017 12:40 7,3 C 63 % 1025,3 hPa 0,0 l/m 4,9 km/h (1 Bft) NO 42 2 min 0,000 mm 2,0 UV-I 634 W/m 0,7 C 7,3 C 9,7 km/h (2 Bft) 95,12 %
13.03.2017 12:42 7,4 C 63 % 1025,3 hPa 0,0 l/m 7,1 km/h (2 Bft) N-NO 18 2 min 0,000 mm 2,1 UV-I 641 W/m 0,8 C 6,8 C 11,3 km/h (2 Bft) 96,23 %
13.03.2017 12:44 7,3 C 64 % 1025,2 hPa 0,0 l/m 4,2 km/h (1 Bft) NO 53 2 min 0,000 mm 2,0 UV-I 638 W/m 1,0 C 7,3 C 6,4 km/h (2 Bft) 97,37 %
13.03.2017 12:46 7,2 C 62 % 1025,2 hPa 0,0 l/m 11,4 km/h (2 Bft) O 82 2 min 0,000 mm 2,0 UV-I 628 W/m 0,4 C 3,6 C 16,1 km/h (3 Bft) 96,00 %
13.03.2017 12:48 7,2 C 63 % 1025,2 hPa 0,0 l/m 8,3 km/h (2 Bft) O 101 2 min 0,000 mm 2,0 UV-I 611 W/m 0,6 C 5,7 C 12,9 km/h (3 Bft) 97,73 %
13.03.2017 12:50 7,2 C 64 % 1025,2 hPa 0,0 l/m 7,8 km/h (2 Bft) O-NO 57 2 min 0,000 mm 2,0 UV-I 614 W/m 0,9 C 6,1 C 12,9 km/h (3 Bft) 93,62 %
13.03.2017 12:52 7,3 C 63 % 1025,3 hPa 0,0 l/m 7,4 km/h (2 Bft) O-NO 59 2 min 0,000 mm 2,0 UV-I 622 W/m 0,7 C 6,5 C 14,5 km/h (3 Bft) 96,23 %
13.03.2017 12:54 7,2 C 61 % 1025,2 hPa 0,0 l/m 6,0 km/h (2 Bft) N-NO 26 2 min 0,000 mm 2,0 UV-I 618 W/m 0,2 C 7,2 C 8,0 km/h (2 Bft) 100,00 %
13.03.2017 12:56 7,4 C 64 % 1025,2 hPa 0,0 l/m 6,1 km/h (2 Bft) O-NO 77 2 min 0,000 mm 2,0 UV-I 623 W/m 1,0 C 7,4 C 9,7 km/h (2 Bft) 94,34 %
13.03.2017 12:58 7,3 C 61 % 1025,2 hPa 0,0 l/m 6,3 km/h (2 Bft) O-NO 78 2 min 0,000 mm 2,0 UV-I 620 W/m 0,3 C 7,3 C 12,9 km/h (3 Bft) 97,56 %
13.03.2017 13:00 7,1 C 60 % 1025,2 hPa 0,0 l/m 1,6 km/h (1 Bft) O-NO 69 2 min 0,279 mm 2,0 UV-I 617 W/m -0,1 C 7,1 C 4,8 km/h (1 Bft) 96,23 %
13.03.2017 13:02 7,1 C 61 % 1025,1 hPa 0,0 l/m 1,2 km/h (1 Bft) SO 138 2 min 0,000 mm 2,0 UV-I 623 W/m 0,1 C 7,1 C 3,2 km/h (1 Bft) 98,11 %
13.03.2017 13:04 7,1 C 61 % 1025,2 hPa 0,0 l/m 2,8 km/h (1 Bft) NO 40 2 min 0,000 mm 2,0 UV-I 620 W/m 0,1 C 7,1 C 6,4 km/h (2 Bft) 97,44 %
13.03.2017 13:06 7,4 C 65 % 1025,1 hPa 0,0 l/m 7,9 km/h (2 Bft) O 84 2 min 0,000 mm 1,9 UV-I 613 W/m 1,3 C 6,2 C 11,3 km/h (2 Bft) 94,23 %
13.03.2017 13:08 7,5 C 62 % 1025,1 hPa 0,0 l/m 8,0 km/h (2 Bft) NO 56 2 min 0,000 mm 1,9 UV-I 616 W/m 0,7 C 6,2 C 12,9 km/h (3 Bft) 93,33 %
13.03.2017 13:10 7,6 C 63 % 1025,0 hPa 0,0 l/m 7,9 km/h (2 Bft) NO 53 2 min 0,000 mm 1,9 UV-I 621 W/m 1,0 C 6,4 C 14,5 km/h (3 Bft) 98,00 %
13.03.2017 13:12 7,6 C 63 % 1025,0 hPa 0,0 l/m 8,0 km/h (2 Bft) O-NO 62 2 min 0,000 mm 1,9 UV-I 624 W/m 1,0 C 6,3 C 9,7 km/h (2 Bft) 95,12 %
13.03.2017 13:14 7,7 C 63 % 1025,0 hPa 0,0 l/m 5,8 km/h (2 Bft) NO 50 2 min 0,000 mm 1,9 UV-I 626 W/m 1,1 C 7,7 C 11,3 km/h (2 Bft) 97,87 %
13.03.2017 13:16 7,7 C 62 % 1025,0 hPa 0,0 l/m 5,5 km/h (1 Bft) NO 53 2 min 0,000 mm 1,9 UV-I 622 W/m 0,9 C 7,7 C 11,3 km/h (2 Bft) 90,91 %
13.03.2017 13:18 7,7 C 62 % 1025,0 hPa 0,0 l/m 7,9 km/h (2 Bft) O 80 2 min 0,000 mm 1,9 UV-I 621 W/m 0,9 C 6,5 C 12,9 km/h (3 Bft) 98,11 %
13.03.2017 13:20 7,8 C 64 % 1025,0 hPa 0,0 l/m 2,9 km/h (1 Bft) N-NO 25 2 min 0,000 mm 1,9 UV-I 625 W/m 1,4 C 7,8 C 6,4 km/h (2 Bft) 92,00 %
13.03.2017 13:22 8,2 C 65 % 1025,0 hPa 0,0 l/m 9,3 km/h (2 Bft) N 10 2 min 0,000 mm 1,9 UV-I 618 W/m 2,0 C 6,1 C 16,1 km/h (3 Bft) 97,14 %
13.03.2017 13:24 8,2 C 63 % 1025,0 hPa 0,0 l/m 6,8 km/h (2 Bft) N-NO 32 2 min 0,000 mm 1,9 UV-I 613 W/m 1,6 C 7,9 C 9,7 km/h (2 Bft) 96,23 %
13.03.2017 13:26 8,2 C 61 % 1024,9 hPa 0,0 l/m 4,1 km/h (1 Bft) NO 45 2 min 0,000 mm 1,8 UV-I 613 W/m 1,1 C 8,2 C 6,4 km/h (2 Bft) 91,49 %
13.03.2017 13:28 8,2 C 62 % 1024,9 hPa 0,0 l/m 7,4 km/h (2 Bft) O-NO 57 2 min 0,000 mm 1,8 UV-I 612 W/m 1,4 C 7,4 C 11,3 km/h (2 Bft) 97,73 %
13.03.2017 13:30 8,2 C 62 % 1024,9 hPa 0,0 l/m 6,0 km/h (2 Bft) N-NW 337 2 min 0,000 mm 1,8 UV-I 612 W/m 1,4 C 8,2 C 8,0 km/h (2 Bft) 96,00 %
13.03.2017 13:32 8,3 C 64 % 1024,9 hPa 0,0 l/m 4,0 km/h (1 Bft) N-NO 13 2 min 0,000 mm 1,8 UV-I 607 W/m 1,9 C 8,3 C 6,4 km/h (2 Bft) 92,68 %
13.03.2017 13:34 8,4 C 61 % 1024,9 hPa 0,0 l/m 2,1 km/h (1 Bft) N 351 2 min 0,000 mm 1,8 UV-I 608 W/m 1,3 C 8,4 C 8,0 km/h (2 Bft) 98,00 %
13.03.2017 13:36 8,3 C 63 % 1024,9 hPa 0,0 l/m 3,6 km/h (1 Bft) NO 37 2 min 0,000 mm 1,8 UV-I 601 W/m 1,7 C 8,3 C 8,0 km/h (2 Bft) 91,49 %
13.03.2017 13:38 8,2 C 65 % 1024,9 hPa 0,0 l/m 4,0 km/h (1 Bft) N-NW 337 2 min 0,000 mm 1,8 UV-I 592 W/m 2,0 C 8,2 C 9,7 km/h (2 Bft) 89,36 %
13.03.2017 13:40 8,2 C 64 % 1024,9 hPa 0,0 l/m 4,2 km/h (1 Bft) N-NO 32 2 min 0,000 mm 1,8 UV-I 593 W/m 1,8 C 8,2 C 11,3 km/h (2 Bft) 94,34 %
13.03.2017 13:42 8,4 C 65 % 1024,8 hPa 0,0 l/m 3,6 km/h (1 Bft) N-NW 347 2 min 0,000 mm 1,7 UV-I 560 W/m 2,2 C 8,4 C 6,4 km/h (2 Bft) 91,49 %
13.03.2017 13:44 8,2 C 61 % 1024,8 hPa 0,0 l/m 2,2 km/h (1 Bft) NW 325 2 min 0,000 mm 1,6 UV-I 541 W/m 1,1 C 8,2 C 3,2 km/h (1 Bft) 92,86 %
13.03.2017 13:46 8,1 C 63 % 1024,8 hPa 0,0 l/m 1,4 km/h (1 Bft) NW 321 2 min 0,000 mm 1,6 UV-I 495 W/m 1,5 C 8,1 C 3,2 km/h (1 Bft) 95,74 %
13.03.2017 13:48 8,0 C 62 % 1024,8 hPa 0,0 l/m 1,0 km/h (0 Bft) N-NW 329 2 min 0,000 mm 1,5 UV-I 506 W/m 1,2 C 8,0 C 3,2 km/h (1 Bft) 93,62 %
13.03.2017 13:50 7,9 C 63 % 1024,8 hPa 0,0 l/m 2,3 km/h (1 Bft) N-NO 17 2 min 0,000 mm 1,7 UV-I 576 W/m 1,3 C 7,9 C 6,4 km/h (2 Bft) 94,34 %
13.03.2017 13:52 8,1 C 65 % 1024,8 hPa 0,0 l/m 3,8 km/h (1 Bft) N-NO 29 2 min 0,000 mm 1,7 UV-I 594 W/m 1,9 C 8,1 C 6,4 km/h (2 Bft) 92,11 %
13.03.2017 13:54 8,2 C 64 % 1024,8 hPa 0,0 l/m 6,4 km/h (2 Bft) N-NO 30 2 min 0,000 mm 1,7 UV-I 598 W/m 1,8 C 8,2 C 11,3 km/h (2 Bft) 92,45 %
13.03.2017 13:56 8,1 C 61 % 1024,8 hPa 0,0 l/m 3,4 km/h (1 Bft) NO 40 2 min 0,000 mm 1,7 UV-I 599 W/m 1,0 C 8,1 C 8,0 km/h (2 Bft) 90,91 %
13.03.2017 13:58 8,3 C 60 % 1024,8 hPa 0,0 l/m 6,5 km/h (2 Bft) O-NO 61 2 min 0,000 mm 1,6 UV-I 585 W/m 1,0 C 8,2 C 9,7 km/h (2 Bft) 95,12 %
13.03.2017 14:00 8,3 C 60 % 1024,8 hPa 0,0 l/m 3,3 km/h (1 Bft) NO 41 2 min 0,279 mm 1,6 UV-I 540 W/m 1,0 C 8,3 C 6,4 km/h (2 Bft) 94,64 %
13.03.2017 14:02 8,3 C 61 % 1024,8 hPa 0,0 l/m 0,6 km/h (0 Bft) NO 41 2 min 0,000 mm 1,6 UV-I 544 W/m 1,2 C 8,3 C 1,6 km/h (1 Bft) 97,37 %
13.03.2017 14:04 8,3 C 62 % 1024,9 hPa 0,0 l/m 3,3 km/h (1 Bft) N-NO 19 2 min 0,000 mm 1,5 UV-I 542 W/m 1,5 C 8,3 C 9,7 km/h (2 Bft) 96,00 %
13.03.2017 14:06 8,2 C 59 % 1024,8 hPa 0,0 l/m 3,8 km/h (1 Bft) O-NO 64 2 min 0,000 mm 1,5 UV-I 580 W/m 0,7 C 8,2 C 6,4 km/h (2 Bft) 95,12 %
13.03.2017 14:08 7,9 C 59 % 1024,8 hPa 0,0 l/m 1,4 km/h (1 Bft) SO 127 2 min 0,000 mm 1,4 UV-I 496 W/m 0,4 C 7,9 C 3,2 km/h (1 Bft) 92,86 %
13.03.2017 14:10 7,8 C 59 % 1024,8 hPa 0,0 l/m 1,2 km/h (1 Bft) NO 42 2 min 0,000 mm 1,3 UV-I 378 W/m 0,3 C 7,8 C 3,2 km/h (1 Bft) 94,74 %
13.03.2017 14:12 8,0 C 63 % 1024,8 hPa 0,0 l/m 4,3 km/h (1 Bft) NO 45 2 min 0,000 mm 1,2 UV-I 335 W/m 1,4 C 8,0 C 9,7 km/h (2 Bft) 96,43 %
13.03.2017 14:14 8,1 C 60 % 1024,8 hPa 0,0 l/m 5,2 km/h (1 Bft) NO 55 2 min 0,000 mm 1,1 UV-I 310 W/m 0,8 C 8,1 C 8,0 km/h (2 Bft) 97,56 %
13.03.2017 14:16 8,0 C 62 % 1024,8 hPa 0,0 l/m 1,8 km/h (1 Bft) NO 55 0 min 0,000 mm 1,1 UV-I 271 W/m 1,2 C 8,0 C 3,2 km/h (1 Bft) 93,75 %
13.03.2017 14:18 8,1 C 63 % 1024,8 hPa 0,0 l/m 4,7 km/h (1 Bft) N-NO 24 0 min 0,000 mm 1,0 UV-I 229 W/m 1,5 C 8,1 C 8,0 km/h (2 Bft) 96,00 %
13.03.2017 14:20 8,0 C 59 % 1024,8 hPa 0,0 l/m 3,0 km/h (1 Bft) NO 51 0 min 0,000 mm 1,0 UV-I 215 W/m 0,5 C 8,0 C 4,8 km/h (1 Bft) 92,00 %
13.03.2017 14:22 7,9 C 60 % 1024,8 hPa 0,0 l/m 3,0 km/h (1 Bft) NO 42 0 min 0,000 mm 1,0 UV-I 261 W/m 0,6 C 7,9 C 4,8 km/h (1 Bft) 97,62 %
13.03.2017 14:24 7,9 C 62 % 1024,8 hPa 0,0 l/m 3,1 km/h (1 Bft) N 5 2 min 0,000 mm 1,1 UV-I 368 W/m 1,1 C 7,9 C 8,0 km/h (2 Bft) 100,00 %
13.03.2017 14:26 7,9 C 64 % 1024,8 hPa 0,0 l/m 1,9 km/h (1 Bft) N-NW 331 2 min 0,000 mm 1,0 UV-I 315 W/m 1,5 C 7,9 C 6,4 km/h (2 Bft) 94,34 %
13.03.2017 14:28 7,8 C 61 % 1024,8 hPa 0,0 l/m 0,7 km/h (0 Bft) N-NW 328 0 min 0,000 mm 1,0 UV-I 232 W/m 0,8 C 7,8 C 3,2 km/h (1 Bft) 96,00 %
13.03.2017 14:30 7,8 C 62 % 1024,9 hPa 0,0 l/m 0,3 km/h (0 Bft) N-NW 328 0 min 0,000 mm 1,0 UV-I 268 W/m 1,0 C 7,8 C 3,2 km/h (1 Bft) 96,00 %
13.03.2017 14:32 7,7 C 61 % 1024,9 hPa 0,0 l/m 2,4 km/h (1 Bft) N-NO 25 0 min 0,000 mm 1,0 UV-I 227 W/m 0,7 C 7,7 C 4,8 km/h (1 Bft) 95,12 %
13.03.2017 14:34 7,7 C 60 % 1024,8 hPa 0,0 l/m 1,0 km/h (0 Bft) N-NO 25 0 min 0,000 mm 1,1 UV-I 229 W/m 0,4 C 7,7 C 1,6 km/h (1 Bft) 98,08 %
13.03.2017 14:36 8,0 C 62 % 1024,9 hPa 0,0 l/m 1,4 km/h (1 Bft) NW 312 2 min 0,000 mm 1,3 UV-I 488 W/m 1,2 C 8,0 C 4,8 km/h (1 Bft) 92,11 %
13.03.2017 14:38 8,2 C 58 % 1024,9 hPa 0,0 l/m 0,7 km/h (0 Bft) NW 312 2 min 0,000 mm 1,3 UV-I 625 W/m 0,4 C 8,2 C 3,2 km/h (1 Bft) 98,21 %
13.03.2017 14:40 8,3 C 57 % 1024,9 hPa 0,0 l/m 0,3 km/h (0 Bft) NW 312 2 min 0,000 mm 1,3 UV-I 595 W/m 0,3 C 8,3 C 1,6 km/h (1 Bft) 91,30 %
13.03.2017 14:42 8,5 C 59 % 1024,9 hPa 0,0 l/m 5,0 km/h (1 Bft) N 11 2 min 0,000 mm 1,2 UV-I 556 W/m 1,0 C 8,5 C 8,0 km/h (2 Bft) 96,92 %
13.03.2017 14:44 8,7 C 60 % 1024,8 hPa 0,0 l/m 5,9 km/h (2 Bft) N-NO 22 2 min 0,000 mm 1,0 UV-I 482 W/m 1,4 C 8,7 C 8,0 km/h (2 Bft) 94,34 %
13.03.2017 14:46 8,6 C 58 % 1024,8 hPa 0,0 l/m 4,4 km/h (1 Bft) NO 51 2 min 0,000 mm 0,9 UV-I 284 W/m 0,8 C 8,6 C 8,0 km/h (2 Bft) 90,24 %
13.03.2017 14:48 8,3 C 59 % 1024,8 hPa 0,0 l/m 5,0 km/h (1 Bft) NO 49 0 min 0,000 mm 0,8 UV-I 221 W/m 0,8 C 8,3 C 9,7 km/h (2 Bft) 97,87 %
13.03.2017 14:50 8,2 C 58 % 1024,8 hPa 0,0 l/m 4,1 km/h (1 Bft) NO 49 2 min 0,000 mm 0,9 UV-I 267 W/m 0,4 C 8,2 C 4,8 km/h (1 Bft) 96,00 %
13.03.2017 14:52 8,2 C 58 % 1024,8 hPa 0,0 l/m 5,3 km/h (1 Bft) O 90 0 min 0,000 mm 0,9 UV-I 247 W/m 0,4 C 8,2 C 6,4 km/h (2 Bft) 97,37 %
13.03.2017 14:54 8,1 C 56 % 1024,7 hPa 0,0 l/m 3,5 km/h (1 Bft) O 90 2 min 0,000 mm 0,9 UV-I 289 W/m -0,1 C 8,1 C 4,8 km/h (1 Bft) 97,96 %
13.03.2017 14:56 8,2 C 57 % 1024,7 hPa 0,0 l/m 4,5 km/h (1 Bft) O-SO 112 2 min 0,000 mm 0,9 UV-I 353 W/m 0,2 C 8,2 C 6,4 km/h (2 Bft) 96,00 %
13.03.2017 14:58 8,1 C 56 % 1024,8 hPa 0,0 l/m 3,1 km/h (1 Bft) O-SO 112 2 min 0,000 mm 1,0 UV-I 382 W/m -0,1 C 8,1 C 4,8 km/h (1 Bft) 97,78 %
13.03.2017 15:00 8,2 C 57 % 1024,7 hPa 0,0 l/m 2,5 km/h (1 Bft) O-SO 112 2 min 0,178 mm 0,9 UV-I 384 W/m 0,2 C 8,2 C 4,8 km/h (1 Bft) 95,24 %
13.03.2017 15:02 8,3 C 55 % 1024,7 hPa 0,0 l/m 2,7 km/h (1 Bft) O-SO 112 2 min 0,000 mm 0,9 UV-I 353 W/m -0,2 C 8,3 C 4,8 km/h (1 Bft) 94,34 %
13.03.2017 15:04 8,2 C 55 % 1024,7 hPa 0,0 l/m 2,5 km/h (1 Bft) O-SO 119 2 min 0,000 mm 0,9 UV-I 355 W/m -0,3 C 8,2 C 4,8 km/h (1 Bft) 97,87 %
13.03.2017 15:06 8,3 C 55 % 1024,7 hPa 0,0 l/m 3,0 km/h (1 Bft) W 269 2 min 0,000 mm 0,9 UV-I 355 W/m -0,2 C 8,3 C 4,8 km/h (1 Bft) 94,34 %
13.03.2017 15:08 8,2 C 55 % 1024,7 hPa 0,0 l/m 3,8 km/h (1 Bft) W 273 2 min 0,000 mm 0,9 UV-I 382 W/m -0,3 C 8,2 C 4,8 km/h (1 Bft) 97,56 %
13.03.2017 15:10 8,4 C 56 % 1024,7 hPa 0,0 l/m 4,3 km/h (1 Bft) N 11 2 min 0,000 mm 0,9 UV-I 429 W/m 0,1 C 8,4 C 9,7 km/h (2 Bft) 98,00 %
13.03.2017 15:13 8,7 C 60 % 1024,7 hPa 0,0 l/m 3,2 km/h (1 Bft) W-NW 300 3 min 0,000 mm 0,9 UV-I 443 W/m 1,4 C 8,7 C 9,7 km/h (2 Bft) 98,57 %
13.03.2017 15:14 8,7 C 55 % 1024,7 hPa 0,0 l/m 3,5 km/h (1 Bft) NW 318 1 min 0,000 mm 0,9 UV-I 432 W/m 0,2 C 8,7 C 6,4 km/h (2 Bft) 96,30 %
13.03.2017 15:16 8,6 C 54 % 1024,7 hPa 0,0 l/m 2,2 km/h (1 Bft) N-NW 346 2 min 0,000 mm 0,9 UV-I 423 W/m -0,2 C 8,6 C 6,4 km/h (2 Bft) 93,62 %
13.03.2017 15:18 8,3 C 53 % 1024,6 hPa 0,0 l/m 0,6 km/h (0 Bft) N-NW 346 2 min 0,000 mm 0,9 UV-I 413 W/m -0,7 C 8,3 C 3,2 km/h (1 Bft) 92,68 %
13.03.2017 15:20 8,3 C 53 % 1024,6 hPa 0,0 l/m 1,5 km/h (1 Bft) N-NW 346 2 min 0,000 mm 0,8 UV-I 406 W/m -0,7 C 8,3 C 3,2 km/h (1 Bft) 97,87 %
13.03.2017 15:22 8,3 C 54 % 1024,5 hPa 0,0 l/m 1,2 km/h (1 Bft) N-NW 346 2 min 0,000 mm 0,8 UV-I 398 W/m -0,5 C 8,3 C 3,2 km/h (1 Bft) 96,00 %
13.03.2017 15:24 8,5 C 55 % 1024,6 hPa 0,0 l/m 1,6 km/h (1 Bft) N-NW 346 2 min 0,000 mm 0,8 UV-I 392 W/m -0,0 C 8,5 C 3,2 km/h (1 Bft) 92,11 %
13.03.2017 15:26 8,7 C 58 % 1024,6 hPa 0,0 l/m 1,1 km/h (1 Bft) N-NW 343 2 min 0,000 mm 0,8 UV-I 383 W/m 0,9 C 8,7 C 3,2 km/h (1 Bft) 94,00 %
13.03.2017 15:28 8,7 C 57 % 1024,7 hPa 0,0 l/m 1,1 km/h (1 Bft) N 350 2 min 0,000 mm 0,8 UV-I 376 W/m 0,7 C 8,7 C 3,2 km/h (1 Bft) 92,68 %
13.03.2017 15:30 8,7 C 56 % 1024,7 hPa 0,0 l/m 2,1 km/h (1 Bft) N 350 2 min 0,000 mm 0,7 UV-I 370 W/m 0,4 C 8,7 C 4,8 km/h (1 Bft) 92,45 %
13.03.2017 15:32 8,6 C 54 % 1024,7 hPa 0,0 l/m 1,9 km/h (1 Bft) N 351 2 min 0,000 mm 0,7 UV-I 363 W/m -0,2 C 8,6 C 4,8 km/h (1 Bft) 95,74 %
13.03.2017 15:34 8,7 C 55 % 1024,7 hPa 0,0 l/m 3,1 km/h (1 Bft) NO 36 2 min 0,000 mm 0,7 UV-I 355 W/m 0,2 C 8,7 C 6,4 km/h (2 Bft) 96,23 %
13.03.2017 15:36 8,8 C 54 % 1024,7 hPa 0,0 l/m 1,3 km/h (1 Bft) N-NO 32 2 min 0,000 mm 0,7 UV-I 350 W/m 0,0 C 8,8 C 3,2 km/h (1 Bft) 90,91 %
13.03.2017 15:38 8,8 C 55 % 1024,7 hPa 0,0 l/m 2,0 km/h (1 Bft) N-NO 30 2 min 0,000 mm 0,7 UV-I 346 W/m 0,3 C 8,8 C 3,2 km/h (1 Bft) 95,74 %
13.03.2017 15:40 8,8 C 57 % 1024,7 hPa 0,0 l/m 0,9 km/h (0 Bft) N-NO 30 2 min 0,000 mm 0,7 UV-I 344 W/m 0,8 C 8,8 C 4,8 km/h (1 Bft) 92,86 %
13.03.2017 15:42 8,9 C 58 % 1024,8 hPa 0,0 l/m 1,0 km/h (0 Bft) NO 42 2 min 0,000 mm 0,6 UV-I 334 W/m 1,1 C 8,9 C 3,2 km/h (1 Bft) 94,00 %
13.03.2017 15:44 9,0 C 56 % 1024,8 hPa 0,0 l/m 1,4 km/h (1 Bft) NW 309 2 min 0,000 mm 0,6 UV-I 331 W/m 0,7 C 9,0 C 3,2 km/h (1 Bft) 96,00 %
13.03.2017 15:46 8,9 C 54 % 1024,8 hPa 0,0 l/m 2,0 km/h (1 Bft) NW 309 2 min 0,000 mm 0,6 UV-I 327 W/m 0,1 C 8,9 C 4,8 km/h (1 Bft) 95,45 %
13.03.2017 15:48 8,8 C 53 % 1024,8 hPa 0,0 l/m 1,5 km/h (1 Bft) N-NW 327 2 min 0,000 mm 0,6 UV-I 315 W/m -0,2 C 8,8 C 4,8 km/h (1 Bft) 92,31 %
13.03.2017 15:50 8,6 C 53 % 1024,8 hPa 0,0 l/m 1,4 km/h (1 Bft) NW 321 2 min 0,000 mm 0,6 UV-I 309 W/m -0,4 C 8,6 C 3,2 km/h (1 Bft) 97,56 %
13.03.2017 15:52 8,6 C 55 % 1024,8 hPa 0,0 l/m 3,7 km/h (1 Bft) W 281 2 min 0,000 mm 0,5 UV-I 299 W/m 0,1 C 8,6 C 6,4 km/h (2 Bft) 92,00 %
13.03.2017 15:54 8,5 C 54 % 1024,8 hPa 0,0 l/m 2,5 km/h (1 Bft) W 281 2 min 0,000 mm 0,5 UV-I 260 W/m -0,3 C 8,5 C 3,2 km/h (1 Bft) 90,24 %
13.03.2017 15:56 8,4 C 55 % 1024,8 hPa 0,0 l/m 1,2 km/h (1 Bft) W 277 2 min 0,000 mm 0,5 UV-I 253 W/m -0,1 C 8,4 C 3,2 km/h (1 Bft) 91,49 %
13.03.2017 15:58 8,6 C 55 % 1024,9 hPa 0,0 l/m 0,3 km/h (0 Bft) W 277 2 min 0,000 mm 0,5 UV-I 246 W/m 0,1 C 8,6 C 3,2 km/h (1 Bft) 92,11 %
13.03.2017 16:00 8,7 C 58 % 1024,8 hPa 0,0 l/m 2,8 km/h (1 Bft) N-NO 21 2 min 0,178 mm 0,5 UV-I 239 W/m 0,9 C 8,7 C 6,4 km/h (2 Bft) 98,25 %
13.03.2017 16:02 8,7 C 57 % 1024,8 hPa 0,0 l/m 4,3 km/h (1 Bft) N-NO 21 2 min 0,000 mm 0,5 UV-I 267 W/m 0,7 C 8,7 C 6,4 km/h (2 Bft) 93,62 %
13.03.2017 16:04 8,7 C 55 % 1024,8 hPa 0,0 l/m 3,2 km/h (1 Bft) NO 39 2 min 0,000 mm 0,0 UV-I 230 W/m 0,2 C 8,7 C 6,4 km/h (2 Bft) 98,11 %
13.03.2017 16:06 8,7 C 57 % 1024,8 hPa 0,0 l/m 3,7 km/h (1 Bft) NO 40 2 min 0,000 mm 0,0 UV-I 208 W/m 0,7 C 8,7 C 6,4 km/h (2 Bft) 93,55 %
13.03.2017 16:08 8,7 C 57 % 1024,8 hPa 0,0 l/m 4,2 km/h (1 Bft) NO 40 2 min 0,000 mm 0,0 UV-I 197 W/m 0,7 C 8,7 C 4,8 km/h (1 Bft) 96,61 %
13.03.2017 16:10 8,6 C 56 % 1024,8 hPa 0,0 l/m 3,7 km/h (1 Bft) O-NO 62 2 min 0,000 mm 0,0 UV-I 210 W/m 0,3 C 8,6 C 4,8 km/h (1 Bft) 95,12 %
13.03.2017 16:12 8,5 C 57 % 1024,8 hPa 0,0 l/m 3,7 km/h (1 Bft) O 86 2 min 0,000 mm 0,0 UV-I 223 W/m 0,5 C 8,5 C 6,4 km/h (2 Bft) 90,91 %
13.03.2017 16:14 8,4 C 55 % 1024,8 hPa 0,0 l/m 3,0 km/h (1 Bft) O 90 2 min 0,000 mm 0,0 UV-I 232 W/m -0,1 C 8,4 C 4,8 km/h (1 Bft) 96,23 %
13.03.2017 16:16 8,4 C 57 % 1024,8 hPa 0,0 l/m 4,5 km/h (1 Bft) O-NO 67 2 min 0,000 mm 0,0 UV-I 245 W/m 0,4 C 8,4 C 6,4 km/h (2 Bft) 93,62 %
13.03.2017 16:18 8,5 C 56 % 1024,7 hPa 0,0 l/m 3,5 km/h (1 Bft) O-NO 67 2 min 0,000 mm 0,0 UV-I 235 W/m 0,2 C 8,5 C 4,8 km/h (1 Bft) 94,00 %
13.03.2017 16:20 8,6 C 56 % 1024,8 hPa 0,0 l/m 1,3 km/h (1 Bft) O-NO 67 2 min 0,000 mm 0,0 UV-I 231 W/m 0,3 C 8,6 C 3,2 km/h (1 Bft) 97,44 %
13.03.2017 16:22 8,4 C 57 % 1024,8 hPa 0,0 l/m 2,5 km/h (1 Bft) O-NO 67 2 min 0,000 mm 0,0 UV-I 225 W/m 0,4 C 8,4 C 3,2 km/h (1 Bft) 96,36 %
13.03.2017 16:24 8,4 C 56 % 1024,7 hPa 0,0 l/m 1,9 km/h (1 Bft) O-NO 67 2 min 0,000 mm 0,0 UV-I 193 W/m 0,1 C 8,4 C 3,2 km/h (1 Bft) 94,44 %
13.03.2017 16:26 8,3 C 55 % 1024,7 hPa 0,0 l/m 0,5 km/h (0 Bft) O-NO 67 2 min 0,000 mm 0,0 UV-I 199 W/m -0,2 C 8,3 C 1,6 km/h (1 Bft) 100,00 %
13.03.2017 16:28 8,3 C 56 % 1024,7 hPa 0,0 l/m 0,6 km/h (0 Bft) O-NO 67 2 min 0,000 mm 0,0 UV-I 159 W/m 0,0 C 8,3 C 1,6 km/h (1 Bft) 100,00 %
13.03.2017 16:30 8,3 C 56 % 1024,7 hPa 0,0 l/m 3,3 km/h (1 Bft) O-NO 67 0 min 0,000 mm 0,0 UV-I 117 W/m 0,0 C 8,3 C 4,8 km/h (1 Bft) 97,87 %
13.03.2017 16:32 8,3 C 56 % 1024,7 hPa 0,0 l/m 2,0 km/h (1 Bft) O-NO 67 0 min 0,000 mm 0,0 UV-I 79 W/m 0,0 C 8,3 C 3,2 km/h (1 Bft) 100,00 %
13.03.2017 16:34 8,2 C 57 % 1024,7 hPa 0,0 l/m 1,7 km/h (1 Bft) O-NO 67 0 min 0,000 mm 0,0 UV-I 72 W/m 0,2 C 8,2 C 3,2 km/h (1 Bft) 100,00 %
13.03.2017 16:36 8,2 C 57 % 1024,8 hPa 0,0 l/m 0,6 km/h (0 Bft) O-NO 67 0 min 0,000 mm 0,0 UV-I 82 W/m 0,2 C 8,2 C 3,2 km/h (1 Bft) 97,56 %
13.03.2017 16:38 8,1 C 57 % 1024,8 hPa 0,0 l/m 2,4 km/h (1 Bft) O-NO 67 0 min 0,000 mm 0,0 UV-I 120 W/m 0,1 C 8,1 C 4,8 km/h (1 Bft) 94,34 %
13.03.2017 16:40 8,1 C 57 % 1024,8 hPa 0,0 l/m 0,3 km/h (0 Bft) O-NO 67 0 min 0,000 mm 0,0 UV-I 104 W/m 0,1 C 8,1 C 1,6 km/h (1 Bft) 98,00 %
13.03.2017 16:42 8,1 C 59 % 1024,7 hPa 0,0 l/m 2,6 km/h (1 Bft) O-NO 67 0 min 0,000 mm 0,0 UV-I 81 W/m 0,6 C 8,1 C 3,2 km/h (1 Bft) 100,00 %
13.03.2017 16:44 8,1 C 58 % 1024,7 hPa 0,0 l/m 2,9 km/h (1 Bft) O-NO 67 0 min 0,000 mm 0,0 UV-I 92 W/m 0,3 C 8,1 C 4,8 km/h (1 Bft) 96,00 %
13.03.2017 16:46 8,1 C 59 % 1024,7 hPa 0,0 l/m 2,9 km/h (1 Bft) O-NO 67 0 min 0,000 mm 0,0 UV-I 87 W/m 0,6 C 8,1 C 4,8 km/h (1 Bft) 95,74 %
13.03.2017 16:48 8,0 C 59 % 1024,7 hPa 0,0 l/m 2,7 km/h (1 Bft) O-NO 67 0 min 0,000 mm 0,0 UV-I 97 W/m 0,5 C 8,0 C 4,8 km/h (1 Bft) 100,00 %
13.03.2017 16:50 7,9 C 60 % 1024,7 hPa 0,0 l/m 1,9 km/h (1 Bft) O-NO 67 2 min 0,000 mm 0,0 UV-I 123 W/m 0,6 C 7,9 C 3,2 km/h (1 Bft) 98,51 %
13.03.2017 16:52 7,9 C 59 % 1024,7 hPa 0,0 l/m 0,7 km/h (0 Bft) O-NO 67 2 min 0,000 mm 0,0 UV-I 143 W/m 0,4 C 7,9 C 1,6 km/h (1 Bft) 98,00 %
13.03.2017 16:54 7,9 C 62 % 1024,7 hPa 0,0 l/m 0,8 km/h (0 Bft) O-NO 67 2 min 0,000 mm 0,0 UV-I 142 W/m 1,1 C 7,9 C 3,2 km/h (1 Bft) 100,00 %
13.03.2017 16:56 7,9 C 59 % 1024,8 hPa 0,0 l/m 2,2 km/h (1 Bft) O-NO 67 2 min 0,000 mm 0,0 UV-I 134 W/m 0,4 C 7,9 C 3,2 km/h (1 Bft) 97,96 %
13.03.2017 16:58 7,9 C 62 % 1024,8 hPa 0,0 l/m 2,4 km/h (1 Bft) O-NO 67 2 min 0,000 mm 0,0 UV-I 124 W/m 1,1 C 7,9 C 3,2 km/h (1 Bft) 98,11 %
13.03.2017 17:00 7,9 C 62 % 1024,8 hPa 0,0 l/m 1,5 km/h (1 Bft) O-NO 67 2 min 0,000 mm 0,0 UV-I 124 W/m 1,1 C 7,9 C 3,2 km/h (1 Bft) 100,00 %
13.03.2017 17:02 7,9 C 61 % 1024,8 hPa 0,0 l/m 2,3 km/h (1 Bft) O-NO 67 2 min 0,076 mm 0,0 UV-I 111 W/m 0,9 C 7,9 C 3,2 km/h (1 Bft) 96,43 %
13.03.2017 17:04 7,9 C 65 % 1024,7 hPa 0,0 l/m 2,5 km/h (1 Bft) O-NO 67 2 min 0,000 mm 0,0 UV-I 103 W/m 1,7 C 7,9 C 3,2 km/h (1 Bft) 97,14 %
13.03.2017 17:06 7,8 C 62 % 1024,8 hPa 0,0 l/m 2,1 km/h (1 Bft) O-NO 67 2 min 0,000 mm 0,0 UV-I 99 W/m 1,0 C 7,8 C 3,2 km/h (1 Bft) 100,00 %
13.03.2017 17:08 7,8 C 62 % 1024,8 hPa 0,0 l/m 1,4 km/h (1 Bft) O-NO 67 2 min 0,000 mm 0,0 UV-I 91 W/m 1,0 C 7,8 C 3,2 km/h (1 Bft) 97,56 %
13.03.2017 17:10 7,8 C 61 % 1024,9 hPa 0,0 l/m 0,0 km/h (0 Bft) O-NO 67 0 min 0,000 mm 0,0 UV-I 75 W/m 0,8 C 7,8 C 1,6 km/h (1 Bft) 100,00 %
13.03.2017 17:12 7,8 C 59 % 1024,9 hPa 0,0 l/m 0,0 km/h (0 Bft) O-NO 67 0 min 0,000 mm 0,0 UV-I 62 W/m 0,3 C 7,8 C 1,6 km/h (1 Bft) 100,00 %
13.03.2017 17:14 7,9 C 58 % 1025,0 hPa 0,0 l/m 0,0 km/h (0 Bft) O-NO 67 0 min 0,000 mm 0,0 UV-I 54 W/m 0,2 C 7,9 C 0,0 km/h (0 Bft) 100,00 %
13.03.2017 17:16 7,9 C 59 % 1025,1 hPa 0,0 l/m 0,0 km/h (0 Bft) O-NO 67 0 min 0,000 mm 0,0 UV-I 59 W/m 0,4 C 7,9 C 0,0 km/h (0 Bft) 100,00 %
13.03.2017 17:18 7,8 C 60 % 1025,1 hPa 0,0 l/m 0,0 km/h (0 Bft) O-NO 67 0 min 0,000 mm 0,0 UV-I 59 W/m 0,5 C 7,8 C 0,0 km/h (0 Bft) 98,11 %
13.03.2017 17:20 7,8 C 60 % 1025,0 hPa 0,0 l/m 0,0 km/h (0 Bft) O-NO 67 0 min 0,000 mm 0,0 UV-I 63 W/m 0,5 C 7,8 C 0,0 km/h (0 Bft) 97,87 %
13.03.2017 17:22 7,7 C 62 % 1025,0 hPa 0,0 l/m 0,0 km/h (0 Bft) O-NO 67 0 min 0,000 mm 0,0 UV-I 60 W/m 0,9 C 7,7 C 0,0 km/h (0 Bft) 100,00 %
13.03.2017 17:24 7,6 C 66 % 1025,0 hPa 0,0 l/m 0,0 km/h (0 Bft) O-NO 67 0 min 0,000 mm 0,0 UV-I 52 W/m 1,7 C 7,6 C 0,0 km/h (0 Bft) 97,87 %
13.03.2017 17:26 7,3 C 66 % 1025,0 hPa 0,0 l/m 0,0 km/h (0 Bft) O-NO 67 0 min 0,000 mm 0,0 UV-I 49 W/m 1,4 C 7,3 C 0,0 km/h (0 Bft) 98,00 %
13.03.2017 17:28 7,1 C 69 % 1025,0 hPa 0,0 l/m 0,0 km/h (0 Bft) O-NO 67 0 min 0,000 mm 0,0 UV-I 46 W/m 1,8 C 7,1 C 0,0 km/h (0 Bft) 93,62 %
13.03.2017 17:30 6,9 C 70 % 1025,0 hPa 0,0 l/m 1,0 km/h (0 Bft) O-NO 67 0 min 0,000 mm 0,0 UV-I 43 W/m 1,8 C 6,9 C 3,2 km/h (1 Bft) 100,00 %
13.03.2017 17:32 6,7 C 70 % 1025,0 hPa 0,0 l/m 1,8 km/h (1 Bft) O-NO 67 0 min 0,000 mm 0,0 UV-I 41 W/m 1,6 C 6,7 C 3,2 km/h (1 Bft) 100,00 %
13.03.2017 17:34 6,6 C 71 % 1025,0 hPa 0,0 l/m 1,8 km/h (1 Bft) O-NO 67 0 min 0,000 mm 0,0 UV-I 38 W/m 1,7 C 6,6 C 3,2 km/h (1 Bft) 96,00 %
13.03.2017 17:36 6,4 C 71 % 1025,0 hPa 0,0 l/m 1,4 km/h (1 Bft) O-NO 67 0 min 0,000 mm 0,0 UV-I 34 W/m 1,5 C 6,4 C 3,2 km/h (1 Bft) 94,34 %
13.03.2017 17:38 6,4 C 71 % 1025,1 hPa 0,0 l/m 1,5 km/h (1 Bft) O-NO 67 0 min 0,000 mm 0,0 UV-I 30 W/m 1,5 C 6,4 C 1,6 km/h (1 Bft) 97,22 %
13.03.2017 17:40 6,3 C 70 % 1025,1 hPa 0,0 l/m 1,0 km/h (0 Bft) O-NO 67 0 min 0,000 mm 0,0 UV-I 26 W/m 1,2 C 6,3 C 1,6 km/h (1 Bft) 96,43 %
13.03.2017 17:42 6,3 C 72 % 1025,1 hPa 0,0 l/m 0,5 km/h (0 Bft) O-NO 67 0 min 0,000 mm 0,0 UV-I 25 W/m 1,6 C 6,3 C 1,6 km/h (1 Bft) 97,96 %
13.03.2017 17:44 6,4 C 71 % 1025,1 hPa 0,0 l/m 0,6 km/h (0 Bft) O-NO 67 0 min 0,000 mm 0,0 UV-I 22 W/m 1,5 C 6,4 C 1,6 km/h (1 Bft) 97,44 %
13.03.2017 17:46 6,4 C 70 % 1025,1 hPa 0,0 l/m 0,0 km/h (0 Bft) O-NO 67 0 min 0,000 mm 0,0 UV-I 19 W/m 1,3 C 6,4 C 0,0 km/h (0 Bft) 96,23 %
13.03.2017 17:48 6,6 C 69 % 1025,1 hPa 0,0 l/m 0,0 km/h (0 Bft) O-NO 67 0 min 0,000 mm 0,0 UV-I 18 W/m 1,3 C 6,6 C 0,0 km/h (0 Bft) 98,00 %
13.03.2017 17:50 6,7 C 66 % 1025,2 hPa 0,0 l/m 0,0 km/h (0 Bft) O-NO 67 0 min 0,000 mm 0,0 UV-I 17 W/m 0,8 C 6,7 C 0,0 km/h (0 Bft) 97,14 %
13.03.2017 17:52 6,7 C 65 % 1025,2 hPa 0,0 l/m 0,0 km/h (0 Bft) O-NO 67 0 min 0,000 mm 0,0 UV-I 14 W/m 0,6 C 6,7 C 0,0 km/h (0 Bft) 98,00 %
13.03.2017 17:54 6,7 C 65 % 1025,2 hPa 0,0 l/m 0,0 km/h (0 Bft) O-NO 67 2 min 0,000 mm 0,0 UV-I 13 W/m 0,6 C 6,7 C 0,0 km/h (0 Bft) 98,00 %
13.03.2017 17:56 6,6 C 66 % 1025,3 hPa 0,0 l/m 0,0 km/h (0 Bft) O-NO 67 2 min 0,000 mm 0,0 UV-I 12 W/m 0,7 C 6,6 C 0,0 km/h (0 Bft) 100,00 %
13.03.2017 17:58 6,4 C 71 % 1025,3 hPa 0,0 l/m 0,5 km/h (0 Bft) O-NO 67 0 min 0,000 mm 0,0 UV-I 11 W/m 1,5 C 6,4 C 3,2 km/h (1 Bft) 97,37 %
13.03.2017 18:00 6,2 C 71 % 1025,3 hPa 0,0 l/m 2,2 km/h (1 Bft) O-NO 67 0 min 0,026 mm 0,0 UV-I 9 W/m 1,3 C 6,2 C 3,2 km/h (1 Bft) 98,21 %
13.03.2017 18:02 6,0 C 73 % 1025,3 hPa 0,0 l/m 0,3 km/h (0 Bft) O-NO 67 0 min 0,000 mm 0,0 UV-I 8 W/m 1,5 C 6,0 C 1,6 km/h (1 Bft) 97,37 %
13.03.2017 18:04 5,8 C 73 % 1025,3 hPa 0,0 l/m 0,1 km/h (0 Bft) O-NO 67 0 min 0,000 mm 0,0 UV-I 7 W/m 1,3 C 5,8 C 1,6 km/h (1 Bft) 96,23 %
13.03.2017 18:06 5,6 C 73 % 1025,4 hPa 0,0 l/m 0,3 km/h (0 Bft) O-NO 67 0 min 0,000 mm 0,0 UV-I 7 W/m 1,2 C 5,6 C 1,6 km/h (1 Bft) 94,74 %
13.03.2017 18:08 5,5 C 74 % 1025,4 hPa 0,0 l/m 0,8 km/h (0 Bft) O-NO 67 0 min 0,000 mm 0,0 UV-I 6 W/m 1,2 C 5,5 C 1,6 km/h (1 Bft) 96,23 %
13.03.2017 18:10 5,4 C 72 % 1025,4 hPa 0,0 l/m 0,4 km/h (0 Bft) O-NO 67 0 min 0,000 mm 0,0 UV-I 5 W/m 0,8 C 5,4 C 1,6 km/h (1 Bft) 96,23 %
13.03.2017 18:13 5,3 C 75 % 1025,5 hPa 0,0 l/m 0,6 km/h (0 Bft) O-NO 67 0 min 0,000 mm 0,0 UV-I 5 W/m 1,2 C 5,3 C 1,6 km/h (1 Bft) 92,31 %
13.03.2017 18:14 5,3 C 75 % 1025,5 hPa 0,0 l/m 1,0 km/h (0 Bft) O-NO 67 0 min 0,000 mm 0,0 UV-I 5 W/m 1,2 C 5,3 C 1,6 km/h (1 Bft) 95,65 %
13.03.2017 18:16 5,3 C 76 % 1025,5 hPa 0,0 l/m 0,8 km/h (0 Bft) O-NO 67 0 min 0,000 mm 0,0 UV-I 3 W/m 1,4 C 5,3 C 1,6 km/h (1 Bft) 96,15 %
13.03.2017 18:18 5,2 C 77 % 1025,6 hPa 0,0 l/m 0,5 km/h (0 Bft) O-NO 67 0 min 0,000 mm 0,0 UV-I 0 W/m 1,5 C 5,2 C 1,6 km/h (1 Bft) 92,31 %
13.03.2017 18:20 5,2 C 77 % 1025,7 hPa 0,0 l/m 0,2 km/h (0 Bft) O-NO 67 0 min 0,000 mm 0,0 UV-I 0 W/m 1,5 C 5,2 C 1,6 km/h (1 Bft) 98,00 %
13.03.2017 18:22 5,1 C 76 % 1025,6 hPa 0,0 l/m 0,4 km/h (0 Bft) O-NO 67 0 min 0,000 mm 0,0 UV-I 0 W/m 1,2 C 5,1 C 1,6 km/h (1 Bft) 96,00 %
13.03.2017 18:24 5,1 C 76 % 1025,7 hPa 0,0 l/m 0,3 km/h (0 Bft) O-NO 67 0 min 0,000 mm 0,0 UV-I 0 W/m 1,2 C 5,1 C 1,6 km/h (1 Bft) 90,24 %
13.03.2017 18:26 4,9 C 77 % 1025,7 hPa 0,0 l/m 1,7 km/h (1 Bft) O-NO 67 0 min 0,000 mm 0,0 UV-I 0 W/m 1,2 C 4,9 C 3,2 km/h (1 Bft) 94,00 %
13.03.2017 18:28 4,8 C 78 % 1025,7 hPa 0,0 l/m 1,4 km/h (1 Bft) O-NO 67 0 min 0,000 mm 0,0 UV-I 0 W/m 1,3 C 4,8 C 3,2 km/h (1 Bft) 96,00 %
13.03.2017 18:30 4,7 C 79 % 1025,7 hPa 0,0 l/m 1,3 km/h (1 Bft) O-NO 67 0 min 0,000 mm 0,0 UV-I 0 W/m 1,4 C 4,7 C 3,2 km/h (1 Bft) 97,56 %
13.03.2017 18:32 4,6 C 79 % 1025,8 hPa 0,0 l/m 0,3 km/h (0 Bft) O-NO 67 0 min 0,000 mm 0,0 UV-I 0 W/m 1,3 C 4,6 C 1,6 km/h (1 Bft) 96,00 %
13.03.2017 18:34 4,6 C 79 % 1025,7 hPa 0,0 l/m 0,3 km/h (0 Bft) O-NO 67 0 min 0,000 mm 0,0 UV-I 0 W/m 1,3 C 4,6 C 1,6 km/h (1 Bft) 92,11 %
13.03.2017 18:36 4,7 C 78 % 1025,7 hPa 0,0 l/m 1,8 km/h (1 Bft) O-NO 67 0 min 0,000 mm 0,0 UV-I 0 W/m 1,2 C 4,7 C 3,2 km/h (1 Bft) 94,12 %
13.03.2017 18:38 4,8 C 76 % 1025,7 hPa 0,0 l/m 1,2 km/h (1 Bft) O-NO 67 0 min 0,000 mm 0,0 UV-I 0 W/m 0,9 C 4,8 C 3,2 km/h (1 Bft) 94,00 %
13.03.2017 18:40 4,8 C 76 % 1025,7 hPa 0,0 l/m 1,7 km/h (1 Bft) O-NO 67 0 min 0,000 mm 0,0 UV-I 0 W/m 0,9 C 4,8 C 3,2 km/h (1 Bft) 94,34 %
13.03.2017 18:42 4,8 C 76 % 1025,8 hPa 0,0 l/m 1,1 km/h (1 Bft) O-NO 67 0 min 0,000 mm 0,0 UV-I 0 W/m 0,9 C 4,8 C 1,6 km/h (1 Bft) 94,74 %
13.03.2017 18:44 4,7 C 75 % 1025,8 hPa 0,0 l/m 1,7 km/h (1 Bft) O-NO 67 0 min 0,000 mm 0,0 UV-I 0 W/m 0,7 C 4,7 C 3,2 km/h (1 Bft) 95,74 %
13.03.2017 18:46 4,6 C 76 % 1025,9 hPa 0,0 l/m 1,4 km/h (1 Bft) O-NO 67 0 min 0,000 mm 0,0 UV-I 0 W/m 0,7 C 4,6 C 3,2 km/h (1 Bft) 98,00 %
13.03.2017 18:48 4,7 C 74 % 1025,9 hPa 0,0 l/m 0,5 km/h (0 Bft) O-NO 67 0 min 0,000 mm 0,0 UV-I 0 W/m 0,5 C 4,7 C 1,6 km/h (1 Bft) 94,74 %
13.03.2017 18:50 4,9 C 74 % 1025,9 hPa 0,0 l/m 1,8 km/h (1 Bft) O-NO 67 0 min 0,000 mm 0,0 UV-I 0 W/m 0,7 C 4,9 C 3,2 km/h (1 Bft) 98,11 %
13.03.2017 18:52 4,8 C 75 % 1025,8 hPa 0,0 l/m 1,5 km/h (1 Bft) O-NO 67 0 min 0,000 mm 0,0 UV-I 0 W/m 0,8 C 4,8 C 3,2 km/h (1 Bft) 95,74 %
13.03.2017 18:54 4,7 C 76 % 1025,9 hPa 0,0 l/m 1,1 km/h (1 Bft) O-NO 67 0 min 0,000 mm 0,0 UV-I 0 W/m 0,8 C 4,7 C 3,2 km/h (1 Bft) 98,00 %
13.03.2017 18:56 4,6 C 77 % 1025,9 hPa 0,0 l/m 0,0 km/h (0 Bft) O-NO 67 0 min 0,000 mm 0,0 UV-I 0 W/m 0,9 C 4,6 C 0,0 km/h (0 Bft) 98,00 %
13.03.2017 18:58 4,3 C 78 % 1025,9 hPa 0,0 l/m 0,0 km/h (0 Bft) O-NO 67 0 min 0,000 mm 0,0 UV-I 0 W/m 0,8 C 4,3 C 0,0 km/h (0 Bft) 100,00 %
13.03.2017 19:00 4,3 C 78 % 1025,9 hPa 0,0 l/m 0,0 km/h (0 Bft) O-NO 67 0 min 0,000 mm 0,0 UV-I 0 W/m 0,8 C 4,3 C 0,0 km/h (0 Bft) 98,11 %
13.03.2017 19:02 4,3 C 77 % 1025,9 hPa 0,0 l/m 0,7 km/h (0 Bft) O-NO 67 0 min 0,000 mm 0,0 UV-I 0 W/m 0,6 C 4,3 C 3,2 km/h (1 Bft) 98,00 %
13.03.2017 19:04 4,4 C 78 % 1025,9 hPa 0,0 l/m 2,8 km/h (1 Bft) O-NO 67 0 min 0,000 mm 0,0 UV-I 0 W/m 0,9 C 4,4 C 4,8 km/h (1 Bft) 97,37 %
13.03.2017 19:06 4,4 C 76 % 1025,9 hPa 0,0 l/m 3,0 km/h (1 Bft) O-NO 67 0 min 0,000 mm 0,0 UV-I 0 W/m 0,5 C 4,4 C 4,8 km/h (1 Bft) 97,87 %
13.03.2017 19:08 4,4 C 75 % 1025,9 hPa 0,0 l/m 1,9 km/h (1 Bft) O-NO 67 0 min 0,000 mm 0,0 UV-I 0 W/m 0,4 C 4,4 C 3,2 km/h (1 Bft) 98,00 %
13.03.2017 19:10 4,3 C 76 % 1026,0 hPa 0,0 l/m 4,2 km/h (1 Bft) O-NO 67 0 min 0,000 mm 0,0 UV-I 0 W/m 0,5 C 4,3 C 4,8 km/h (1 Bft) 96,00 %
13.03.2017 19:12 4,3 C 76 % 1026,0 hPa 0,0 l/m 3,9 km/h (1 Bft) O-NO 67 0 min 0,000 mm 0,0 UV-I 0 W/m 0,5 C 4,3 C 4,8 km/h (1 Bft) 100,00 %
13.03.2017 19:14 4,3 C 77 % 1026,0 hPa 0,0 l/m 4,4 km/h (1 Bft) S-SO 158 0 min 0,000 mm 0,0 UV-I 0 W/m 0,6 C 4,3 C 8,0 km/h (2 Bft) 100,00 %
13.03.2017 19:16 4,2 C 77 % 1026,0 hPa 0,0 l/m 2,9 km/h (1 Bft) S-SO 159 0 min 0,000 mm 0,0 UV-I 0 W/m 0,5 C 4,2 C 6,4 km/h (2 Bft) 97,87 %
13.03.2017 19:18 4,2 C 77 % 1026,0 hPa 0,0 l/m 0,7 km/h (0 Bft) S-SO 159 0 min 0,000 mm 0,0 UV-I 0 W/m 0,5 C 4,2 C 3,2 km/h (1 Bft) 95,74 %
13.03.2017 19:20 4,2 C 77 % 1026,0 hPa 0,0 l/m 0,0 km/h (0 Bft) S-SO 159 0 min 0,000 mm 0,0 UV-I 0 W/m 0,5 C 4,2 C 0,0 km/h (0 Bft) 91,49 %
13.03.2017 19:22 4,2 C 77 % 1026,0 hPa 0,0 l/m 0,0 km/h (0 Bft) S-SO 159 0 min 0,000 mm 0,0 UV-I 0 W/m 0,5 C 4,2 C 0,0 km/h (0 Bft) 96,00 %
13.03.2017 19:24 4,2 C 77 % 1026,0 hPa 0,0 l/m 0,0 km/h (0 Bft) S-SO 159 0 min 0,000 mm 0,0 UV-I 0 W/m 0,5 C 4,2 C 0,0 km/h (0 Bft) 97,56 %
13.03.2017 19:26 4,2 C 78 % 1026,1 hPa 0,0 l/m 0,0 km/h (0 Bft) S-SO 159 0 min 0,000 mm 0,0 UV-I 0 W/m 0,7 C 4,2 C 0,0 km/h (0 Bft) 100,00 %
13.03.2017 19:28 4,2 C 78 % 1026,1 hPa 0,0 l/m 1,1 km/h (1 Bft) S-SO 159 0 min 0,000 mm 0,0 UV-I 0 W/m 0,7 C 4,2 C 1,6 km/h (1 Bft) 100,00 %
13.03.2017 19:30 4,2 C 78 % 1026,1 hPa 0,0 l/m 1,8 km/h (1 Bft) S-SO 159 0 min 0,000 mm 0,0 UV-I 0 W/m 0,7 C 4,2 C 3,2 km/h (1 Bft) 98,00 %
13.03.2017 19:32 4,2 C 78 % 1026,2 hPa 0,0 l/m 2,9 km/h (1 Bft) S-SO 159 0 min 0,000 mm 0,0 UV-I 0 W/m 0,7 C 4,2 C 3,2 km/h (1 Bft) 97,87 %
13.03.2017 19:34 4,1 C 78 % 1026,2 hPa 0,0 l/m 2,8 km/h (1 Bft) S-SO 159 0 min 0,000 mm 0,0 UV-I 0 W/m 0,6 C 4,1 C 6,4 km/h (2 Bft) 97,37 %
13.03.2017 19:36 4,0 C 79 % 1026,2 hPa 0,0 l/m 2,7 km/h (1 Bft) S-SO 159 0 min 0,000 mm 0,0 UV-I 0 W/m 0,7 C 4,0 C 3,2 km/h (1 Bft) 97,62 %
13.03.2017 19:38 3,9 C 79 % 1026,2 hPa 0,0 l/m 1,9 km/h (1 Bft) S-SO 159 0 min 0,000 mm 0,0 UV-I 0 W/m 0,6 C 3,9 C 3,2 km/h (1 Bft) 100,00 %
13.03.2017 19:40 3,8 C 80 % 1026,2 hPa 0,0 l/m 2,1 km/h (1 Bft) S-SO 159 0 min 0,000 mm 0,0 UV-I 0 W/m 0,7 C 3,8 C 3,2 km/h (1 Bft) 100,00 %
13.03.2017 19:42 3,8 C 80 % 1026,2 hPa 0,0 l/m 1,6 km/h (1 Bft) S-SO 159 0 min 0,000 mm 0,0 UV-I 0 W/m 0,7 C 3,8 C 3,2 km/h (1 Bft) 100,00 %
13.03.2017 19:44 3,8 C 80 % 1026,2 hPa 0,0 l/m 1,5 km/h (1 Bft) S-SO 159 0 min 0,000 mm 0,0 UV-I 0 W/m 0,7 C 3,8 C 3,2 km/h (1 Bft) 100,00 %
13.03.2017 19:46 3,9 C 79 % 1026,2 hPa 0,0 l/m 2,3 km/h (1 Bft) S-SO 159 0 min 0,000 mm 0,0 UV-I 0 W/m 0,6 C 3,9 C 3,2 km/h (1 Bft) 98,00 %
13.03.2017 19:48 4,1 C 79 % 1026,3 hPa 0,0 l/m 2,6 km/h (1 Bft) S-SO 159 0 min 0,000 mm 0,0 UV-I 0 W/m 0,8 C 4,1 C 3,2 km/h (1 Bft) 98,11 %
13.03.2017 19:50 4,1 C 79 % 1026,2 hPa 0,0 l/m 1,4 km/h (1 Bft) S-SO 159 0 min 0,000 mm 0,0 UV-I 0 W/m 0,8 C 4,1 C 3,2 km/h (1 Bft) 100,00 %
13.03.2017 19:52 4,1 C 80 % 1026,3 hPa 0,0 l/m 0,3 km/h (0 Bft) S-SO 159 0 min 0,000 mm 0,0 UV-I 0 W/m 1,0 C 4,1 C 1,6 km/h (1 Bft) 98,00 %
13.03.2017 19:54 3,9 C 80 % 1026,3 hPa 0,0 l/m 0,5 km/h (0 Bft) S-SO 159 0 min 0,000 mm 0,0 UV-I 0 W/m 0,8 C 3,9 C 1,6 km/h (1 Bft) 100,00 %
13.03.2017 19:56 3,9 C 80 % 1026,4 hPa 0,0 l/m 2,0 km/h (1 Bft) S-SO 159 0 min 0,000 mm 0,0 UV-I 0 W/m 0,8 C 3,9 C 3,2 km/h (1 Bft) 97,37 %
13.03.2017 19:58 4,0 C 80 % 1026,3 hPa 0,0 l/m 1,8 km/h (1 Bft) S-SO 159 0 min 0,000 mm 0,0 UV-I 0 W/m 0,9 C 4,0 C 3,2 km/h (1 Bft) 98,00 %
13.03.2017 20:00 4,1 C 80 % 1026,3 hPa 0,0 l/m 2,4 km/h (1 Bft) S-SO 159 0 min 0,000 mm 0,0 UV-I 0 W/m 1,0 C 4,1 C 3,2 km/h (1 Bft) 100,00 %
13.03.2017 20:02 4,1 C 80 % 1026,3 hPa 0,0 l/m 2,5 km/h (1 Bft) S-SO 159 0 min 0,000 mm 0,0 UV-I 0 W/m 1,0 C 4,1 C 3,2 km/h (1 Bft) 98,00 %
13.03.2017 20:04 4,0 C 80 % 1026,3 hPa 0,0 l/m 2,9 km/h (1 Bft) S-SO 159 0 min 0,000 mm 0,0 UV-I 0 W/m 0,9 C 4,0 C 3,2 km/h (1 Bft) 98,00 %
13.03.2017 20:06 4,1 C 79 % 1026,3 hPa 0,0 l/m 3,1 km/h (1 Bft) S-SO 159 0 min 0,000 mm 0,0 UV-I 0 W/m 0,8 C 4,1 C 6,4 km/h (2 Bft) 100,00 %
13.03.2017 20:08 4,2 C 79 % 1026,4 hPa 0,0 l/m 2,8 km/h (1 Bft) S-SO 159 0 min 0,000 mm 0,0 UV-I 0 W/m 0,9 C 4,2 C 6,4 km/h (2 Bft) 95,24 %
13.03.2017 20:10 4,2 C 78 % 1026,5 hPa 0,0 l/m 2,4 km/h (1 Bft) S-SO 159 0 min 0,000 mm 0,0 UV-I 0 W/m 0,7 C 4,2 C 3,2 km/h (1 Bft) 98,15 %
13.03.2017 20:12 4,2 C 78 % 1026,5 hPa 0,0 l/m 2,2 km/h (1 Bft) S-SO 159 0 min 0,000 mm 0,0 UV-I 0 W/m 0,7 C 4,2 C 3,2 km/h (1 Bft) 96,00 %
13.03.2017 20:14 4,2 C 78 % 1026,5 hPa 0,0 l/m 3,0 km/h (1 Bft) S-SO 159 0 min 0,000 mm 0,0 UV-I 0 W/m 0,7 C 4,2 C 6,4 km/h (2 Bft) 96,00 %
13.03.2017 20:16 4,1 C 79 % 1026,5 hPa 0,0 l/m 2,4 km/h (1 Bft) S-SO 159 0 min 0,000 mm 0,0 UV-I 0 W/m 0,8 C 4,1 C 3,2 km/h (1 Bft) 97,22 %
13.03.2017 20:18 4,1 C 80 % 1026,5 hPa 0,0 l/m 2,2 km/h (1 Bft) S-SO 159 0 min 0,000 mm 0,0 UV-I 0 W/m 1,0 C 4,1 C 6,4 km/h (2 Bft) 97,73 %
13.03.2017 20:20 3,9 C 81 % 1026,6 hPa 0,0 l/m 3,8 km/h (1 Bft) S-SO 159 0 min 0,000 mm 0,0 UV-I 0 W/m 0,9 C 3,9 C 6,4 km/h (2 Bft) 98,39 %
13.03.2017 20:22 3,9 C 81 % 1026,7 hPa 0,0 l/m 2,5 km/h (1 Bft) S-SO 159 0 min 0,000 mm 0,0 UV-I 0 W/m 0,9 C 3,9 C 6,4 km/h (2 Bft) 97,87 %
13.03.2017 20:24 3,9 C 81 % 1026,7 hPa 0,0 l/m 3,4 km/h (1 Bft) S-SO 159 0 min 0,000 mm 0,0 UV-I 0 W/m 0,9 C 3,9 C 6,4 km/h (2 Bft) 97,87 %
13.03.2017 20:26 4,0 C 80 % 1026,7 hPa 0,0 l/m 3,6 km/h (1 Bft) S-SO 159 0 min 0,000 mm 0,0 UV-I 0 W/m 0,9 C 4,0 C 6,4 km/h (2 Bft) 97,56 %
13.03.2017 20:28 4,1 C 80 % 1026,8 hPa 0,0 l/m 2,3 km/h (1 Bft) S-SO 159 0 min 0,000 mm 0,0 UV-I 0 W/m 1,0 C 4,1 C 6,4 km/h (2 Bft) 98,00 %
13.03.2017 20:30 4,1 C 80 % 1026,8 hPa 0,0 l/m 2,0 km/h (1 Bft) S-SO 159 0 min 0,000 mm 0,0 UV-I 0 W/m 1,0 C 4,1 C 3,2 km/h (1 Bft) 92,00 %
13.03.2017 20:32 4,1 C 80 % 1026,8 hPa 0,0 l/m 3,9 km/h (1 Bft) S-SO 159 0 min 0,000 mm 0,0 UV-I 0 W/m 1,0 C 4,1 C 6,4 km/h (2 Bft) 95,74 %
13.03.2017 20:34 4,1 C 80 % 1026,8 hPa 0,0 l/m 2,8 km/h (1 Bft) S-SO 159 0 min 0,000 mm 0,0 UV-I 0 W/m 1,0 C 4,1 C 6,4 km/h (2 Bft) 93,18 %
13.03.2017 20:36 4,1 C 80 % 1026,8 hPa 0,0 l/m 2,1 km/h (1 Bft) S-SO 159 0 min 0,000 mm 0,0 UV-I 0 W/m 1,0 C 4,1 C 3,2 km/h (1 Bft) 96,00 %
13.03.2017 20:38 4,2 C 80 % 1026,9 hPa 0,0 l/m 3,3 km/h (1 Bft) S-SO 159 0 min 0,000 mm 0,0 UV-I 0 W/m 1,1 C 4,2 C 6,4 km/h (2 Bft) 91,43 %
13.03.2017 20:40 4,3 C 80 % 1026,9 hPa 0,0 l/m 3,7 km/h (1 Bft) S-SO 159 0 min 0,000 mm 0,0 UV-I 0 W/m 1,2 C 4,3 C 6,4 km/h (2 Bft) 94,34 %
13.03.2017 20:42 4,4 C 80 % 1026,9 hPa 0,0 l/m 2,4 km/h (1 Bft) S-SO 159 0 min 0,000 mm 0,0 UV-I 0 W/m 1,3 C 4,4 C 6,4 km/h (2 Bft) 95,45 %
13.03.2017 20:44 4,4 C 80 % 1027,0 hPa 0,0 l/m 2,1 km/h (1 Bft) S-SO 159 0 min 0,000 mm 0,0 UV-I 0 W/m 1,3 C 4,4 C 6,4 km/h (2 Bft) 95,12 %
13.03.2017 20:46 4,5 C 80 % 1027,0 hPa 0,0 l/m 1,7 km/h (1 Bft) S-SO 159 0 min 0,000 mm 0,0 UV-I 0 W/m 1,4 C 4,5 C 3,2 km/h (1 Bft) 92,86 %
13.03.2017 20:48 4,6 C 80 % 1027,0 hPa 0,0 l/m 1,5 km/h (1 Bft) S-SO 159 0 min 0,000 mm 0,0 UV-I 0 W/m 1,5 C 4,6 C 3,2 km/h (1 Bft) 92,00 %
13.03.2017 20:50 4,6 C 80 % 1027,0 hPa 0,0 l/m 1,6 km/h (1 Bft) S-SO 159 0 min 0,000 mm 0,0 UV-I 0 W/m 1,5 C 4,6 C 3,2 km/h (1 Bft) 97,37 %
13.03.2017 20:52 4,5 C 80 % 1027,1 hPa 0,0 l/m 1,9 km/h (1 Bft) S-SO 159 0 min 0,000 mm 0,0 UV-I 0 W/m 1,4 C 4,5 C 3,2 km/h (1 Bft) 92,86 %
13.03.2017 20:54 4,4 C 80 % 1027,1 hPa 0,0 l/m 1,3 km/h (1 Bft) S-SO 159 0 min 0,000 mm 0,0 UV-I 0 W/m 1,3 C 4,4 C 3,2 km/h (1 Bft) 92,73 %
13.03.2017 20:56 4,3 C 81 % 1027,1 hPa 0,0 l/m 1,4 km/h (1 Bft) S-SO 159 0 min 0,000 mm 0,0 UV-I 0 W/m 1,3 C 4,3 C 3,2 km/h (1 Bft) 92,45 %
13.03.2017 20:58 4,3 C 81 % 1027,1 hPa 0,0 l/m 1,7 km/h (1 Bft) S-SO 159 0 min 0,000 mm 0,0 UV-I 0 W/m 1,3 C 4,3 C 3,2 km/h (1 Bft) 95,24 %
13.03.2017 21:00 4,3 C 81 % 1027,1 hPa 0,0 l/m 1,5 km/h (1 Bft) S-SO 159 0 min 0,000 mm 0,0 UV-I 0 W/m 1,3 C 4,3 C 3,2 km/h (1 Bft) 93,62 %
13.03.2017 21:02 4,3 C 81 % 1027,1 hPa 0,0 l/m 1,3 km/h (1 Bft) S-SO 159 0 min 0,000 mm 0,0 UV-I 0 W/m 1,3 C 4,3 C 3,2 km/h (1 Bft) 94,34 %
13.03.2017 21:04 4,3 C 81 % 1027,1 hPa 0,0 l/m 2,5 km/h (1 Bft) S-SO 159 0 min 0,000 mm 0,0 UV-I 0 W/m 1,3 C 4,3 C 6,4 km/h (2 Bft) 94,74 %
13.03.2017 21:06 4,3 C 81 % 1027,1 hPa 0,0 l/m 3,6 km/h (1 Bft) S-SO 159 0 min 0,000 mm 0,0 UV-I 0 W/m 1,3 C 4,3 C 6,4 km/h (2 Bft) 94,00 %
13.03.2017 21:08 4,4 C 81 % 1027,1 hPa 0,0 l/m 3,5 km/h (1 Bft) S-SO 159 0 min 0,000 mm 0,0 UV-I 0 W/m 1,4 C 4,4 C 6,4 km/h (2 Bft) 96,00 %
13.03.2017 21:10 4,4 C 81 % 1027,2 hPa 0,0 l/m 3,3 km/h (1 Bft) S-SO 159 0 min 0,000 mm 0,0 UV-I 0 W/m 1,4 C 4,4 C 6,4 km/h (2 Bft) 94,74 %
13.03.2017 21:12 4,3 C 81 % 1027,2 hPa 0,0 l/m 3,5 km/h (1 Bft) S-SO 159 0 min 0,000 mm 0,0 UV-I 0 W/m 1,3 C 4,3 C 6,4 km/h (2 Bft) 96,23 %
13.03.2017 21:14 4,2 C 81 % 1027,2 hPa 0,0 l/m 4,9 km/h (1 Bft) S-SO 160 0 min 0,000 mm 0,0 UV-I 0 W/m 1,2 C 4,2 C 8,0 km/h (2 Bft) 97,56 %
13.03.2017 21:16 4,2 C 82 % 1027,2 hPa 0,0 l/m 4,7 km/h (1 Bft) S-SO 163 0 min 0,000 mm 0,0 UV-I 0 W/m 1,4 C 4,2 C 8,0 km/h (2 Bft) 92,86 %
13.03.2017 21:18 4,2 C 82 % 1027,2 hPa 0,0 l/m 4,1 km/h (1 Bft) S-SO 163 0 min 0,000 mm 0,0 UV-I 0 W/m 1,4 C 4,2 C 6,4 km/h (2 Bft) 100,00 %
13.03.2017 21:20 4,2 C 83 % 1027,3 hPa 0,0 l/m 3,9 km/h (1 Bft) S-SO 163 0 min 0,000 mm 0,0 UV-I 0 W/m 1,6 C 4,2 C 6,4 km/h (2 Bft) 94,00 %
13.03.2017 21:22 4,2 C 83 % 1027,3 hPa 0,0 l/m 4,0 km/h (1 Bft) S-SO 163 0 min 0,000 mm 0,0 UV-I 0 W/m 1,6 C 4,2 C 6,4 km/h (2 Bft) 98,00 %
13.03.2017 21:24 4,2 C 83 % 1027,3 hPa 0,0 l/m 3,6 km/h (1 Bft) S-SO 164 0 min 0,000 mm 0,0 UV-I 0 W/m 1,6 C 4,2 C 8,0 km/h (2 Bft) 95,12 %
13.03.2017 21:26 4,2 C 83 % 1027,3 hPa 0,0 l/m 3,6 km/h (1 Bft) S-SO 164 0 min 0,000 mm 0,0 UV-I 0 W/m 1,6 C 4,2 C 6,4 km/h (2 Bft) 96,23 %
13.03.2017 21:28 4,2 C 83 % 1027,4 hPa 0,0 l/m 2,9 km/h (1 Bft) S-SO 164 0 min 0,000 mm 0,0 UV-I 0 W/m 1,6 C 4,2 C 6,4 km/h (2 Bft) 97,87 %
13.03.2017 21:30 4,2 C 83 % 1027,4 hPa 0,0 l/m 2,6 km/h (1 Bft) S-SO 164 0 min 0,000 mm 0,0 UV-I 0 W/m 1,6 C 4,2 C 6,4 km/h (2 Bft) 96,00 %
13.03.2017 21:32 4,2 C 83 % 1027,4 hPa 0,0 l/m 4,8 km/h (1 Bft) S-SO 166 0 min 0,000 mm 0,0 UV-I 0 W/m 1,6 C 4,2 C 6,4 km/h (2 Bft) 92,11 %
13.03.2017 21:34 4,2 C 83 % 1027,4 hPa 0,0 l/m 4,5 km/h (1 Bft) S-SO 166 0 min 0,000 mm 0,0 UV-I 0 W/m 1,6 C 4,2 C 6,4 km/h (2 Bft) 100,00 %
13.03.2017 21:36 4,2 C 83 % 1027,5 hPa 0,0 l/m 3,2 km/h (1 Bft) S-SO 167 0 min 0,000 mm 0,0 UV-I 0 W/m 1,6 C 4,2 C 6,4 km/h (2 Bft) 100,00 %
13.03.2017 21:38 4,2 C 83 % 1027,5 hPa 0,0 l/m 3,2 km/h (1 Bft) S-SO 168 0 min 0,000 mm 0,0 UV-I 0 W/m 1,6 C 4,2 C 8,0 km/h (2 Bft) 100,00 %
13.03.2017 21:40 4,2 C 83 % 1027,5 hPa 0,0 l/m 3,2 km/h (1 Bft) S-SO 168 0 min 0,000 mm 0,0 UV-I 0 W/m 1,6 C 4,2 C 6,4 km/h (2 Bft) 100,00 %
13.03.2017 21:42 4,3 C 83 % 1027,4 hPa 0,0 l/m 2,1 km/h (1 Bft) S 171 0 min 0,000 mm 0,0 UV-I 0 W/m 1,7 C 4,3 C 6,4 km/h (2 Bft) 97,37 %
13.03.2017 21:44 4,3 C 83 % 1027,5 hPa 0,0 l/m 3,8 km/h (1 Bft) S 173 0 min 0,000 mm 0,0 UV-I 0 W/m 1,7 C 4,3 C 4,8 km/h (1 Bft) 100,00 %
13.03.2017 21:46 4,3 C 83 % 1027,5 hPa 0,0 l/m 3,9 km/h (1 Bft) S 173 0 min 0,000 mm 0,0 UV-I 0 W/m 1,7 C 4,3 C 8,0 km/h (2 Bft) 97,37 %
13.03.2017 21:48 4,2 C 83 % 1027,4 hPa 0,0 l/m 4,0 km/h (1 Bft) S 173 0 min 0,000 mm 0,0 UV-I 0 W/m 1,6 C 4,2 C 4,8 km/h (1 Bft) 96,92 %
13.03.2017 21:50 4,2 C 83 % 1027,5 hPa 0,0 l/m 4,2 km/h (1 Bft) S 173 0 min 0,000 mm 0,0 UV-I 0 W/m 1,6 C 4,2 C 8,0 km/h (2 Bft) 97,87 %
13.03.2017 21:52 4,2 C 84 % 1027,4 hPa 0,0 l/m 4,1 km/h (1 Bft) S 173 0 min 0,000 mm 0,0 UV-I 0 W/m 1,7 C 4,2 C 4,8 km/h (1 Bft) 97,87 %
13.03.2017 21:54 4,1 C 84 % 1027,5 hPa 0,0 l/m 3,7 km/h (1 Bft) S 173 0 min 0,000 mm 0,0 UV-I 0 W/m 1,6 C 4,1 C 4,8 km/h (1 Bft) 100,00 %
13.03.2017 21:56 4,1 C 84 % 1027,5 hPa 0,0 l/m 4,2 km/h (1 Bft) S 173 0 min 0,000 mm 0,0 UV-I 0 W/m 1,6 C 4,1 C 8,0 km/h (2 Bft) 98,00 %
13.03.2017 21:58 4,0 C 84 % 1027,5 hPa 0,0 l/m 4,3 km/h (1 Bft) S 173 0 min 0,000 mm 0,0 UV-I 0 W/m 1,5 C 4,0 C 4,8 km/h (1 Bft) 100,00 %
13.03.2017 22:00 3,9 C 84 % 1027,5 hPa 0,0 l/m 4,2 km/h (1 Bft) S 173 0 min 0,000 mm 0,0 UV-I 0 W/m 1,4 C 3,9 C 8,0 km/h (2 Bft) 96,00 %
13.03.2017 22:02 3,9 C 85 % 1027,5 hPa 0,0 l/m 4,0 km/h (1 Bft) S 175 0 min 0,000 mm 0,0 UV-I 0 W/m 1,6 C 3,9 C 8,0 km/h (2 Bft) 95,45 %
13.03.2017 22:04 3,9 C 85 % 1027,6 hPa 0,0 l/m 5,1 km/h (1 Bft) S-SW 213 0 min 0,000 mm 0,0 UV-I 0 W/m 1,6 C 3,9 C 8,0 km/h (2 Bft) 97,87 %
13.03.2017 22:06 3,9 C 85 % 1027,6 hPa 0,0 l/m 4,7 km/h (1 Bft) S-SW 209 0 min 0,000 mm 0,0 UV-I 0 W/m 1,6 C 3,9 C 6,4 km/h (2 Bft) 100,00 %
13.03.2017 22:08 3,8 C 85 % 1027,6 hPa 0,0 l/m 4,0 km/h (1 Bft) S-SW 209 0 min 0,000 mm 0,0 UV-I 0 W/m 1,5 C 3,8 C 6,4 km/h (2 Bft) 98,11 %
13.03.2017 22:10 3,9 C 85 % 1027,6 hPa 0,0 l/m 4,2 km/h (1 Bft) S-SW 209 0 min 0,000 mm 0,0 UV-I 0 W/m 1,6 C 3,9 C 6,4 km/h (2 Bft) 100,00 %
13.03.2017 22:12 3,9 C 85 % 1027,6 hPa 0,0 l/m 5,3 km/h (1 Bft) S-SW 209 0 min 0,000 mm 0,0 UV-I 0 W/m 1,6 C 3,9 C 8,0 km/h (2 Bft) 98,11 %
13.03.2017 22:14 3,9 C 85 % 1027,7 hPa 0,0 l/m 4,0 km/h (1 Bft) S-SW 207 0 min 0,000 mm 0,0 UV-I 0 W/m 1,6 C 3,9 C 8,0 km/h (2 Bft) 97,87 %
13.03.2017 22:16 3,9 C 85 % 1027,7 hPa 0,0 l/m 4,2 km/h (1 Bft) S-SW 207 0 min 0,000 mm 0,0 UV-I 0 W/m 1,6 C 3,9 C 6,4 km/h (2 Bft) 100,00 %
13.03.2017 22:18 3,9 C 84 % 1027,7 hPa 0,0 l/m 4,1 km/h (1 Bft) S-SW 207 0 min 0,000 mm 0,0 UV-I 0 W/m 1,4 C 3,9 C 6,4 km/h (2 Bft) 97,56 %
13.03.2017 22:20 3,9 C 84 % 1027,7 hPa 0,0 l/m 5,0 km/h (1 Bft) S-SW 207 0 min 0,000 mm 0,0 UV-I 0 W/m 1,4 C 3,9 C 8,0 km/h (2 Bft) 100,00 %
13.03.2017 22:22 3,9 C 84 % 1027,7 hPa 0,0 l/m 4,0 km/h (1 Bft) S-SW 206 0 min 0,000 mm 0,0 UV-I 0 W/m 1,4 C 3,9 C 6,4 km/h (2 Bft) 98,00 %
13.03.2017 22:24 3,9 C 84 % 1027,7 hPa 0,0 l/m 5,1 km/h (1 Bft) S-SW 206 0 min 0,000 mm 0,0 UV-I 0 W/m 1,4 C 3,9 C 6,4 km/h (2 Bft) 100,00 %
13.03.2017 22:26 3,9 C 84 % 1027,8 hPa 0,0 l/m 4,6 km/h (1 Bft) S-SW 206 0 min 0,000 mm 0,0 UV-I 0 W/m 1,4 C 3,9 C 6,4 km/h (2 Bft) 98,21 %
13.03.2017 22:28 3,9 C 84 % 1027,7 hPa 0,0 l/m 3,8 km/h (1 Bft) S-SW 206 0 min 0,000 mm 0,0 UV-I 0 W/m 1,4 C 3,9 C 4,8 km/h (1 Bft) 100,00 %
13.03.2017 22:30 3,9 C 84 % 1027,7 hPa 0,0 l/m 4,5 km/h (1 Bft) S-SW 206 0 min 0,000 mm 0,0 UV-I 0 W/m 1,4 C 3,9 C 6,4 km/h (2 Bft) 100,00 %
13.03.2017 22:32 3,9 C 84 % 1027,8 hPa 0,0 l/m 4,3 km/h (1 Bft) S-SW 206 0 min 0,000 mm 0,0 UV-I 0 W/m 1,4 C 3,9 C 6,4 km/h (2 Bft) 97,56 %
13.03.2017 22:34 3,9 C 84 % 1027,8 hPa 0,0 l/m 3,8 km/h (1 Bft) S-SW 204 0 min 0,000 mm 0,0 UV-I 0 W/m 1,4 C 3,9 C 6,4 km/h (2 Bft) 98,11 %
13.03.2017 22:36 4,0 C 84 % 1027,8 hPa 0,0 l/m 4,4 km/h (1 Bft) S-SW 202 0 min 0,000 mm 0,0 UV-I 0 W/m 1,5 C 4,0 C 8,0 km/h (2 Bft) 96,00 %
13.03.2017 22:38 4,0 C 84 % 1027,8 hPa 0,0 l/m 3,8 km/h (1 Bft) S-SW 192 0 min 0,000 mm 0,0 UV-I 0 W/m 1,5 C 4,0 C 6,4 km/h (2 Bft) 100,00 %
13.03.2017 22:40 3,9 C 84 % 1027,9 hPa 0,0 l/m 3,5 km/h (1 Bft) S 180 0 min 0,000 mm 0,0 UV-I 0 W/m 1,4 C 3,9 C 4,8 km/h (1 Bft) 97,01 %
13.03.2017 22:42 3,9 C 84 % 1027,8 hPa 0,0 l/m 3,9 km/h (1 Bft) S 177 0 min 0,000 mm 0,0 UV-I 0 W/m 1,4 C 3,9 C 6,4 km/h (2 Bft) 97,37 %
13.03.2017 22:44 4,0 C 84 % 1027,9 hPa 0,0 l/m 4,1 km/h (1 Bft) S 182 0 min 0,000 mm 0,0 UV-I 0 W/m 1,5 C 4,0 C 8,0 km/h (2 Bft) 96,43 %
13.03.2017 22:46 4,0 C 84 % 1027,8 hPa 0,0 l/m 4,6 km/h (1 Bft) S 184 0 min 0,000 mm 0,0 UV-I 0 W/m 1,5 C 4,0 C 8,0 km/h (2 Bft) 96,00 %
13.03.2017 22:48 4,0 C 84 % 1027,9 hPa 0,0 l/m 3,8 km/h (1 Bft) S 185 0 min 0,000 mm 0,0 UV-I 0 W/m 1,5 C 4,0 C 6,4 km/h (2 Bft) 94,29 %
13.03.2017 22:50 3,9 C 84 % 1027,9 hPa 0,0 l/m 4,8 km/h (1 Bft) S 186 0 min 0,000 mm 0,0 UV-I 0 W/m 1,4 C 3,9 C 8,0 km/h (2 Bft) 96,23 %
13.03.2017 22:52 3,9 C 84 % 1027,9 hPa 0,0 l/m 5,6 km/h (1 Bft) S-SW 195 0 min 0,000 mm 0,0 UV-I 0 W/m 1,4 C 3,9 C 8,0 km/h (2 Bft) 96,00 %
13.03.2017 22:54 3,9 C 84 % 1027,9 hPa 0,0 l/m 4,5 km/h (1 Bft) S-SW 193 0 min 0,000 mm 0,0 UV-I 0 W/m 1,4 C 3,9 C 6,4 km/h (2 Bft) 95,45 %
13.03.2017 22:56 3,9 C 84 % 1027,9 hPa 0,0 l/m 4,6 km/h (1 Bft) S 186 0 min 0,000 mm 0,0 UV-I 0 W/m 1,4 C 3,9 C 9,7 km/h (2 Bft) 98,11 %
13.03.2017 22:58 3,9 C 84 % 1027,9 hPa 0,0 l/m 3,9 km/h (1 Bft) S 182 0 min 0,000 mm 0,0 UV-I 0 W/m 1,4 C 3,9 C 6,4 km/h (2 Bft) 94,74 %
13.03.2017 23:00 3,9 C 84 % 1027,9 hPa 0,0 l/m 4,6 km/h (1 Bft) S 178 0 min 0,000 mm 0,0 UV-I 0 W/m 1,4 C 3,9 C 8,0 km/h (2 Bft) 96,23 %
13.03.2017 23:02 4,0 C 84 % 1027,8 hPa 0,0 l/m 3,9 km/h (1 Bft) S 180 0 min 0,000 mm 0,0 UV-I 0 W/m 1,5 C 4,0 C 6,4 km/h (2 Bft) 97,37 %
13.03.2017 23:04 4,0 C 84 % 1027,9 hPa 0,0 l/m 5,2 km/h (1 Bft) S-SW 194 0 min 0,000 mm 0,0 UV-I 0 W/m 1,5 C 4,0 C 8,0 km/h (2 Bft) 94,34 %
13.03.2017 23:06 4,0 C 84 % 1027,8 hPa 0,0 l/m 5,0 km/h (1 Bft) S 191 0 min 0,000 mm 0,0 UV-I 0 W/m 1,5 C 4,0 C 9,7 km/h (2 Bft) 96,15 %
13.03.2017 23:08 4,0 C 84 % 1027,8 hPa 0,0 l/m 5,6 km/h (1 Bft) S-SW 193 0 min 0,000 mm 0,0 UV-I 0 W/m 1,5 C 4,0 C 9,7 km/h (2 Bft) 95,59 %
13.03.2017 23:10 4,0 C 84 % 1027,9 hPa 0,0 l/m 5,7 km/h (1 Bft) S-SW 195 0 min 0,000 mm 0,0 UV-I 0 W/m 1,5 C 4,0 C 8,0 km/h (2 Bft) 98,00 %
13.03.2017 23:12 3,9 C 84 % 1027,9 hPa 0,0 l/m 5,9 km/h (2 Bft) S 188 0 min 0,000 mm 0,0 UV-I 0 W/m 1,4 C 3,9 C 11,3 km/h (2 Bft) 94,74 %
13.03.2017 23:14 4,0 C 84 % 1027,9 hPa 0,0 l/m 5,9 km/h (2 Bft) S 189 0 min 0,000 mm 0,0 UV-I 0 W/m 1,5 C 4,0 C 8,0 km/h (2 Bft) 98,11 %
13.03.2017 23:16 3,9 C 84 % 1027,9 hPa 0,0 l/m 5,0 km/h (1 Bft) S 189 0 min 0,000 mm 0,0 UV-I 0 W/m 1,4 C 3,9 C 6,4 km/h (2 Bft) 100,00 %
13.03.2017 23:18 3,9 C 84 % 1027,9 hPa 0,0 l/m 5,1 km/h (1 Bft) S 189 0 min 0,000 mm 0,0 UV-I 0 W/m 1,4 C 3,9 C 8,0 km/h (2 Bft) 98,21 %
13.03.2017 23:20 3,9 C 84 % 1027,9 hPa 0,0 l/m 5,3 km/h (1 Bft) S 189 0 min 0,000 mm 0,0 UV-I 0 W/m 1,4 C 3,9 C 8,0 km/h (2 Bft) 100,00 %
13.03.2017 23:22 3,8 C 84 % 1027,9 hPa 0,0 l/m 5,3 km/h (1 Bft) S-SW 193 0 min 0,000 mm 0,0 UV-I 0 W/m 1,4 C 3,8 C 8,0 km/h (2 Bft) 98,00 %
13.03.2017 23:24 3,8 C 84 % 1027,9 hPa 0,0 l/m 5,1 km/h (1 Bft) S-SW 193 0 min 0,000 mm 0,0 UV-I 0 W/m 1,4 C 3,8 C 8,0 km/h (2 Bft) 97,37 %
13.03.2017 23:26 3,8 C 84 % 1028,0 hPa 0,0 l/m 3,8 km/h (1 Bft) S-SW 193 0 min 0,000 mm 0,0 UV-I 0 W/m 1,4 C 3,8 C 6,4 km/h (2 Bft) 100,00 %
13.03.2017 23:28 3,8 C 85 % 1027,9 hPa 0,0 l/m 3,4 km/h (1 Bft) S-SW 193 0 min 0,000 mm 0,0 UV-I 0 W/m 1,5 C 3,8 C 6,4 km/h (2 Bft) 100,00 %
13.03.2017 23:30 3,7 C 85 % 1027,9 hPa 0,0 l/m 4,4 km/h (1 Bft) S-SW 193 0 min 0,000 mm 0,0 UV-I 0 W/m 1,4 C 3,7 C 6,4 km/h (2 Bft) 98,11 %
13.03.2017 23:32 3,7 C 85 % 1027,9 hPa 0,0 l/m 4,5 km/h (1 Bft) S-SW 193 0 min 0,000 mm 0,0 UV-I 0 W/m 1,4 C 3,7 C 6,4 km/h (2 Bft) 100,00 %
13.03.2017 23:34 3,7 C 85 % 1027,9 hPa 0,0 l/m 2,9 km/h (1 Bft) S-SW 193 0 min 0,000 mm 0,0 UV-I 0 W/m 1,4 C 3,7 C 4,8 km/h (1 Bft) 97,22 %
13.03.2017 23:36 3,6 C 85 % 1028,0 hPa 0,0 l/m 3,5 km/h (1 Bft) S-SW 192 0 min 0,000 mm 0,0 UV-I 0 W/m 1,3 C 3,6 C 4,8 km/h (1 Bft) 96,43 %
13.03.2017 23:38 3,6 C 85 % 1028,0 hPa 0,0 l/m 3,5 km/h (1 Bft) S-SW 192 0 min 0,000 mm 0,0 UV-I 0 W/m 1,3 C 3,6 C 6,4 km/h (2 Bft) 97,96 %
13.03.2017 23:40 3,6 C 85 % 1028,0 hPa 0,0 l/m 5,0 km/h (1 Bft) S-SW 192 0 min 0,000 mm 0,0 UV-I 0 W/m 1,3 C 3,6 C 6,4 km/h (2 Bft) 97,92 %
13.03.2017 23:42 3,6 C 85 % 1028,0 hPa 0,0 l/m 4,3 km/h (1 Bft) S-SW 192 0 min 0,000 mm 0,0 UV-I 0 W/m 1,3 C 3,6 C 6,4 km/h (2 Bft) 100,00 %
13.03.2017 23:44 3,6 C 85 % 1028,0 hPa 0,0 l/m 5,3 km/h (1 Bft) S-SW 192 0 min 0,000 mm 0,0 UV-I 0 W/m 1,3 C 3,6 C 6,4 km/h (2 Bft) 98,00 %
13.03.2017 23:46 3,5 C 85 % 1028,0 hPa 0,0 l/m 5,1 km/h (1 Bft) S-SW 192 0 min 0,000 mm 0,0 UV-I 0 W/m 1,2 C 3,5 C 6,4 km/h (2 Bft) 100,00 %
13.03.2017 23:48 3,4 C 85 % 1028,0 hPa 0,0 l/m 5,2 km/h (1 Bft) S-SW 192 0 min 0,000 mm 0,0 UV-I 0 W/m 1,1 C 3,4 C 6,4 km/h (2 Bft) 97,56 %
13.03.2017 23:50 3,4 C 86 % 1028,0 hPa 0,0 l/m 5,0 km/h (1 Bft) S-SW 192 0 min 0,000 mm 0,0 UV-I 0 W/m 1,3 C 3,4 C 6,4 km/h (2 Bft) 96,23 %
13.03.2017 23:52 3,3 C 86 % 1028,0 hPa 0,0 l/m 5,9 km/h (2 Bft) S-SW 193 0 min 0,000 mm 0,0 UV-I 0 W/m 1,2 C 3,3 C 9,7 km/h (2 Bft) 100,00 %
13.03.2017 23:54 3,3 C 86 % 1028,0 hPa 0,0 l/m 6,3 km/h (2 Bft) S-SW 194 0 min 0,000 mm 0,0 UV-I 0 W/m 1,2 C 3,3 C 9,7 km/h (2 Bft) 97,87 %
13.03.2017 23:56 3,3 C 86 % 1028,0 hPa 0,0 l/m 6,5 km/h (2 Bft) S-SW 196 0 min 0,000 mm 0,0 UV-I 0 W/m 1,2 C 3,2 C 9,7 km/h (2 Bft) 100,00 %
13.03.2017 23:58 3,3 C 86 % 1028,0 hPa 0,0 l/m 5,1 km/h (1 Bft) S-SW 196 0 min 0,000 mm 0,0 UV-I 0 W/m 1,2 C 3,3 C 8,0 km/h (2 Bft) 94,34 %
_ Min-Zeit 06:34 15:18 00:00 - 02:16 - - - - - - 06:34 00:26 02:16 12:10
Minimum _ -2,0 C 53 % 1019,5 hPa - 0,0 km/h (0 Bft) - - - - - - -3,3 C -2,2 C 0,0 km/h (0 Bft) 88,64 %
_ Max-Zeit 15:44 06:58 23:26 00:00 10:10 - - 15:13 12:00 11:54 12:12 13:42 15:44 10:30 01:02
Maximum _ 9,0 C 93 % 1028,0 hPa 0,0 l/m 15,3 km/h
O-NO (3 Bft)
- - 3 min 0,280 mm 2,1 UV-I 655 W/m 2,2 C 9,0 C 20,9 km/h
NO (4 Bft)
100,00 %
Durchschnitt _ 3,3 C 78 % 1024,3 hPa #0,0 l/m 4,0 km/h (1 Bft) O-NO - #10:02 h #1,880 mm 1,4 UV-I 350 W/m -0,4 C 2,8 C 6,4 km/h (2 Bft) 96,48 %